[[{"header":{"parameterUnit":"m.s-1","parameterCategory":1,"la1":30.6,"la2":28.766,"lo1":-90.7593,"lo2":-88.6598,"dy":0.0162,"dx":0.0183,"nx":116,"ny":114,"refTime":"2023-06-03T12:00:00:Z","depth":0,"parameterNumber":2,"parameterNumberName":"U-component_of_WINDS"},"data":[0.0,0.0,0.0,0.0,0.0,0.0,0.0,0.0,0.0,0.0,0.0,0.0,0.0,0.0,0.0,0.0,0.0,0.0,0.0,0.0,0.0,0.0,0.0,0.0,0.0,0.0,0.0,0.0,0.0,0.0,0.0,0.0,0.0,0.0,0.0,0.0,0.0,0.0,0.0,0.0,0.0,0.0,0.0,0.0,0.0,0.0,0.0,0.0,0.0,0.0,0.0,0.0,0.0,0.0,0.0,0.0,0.0,0.0,0.0,0.0,0.0,0.0,0.0,0.0,0.0,0.0,0.0,0.0,0.0,0.0,0.0,0.0,0.0,0.0,0.0,0.0,0.0,0.0,0.0,0.0,0.0,0.0,0.0,0.0,0.0,0.0,0.0,0.0,0.0,0.0,0.0,0.0,0.0,0.0,0.0,0.0,0.0,0.0,0.0,0.0,0.0,0.0,0.0,0.0,0.0,0.0,0.0,0.0,0.0,0.0,0.0,0.0,0.0,0.0,0.0,0.0,0.0,0.0,0.0,0.0,0.0,0.0,0.0,0.0,0.0,0.0,0.0,0.0,0.0,0.0,0.0,0.0,0.0,0.0,0.0,0.0,0.0,0.0,0.0,0.0,0.0,0.0,0.0,0.0,0.0,0.0,0.0,0.0,0.0,0.0,0.0,0.0,0.0,0.0,0.0,0.0,0.0,0.0,0.0,0.0,0.0,0.0,0.0,0.0,0.0,0.0,0.0,0.0,0.0,0.0,0.0,0.0,0.0,0.0,0.0,0.0,0.0,0.0,0.0,0.0,0.0,0.0,0.0,0.0,0.0,0.0,0.0,0.0,0.0,0.0,0.0,0.0,0.0,0.0,0.0,0.0,0.0,0.0,0.0,0.0,0.0,0.0,0.0,0.0,0.0,0.0,0.0,0.0,0.0,0.0,0.0,0.0,0.0,0.0,0.0,0.0,0.0,0.0,0.0,0.0,0.0,0.0,0.0,0.0,0.0,0.0,0.0,0.0,0.0,0.0,0.0,0.0,0.0,0.0,0.0,0.0,0.0,0.0,0.0,0.0,0.0,0.0,0.0,0.0,0.0,0.0,0.0,0.0,0.0,0.0,0.0,0.0,0.0,0.0,0.0,0.0,0.0,0.0,0.0,0.0,0.0,0.0,0.0,0.0,0.0,0.0,0.0,0.0,0.0,0.0,0.0,0.0,0.0,0.0,0.0,0.0,0.0,0.0,0.0,0.0,0.0,0.0,0.0,0.0,0.0,0.0,0.0,0.0,0.0,0.0,0.0,0.0,0.0,0.0,0.0,0.0,0.0,0.0,0.0,0.0,0.0,0.0,0.0,0.0,0.0,0.0,0.0,0.0,0.0,0.0,0.0,0.0,0.0,0.0,0.0,0.0,0.0,0.0,0.0,0.0,0.0,0.0,0.0,0.0,0.0,0.0,0.0,0.0,0.0,0.0,0.0,0.0,0.0,0.0,0.0,0.0,0.0,0.0,0.0,0.0,0.0,0.0,0.0,0.0,0.0,0.0,0.0,0.0,0.0,0.0,0.0,0.0,0.0,0.0,0.0,0.0,0.0,0.0,0.0,0.0,0.0,0.0,0.0,0.0,0.0,0.0,0.0,0.0,0.0,0.0,0.0,0.0,0.0,0.0,0.0,0.0,0.0,0.0,0.0,0.0,0.0,0.0,0.0,0.0,0.0,0.0,0.0,0.0,0.0,0.0,0.0,0.0,0.0,0.0,0.0,0.0,0.0,0.0,0.0,0.0,0.0,0.0,0.0,0.0,0.0,0.0,0.0,0.0,0.0,0.0,0.0,0.0,0.0,0.0,0.0,0.0,0.0,0.0,0.0,0.0,0.0,0.0,0.0,0.0,0.0,0.0,0.0,0.0,0.0,0.0,0.0,0.0,0.0,0.0,0.0,0.0,0.0,0.0,0.0,0.0,0.0,0.0,0.0,0.0,0.0,0.0,0.0,0.0,0.0,0.0,0.0,0.0,0.0,0.0,0.0,0.0,0.0,0.0,0.0,0.0,0.0,0.0,0.0,0.0,0.0,0.0,0.0,0.0,0.0,0.0,0.0,0.0,0.0,0.0,0.0,0.0,0.0,0.0,0.0,0.0,0.0,0.0,0.0,0.0,0.0,0.0,0.0,0.0,0.0,0.0,0.0,0.0,0.0,0.0,0.0,0.0,0.0,0.0,0.0,0.0,0.0,0.0,0.0,0.0,0.0,0.0,0.0,0.0,0.0,0.0,0.0,0.0,0.0,0.0,0.0,0.0,0.0,0.0,0.0,0.0,0.0,0.0,0.0,0.0,0.0,0.0,0.0,0.0,0.0,0.0,0.0,0.0,0.0,0.0,0.0,0.0,0.0,0.0,0.0,0.0,0.0,0.0,0.0,0.0,0.0,0.0,0.0,0.0,0.0,0.0,0.0,0.0,0.0,0.0,0.0,0.0,0.0,0.0,0.0,0.0,0.0,0.0,0.0,0.0,0.0,0.0,0.0,0.0,0.0,0.0,0.0,0.0,0.0,0.0,0.0,0.0,0.0,0.0,0.0,0.0,0.0,0.0,0.0,0.0,0.0,0.0,0.0,0.0,0.0,0.0,0.0,0.0,0.0,0.0,0.0,0.0,0.0,0.0,0.0,0.0,0.0,0.0,0.0,0.0,0.0,0.0,0.0,0.0,0.0,0.0,0.0,0.0,0.0,0.0,0.0,0.0,0.0,0.0,0.0,0.0,0.0,0.0,0.0,0.0,0.0,0.0,0.0,0.0,0.0,0.0,0.0,0.0,0.0,0.0,0.0,0.0,0.0,0.0,0.0,0.0,0.0,0.0,0.0,0.0,0.0,0.0,0.0,0.0,0.0,0.0,0.0,0.0,0.0,0.0,0.0,0.0,0.0,0.0,0.0,0.0,0.0,0.0,0.0,0.0,0.0,0.0,0.0,0.0,0.0,0.0,0.0,0.0,0.0,0.0,0.0,0.0,0.0,0.0,0.0,0.0,0.0,0.0,0.0,0.0,0.0,0.0,0.0,0.0,0.0,0.0,0.0,0.0,0.0,0.0,0.0,0.0,0.0,0.0,0.0,0.0,0.0,0.0,0.0,0.0,0.0,0.0,0.0,0.0,0.0,0.0,0.0,0.0,0.0,0.0,0.0,0.0,0.0,0.0,0.0,0.0,0.0,0.0,0.0,0.0,0.0,0.0,0.0,0.0,0.0,0.0,0.0,0.0,0.0,0.0,0.0,0.0,0.0,0.0,0.0,0.0,0.0,0.0,0.0,0.0,0.0,0.0,0.0,0.0,0.0,0.0,0.0,0.0,0.0,0.0,0.0,0.0,0.0,0.0,0.0,0.0,0.0,0.0,0.0,0.0,0.0,0.0,0.0,0.0,0.0,0.0,0.0,0.0,0.0,0.0,0.0,0.0,0.0,0.0,0.0,0.0,0.0,0.0,0.0,0.0,0.0,0.0,0.0,0.0,0.0,0.0,0.0,0.0,0.0,0.0,0.0,0.0,0.0,0.0,0.0,0.0,0.0,0.0,0.0,0.0,0.0,0.0,0.0,0.0,0.0,0.0,0.0,0.0,0.0,0.0,0.0,0.0,0.0,0.0,0.0,0.0,0.0,0.0,0.0,0.0,0.0,0.0,0.0,0.0,0.0,0.0,0.0,0.0,0.0,0.0,0.0,0.0,0.0,0.0,0.0,0.0,0.0,0.0,0.0,0.0,0.0,0.0,0.0,0.0,0.0,0.0,0.0,0.0,0.0,0.0,0.0,0.0,0.0,0.0,0.0,0.0,0.0,0.0,0.0,0.0,0.0,0.0,0.0,0.0,0.0,0.0,0.0,0.0,0.0,0.0,0.0,0.0,0.0,0.0,0.0,0.0,0.0,0.0,0.0,0.0,0.0,0.0,0.0,0.0,0.0,0.0,0.0,0.0,0.0,0.0,0.0,0.0,0.0,0.0,0.0,0.0,0.0,0.0,0.0,0.0,0.0,0.0,0.0,0.0,0.0,0.0,0.0,0.0,0.0,0.0,0.0,0.0,0.0,0.0,0.0,0.0,0.0,0.0,0.0,0.0,0.0,0.0,0.0,0.0,0.0,0.0,0.0,0.0,0.0,0.0,0.0,0.0,0.0,0.0,0.0,0.0,0.0,0.0,0.0,0.0,0.0,0.0,0.0,0.0,0.0,0.0,0.0,0.0,0.0,0.0,0.0,0.0,0.0,0.0,0.0,0.0,0.0,0.0,0.0,0.0,0.0,0.0,0.0,0.0,0.0,0.0,0.0,0.0,0.0,0.0,0.0,0.0,0.0,0.0,0.0,0.0,0.0,0.0,0.0,0.0,0.0,0.0,0.0,0.0,0.0,0.0,0.0,0.0,0.0,0.0,0.0,0.0,0.0,0.0,0.0,0.0,0.0,0.0,0.0,0.0,0.0,0.0,0.0,0.0,0.0,0.0,0.0,0.0,0.0,0.0,0.0,0.0,0.0,0.0,0.0,0.0,0.0,0.0,0.0,0.0,0.0,0.0,0.0,0.0,0.0,0.0,0.0,0.0,0.0,0.0,0.0,0.0,0.0,0.0,0.0,0.0,0.0,0.0,0.0,0.0,0.0,0.0,0.0,0.0,0.0,0.0,0.0,0.0,0.0,0.0,0.0,0.0,0.0,0.0,0.0,0.0,0.0,0.0,0.0,0.0,0.0,0.0,0.0,0.0,0.0,0.0,0.0,0.0,0.0,0.0,0.0,0.0,0.0,0.0,0.0,0.0,0.0,0.0,0.0,0.0,0.0,0.0,0.0,0.0,0.0,0.0,0.0,0.0,0.0,0.0,0.0,0.0,0.0,0.0,0.0,0.0,0.0,0.0,0.0,0.0,0.0,0.0,0.0,0.0,0.0,0.0,0.0,0.0,0.0,0.0,0.0,0.0,0.0,0.0,0.0,0.0,0.0,0.0,0.0,0.0,0.0,0.0,0.0,0.0,0.0,0.0,0.0,0.0,0.0,0.0,0.0,0.0,0.0,0.0,0.0,0.0,0.0,0.0,0.0,0.0,0.0,0.0,0.0,0.0,0.0,0.0,0.0,0.0,0.0,0.0,0.0,0.0,0.0,0.0,0.0,0.0,0.0,0.0,0.0,0.0,0.0,0.0,0.0,0.0,0.0,0.0,0.0,0.0,0.0,0.0,0.0,0.0,0.0,0.0,0.0,0.0,0.0,0.0,0.0,0.0,0.0,0.0,0.0,0.0,0.0,0.0,0.0,0.0,0.0,0.0,0.0,0.0,0.0,0.0,0.0,0.0,0.0,0.0,0.0,0.0,0.0,0.0,0.0,0.0,0.0,0.0,0.0,0.0,0.0,0.0,0.0,0.0,0.0,0.0,0.0,0.0,0.0,0.0,0.0,0.0,0.0,0.0,0.0,0.0,0.0,0.0,0.0,0.0,0.0,0.0,0.0,0.0,0.0,0.0,0.0,0.0,0.0,0.0,0.0,0.0,0.0,0.0,0.0,0.0,0.0,0.0,0.0,0.0,0.0,0.0,0.0,0.0,0.0,0.0,0.0,0.0,0.0,0.0,0.0,0.0,0.0,0.0,0.0,0.0,0.0,0.0,0.0,0.0,0.0,0.0,0.0,0.0,0.0,0.0,0.0,0.0,0.0,0.0,0.0,0.0,0.0,0.0,0.0,0.0,0.0,0.0,0.0,0.0,0.0,0.0,0.0,0.0,0.0,0.0,0.0,0.0,0.0,0.0,0.0,0.0,0.0,0.0,0.0,0.0,0.0,0.0,0.0,0.0,0.0,0.0,0.0,0.0,0.0,0.0,0.0,0.0,0.0,0.0,0.0,0.0,0.0,0.0,0.0,0.0,0.0,0.0,0.0,0.0,0.0,0.0,0.0,0.0,0.0,0.0,0.0,0.0,0.0,0.0,0.0,0.0,0.0,0.0,0.0,0.0,0.0,0.0,0.0,0.0,0.0,0.0,0.0,0.0,0.0,0.0,0.0,0.0,0.0,0.0,0.0,0.0,0.0,0.0,0.0,0.0,0.0,0.0,0.0,0.0,0.0,0.0,0.0,0.0,0.0,0.0,0.0,0.0,-3.8596,-3.8101,0.0,0.0,0.0,0.0,0.0,0.0,0.0,0.0,0.0,0.0,0.0,0.0,0.0,0.0,0.0,0.0,0.0,0.0,0.0,0.0,0.0,0.0,0.0,0.0,0.0,0.0,0.0,0.0,0.0,0.0,0.0,0.0,0.0,0.0,0.0,0.0,0.0,0.0,-3.4074,-3.3954,-3.3884,-3.3266,-3.2844,-3.2555,0.0,0.0,0.0,0.0,0.0,0.0,0.0,0.0,0.0,0.0,0.0,0.0,0.0,0.0,0.0,0.0,0.0,0.0,0.0,0.0,0.0,0.0,0.0,0.0,0.0,0.0,0.0,0.0,0.0,0.0,0.0,0.0,0.0,0.0,0.0,0.0,0.0,0.0,0.0,0.0,0.0,0.0,0.0,0.0,0.0,0.0,0.0,0.0,0.0,0.0,0.0,0.0,0.0,0.0,0.0,0.0,0.0,0.0,0.0,0.0,0.0,0.0,0.0,0.0,0.0,0.0,0.0,0.0,0.0,0.0,-3.8578,-3.805,0.0,0.0,0.0,0.0,0.0,0.0,0.0,0.0,0.0,0.0,0.0,0.0,0.0,0.0,0.0,0.0,0.0,0.0,0.0,0.0,0.0,0.0,0.0,-3.2759,-3.3118,-3.3486,-3.3715,-3.3949,0.0,0.0,0.0,0.0,0.0,0.0,0.0,-3.4668,-3.4542,-3.4321,-3.4293,-3.4245,-3.4173,-3.3296,-3.2813,-3.2687,-3.1342,0.0,0.0,0.0,0.0,0.0,0.0,0.0,0.0,0.0,0.0,0.0,0.0,0.0,0.0,0.0,0.0,0.0,0.0,0.0,0.0,0.0,0.0,0.0,0.0,0.0,0.0,0.0,0.0,0.0,0.0,0.0,0.0,0.0,0.0,0.0,0.0,0.0,0.0,0.0,0.0,0.0,0.0,0.0,0.0,0.0,0.0,0.0,0.0,0.0,0.0,0.0,0.0,0.0,0.0,0.0,0.0,0.0,0.0,0.0,0.0,0.0,0.0,0.0,-3.8707,-3.8707,-3.8707,-3.8707,-3.8609,-3.851,-3.8415,-3.7929,-3.7152,-3.6921,0.0,0.0,0.0,0.0,0.0,0.0,0.0,0.0,0.0,0.0,0.0,0.0,0.0,0.0,0.0,0.0,0.0,0.0,0.0,0.0,0.0,-3.3561,-3.3802,-3.4311,-3.4379,-3.4401,-3.4464,0.0,0.0,0.0,0.0,0.0,-3.5124,-3.4964,-3.4831,-3.4812,-3.4647,-3.4427,-3.4197,-3.3532,-3.3214,-3.3172,-3.2004,-3.1167,-3.0657,0.0,0.0,0.0,0.0,0.0,0.0,0.0,0.0,0.0,0.0,0.0,0.0,0.0,0.0,0.0,0.0,0.0,0.0,0.0,0.0,0.0,0.0,0.0,0.0,0.0,0.0,0.0,0.0,0.0,0.0,0.0,0.0,0.0,0.0,0.0,0.0,0.0,0.0,0.0,0.0,0.0,-3.5493,-3.5493,0.0,0.0,0.0,0.0,0.0,0.0,0.0,0.0,0.0,0.0,0.0,0.0,0.0,-3.6567,-3.8524,-3.8652,-3.8707,-3.8707,-3.8707,-3.8707,-3.8707,-3.8707,-3.8609,-3.851,-3.8415,0.0,-3.6981,-3.6603,0.0,0.0,0.0,0.0,0.0,0.0,0.0,0.0,0.0,0.0,0.0,0.0,0.0,0.0,0.0,0.0,0.0,0.0,0.0,0.0,0.0,-3.4327,-3.4472,-3.4694,-3.4829,-3.4889,-3.4898,-3.5119,0.0,0.0,0.0,-3.5223,-3.5209,-3.5107,-3.5019,-3.4908,-3.4689,-3.4539,-3.4427,-3.3643,-3.3291,-3.3262,-3.2231,-3.1414,-3.073,-3.0159,0.0,0.0,0.0,0.0,0.0,0.0,0.0,0.0,0.0,0.0,0.0,0.0,0.0,0.0,0.0,0.0,0.0,0.0,0.0,0.0,0.0,0.0,0.0,0.0,0.0,0.0,0.0,0.0,0.0,0.0,0.0,0.0,0.0,0.0,0.0,0.0,0.0,0.0,0.0,-3.5493,-3.5493,-3.5493,-3.546,-3.5412,0.0,0.0,0.0,0.0,0.0,0.0,0.0,0.0,0.0,-3.4706,-3.5816,-3.6831,-3.7778,-3.8854,-3.9368,-3.9386,-3.9845,-4.0065,-4.0065,-3.9965,-3.9882,-3.9765,-3.944,-3.8902,-3.8151,-3.7131,-3.6249,-3.5622,0.0,0.0,0.0,0.0,-3.5622,-3.5622,0.0,0.0,0.0,0.0,0.0,0.0,0.0,0.0,0.0,0.0,0.0,0.0,-3.4727,-3.4853,-3.4928,-3.4979,-3.5115,-3.521,-3.5242,-3.5174,-3.5156,-3.5206,-3.5136,-3.5062,-3.4975,-3.5174,-3.5193,-3.4982,-3.4771,-3.4647,-3.4583,-3.3707,-3.3243,-3.3154,-3.2283,-3.1507,-3.0747,-3.0117,-2.9284,-2.8367,0.0,0.0,0.0,0.0,0.0,0.0,0.0,0.0,0.0,0.0,0.0,0.0,0.0,0.0,0.0,0.0,0.0,0.0,0.0,0.0,0.0,0.0,0.0,0.0,0.0,0.0,0.0,0.0,0.0,0.0,0.0,0.0,0.0,0.0,0.0,0.0,0.0,-3.5493,-3.5493,-3.5493,-3.546,-3.5379,0.0,0.0,0.0,0.0,0.0,0.0,-3.5039,-3.484,-3.4832,-3.5049,-3.6905,-3.7881,-3.7814,-3.9423,-4.0212,-4.0212,-4.0767,-4.106,-4.106,-4.0924,-4.0823,-4.0739,-4.0238,-3.9708,-3.9094,-3.7848,-3.6895,-3.618,-3.5994,-3.591,-3.591,-3.591,-3.591,-3.591,0.0,0.0,0.0,0.0,0.0,0.0,0.0,0.0,0.0,0.0,0.0,-3.4604,-3.4953,-3.4923,-3.4981,-3.5174,-3.5194,-3.525,-3.5383,-3.4616,-3.4261,-3.4438,-3.4323,-3.4284,-3.4345,-3.5085,-3.5403,-3.5174,-3.4963,-3.4791,-3.4583,-3.3707,-3.3166,-3.2903,-3.2214,-3.1507,-3.0747,-3.0015,-2.9025,-2.7947,-2.7947,0.0,0.0,0.0,0.0,0.0,0.0,0.0,0.0,0.0,0.0,0.0,0.0,0.0,0.0,0.0,0.0,0.0,0.0,0.0,0.0,0.0,0.0,0.0,0.0,0.0,0.0,0.0,0.0,0.0,0.0,0.0,0.0,0.0,0.0,0.0,0.0,0.0,0.0,-3.5493,-3.5493,0.0,0.0,0.0,0.0,-3.6102,-3.6745,-3.6418,-3.4633,-3.63,-3.7645,-3.8435,-3.954,-4.0025,-3.9753,-4.0616,-4.1056,-4.1056,-4.0939,-4.0906,-4.0906,-4.0842,-4.0792,-4.0688,-4.02,-3.9704,-3.914,-3.8703,-3.8248,-3.7719,-3.6992,-3.6721,-3.6721,-3.6721,-3.6721,-3.6721,0.0,0.0,0.0,0.0,0.0,0.0,0.0,0.0,-3.4717,-3.499,-3.4991,-3.5008,-3.5123,-3.4983,-3.4929,-3.5002,-3.5001,-3.5068,-3.5254,-3.4495,-3.412,-3.4339,-3.379,-3.375,-3.429,-3.5125,-3.5515,-3.5383,-3.5072,-3.4851,-3.4772,-3.3768,-3.3154,-3.2854,-3.1664,-3.0721,-3.0058,-2.9827,-2.8903,-2.756,-2.756,-2.7321,0.0,0.0,0.0,0.0,0.0,0.0,0.0,0.0,0.0,0.0,0.0,0.0,0.0,0.0,0.0,0.0,0.0,0.0,0.0,0.0,0.0,0.0,0.0,0.0,0.0,0.0,0.0,0.0,0.0,0.0,0.0,0.0,0.0,0.0,0.0,0.0,0.0,-3.5493,-3.5512,0.0,-3.6404,-3.6905,-3.7053,-3.6688,-3.6771,-3.6652,-3.6195,-3.684,-3.8158,-4.0185,-4.0283,-4.0601,-4.1195,-4.1625,-4.1882,-4.1882,-4.2344,-4.2548,-4.2516,-4.2393,-4.2159,-4.1805,-4.1554,-4.0972,-4.0203,-4.0084,-3.9179,-3.7872,-3.7618,-3.7499,-3.7499,-3.7499,-3.7499,-3.7499,0.0,0.0,0.0,0.0,0.0,0.0,0.0,0.0,-3.5156,-3.5049,-3.5103,-3.5048,-3.4719,-3.4732,-3.471,-3.4623,-3.4693,-3.4754,-3.4731,-3.3993,-3.3535,-3.3494,-3.3285,-3.366,-3.4739,-3.5319,-3.5585,-3.5528,-3.5119,-3.4908,-3.487,-3.3828,-3.3118,-3.266,-3.1295,-3.021,-2.9419,-2.9207,-2.8449,-2.735,-2.7026,-2.687,-2.6788,0.0,0.0,0.0,0.0,0.0,0.0,0.0,0.0,0.0,0.0,0.0,0.0,0.0,0.0,0.0,0.0,0.0,0.0,0.0,0.0,0.0,0.0,0.0,0.0,0.0,0.0,0.0,0.0,0.0,0.0,0.0,0.0,0.0,0.0,-3.5834,-3.6065,-3.6065,-3.5729,-3.5916,-3.7003,-3.7524,-3.7599,-3.7192,-3.7336,-3.7664,-3.8138,-3.8102,-3.9068,-4.1314,-4.1103,-4.1309,-4.204,-4.2485,-4.2708,-4.2693,-4.3171,-4.3358,-4.3287,-4.3013,-4.2673,-4.2297,-4.1906,-4.1366,-4.0802,-4.0628,-3.9822,-3.8616,-3.8379,-3.8278,-3.8278,-3.8278,-3.8278,-3.8212,0.0,0.0,0.0,0.0,0.0,0.0,0.0,-3.5147,-3.5385,-3.4785,-3.4925,-3.4715,-3.3788,-3.4151,-3.4319,-3.3993,-3.4255,-3.4259,-3.3789,-3.3083,-3.2426,-3.1888,-3.2754,-3.4009,-3.5593,-3.5601,-3.5572,-3.5611,-3.5189,-3.4962,-3.4851,-3.3862,-3.3021,-3.2327,-3.1164,-2.9989,-2.8811,-2.8158,-2.763,-2.7233,-2.6272,-2.6233,-2.6727,0.0,0.0,0.0,0.0,0.0,0.0,0.0,0.0,0.0,0.0,0.0,0.0,0.0,0.0,0.0,0.0,0.0,0.0,0.0,0.0,0.0,0.0,0.0,0.0,0.0,0.0,0.0,0.0,0.0,0.0,0.0,0.0,0.0,-3.5493,-3.6469,-3.7194,-3.7252,-3.6272,-3.6021,-3.7086,-3.8593,-3.8947,-3.7652,-3.8521,-3.946,-4.0239,-4.006,-4.0538,-4.1856,-4.2173,-4.2304,-4.2341,-4.3112,-4.3463,-4.3394,-4.3251,-4.3142,-4.3067,-4.2476,-4.2157,-4.2115,-4.1185,-4.0802,-4.0754,-4.0303,-4.007,-4.0003,-3.9292,-3.9022,-3.9022,-3.9022,-3.9022,-3.8906,0.0,0.0,0.0,0.0,0.0,0.0,0.0,-3.5482,-3.5456,-3.4858,-3.4672,-3.4289,-3.3499,-3.3323,-3.3212,-3.3153,-3.3212,-3.3131,-3.2878,-3.2295,-3.168,-3.1065,-3.1923,-3.2902,-3.3936,-3.451,-3.5061,-3.5611,-3.5189,-3.485,-3.4524,-3.3496,-3.2506,-3.147,-3.0336,-2.9268,-2.8271,-2.7195,-2.6318,-2.5685,-2.5851,-2.6002,-2.6165,0.0,0.0,0.0,0.0,0.0,0.0,0.0,0.0,0.0,0.0,0.0,0.0,0.0,0.0,0.0,0.0,0.0,0.0,0.0,0.0,0.0,0.0,0.0,0.0,0.0,0.0,0.0,0.0,0.0,0.0,0.0,-3.5493,-3.5493,-3.5493,-3.6276,-3.7233,-3.8243,-3.8084,-3.8188,-3.8975,-3.9235,-3.9152,-3.8697,-3.9283,-3.9774,-4.0005,-4.0487,-4.1203,-4.2173,-4.2249,-4.258,-4.3149,-4.3387,-4.3463,-4.3394,-4.3013,-4.275,-4.2573,-4.2092,-4.1604,-4.1157,-4.0896,-4.0628,-4.0254,-4.0171,-4.007,-4.0054,-3.9868,-3.9783,-3.9783,-3.9783,-3.9513,-3.9118,0.0,0.0,0.0,0.0,0.0,0.0,0.0,-3.5655,-3.5458,-3.4512,-3.4391,-3.3902,-3.2588,-3.2538,-3.2533,-3.2366,-3.2249,-3.2043,-3.18,-3.1114,-3.0811,-3.1067,-3.1607,-3.2329,-3.3277,-3.4131,-3.4739,-3.5142,-3.5032,-3.4698,-3.4207,-3.3063,-3.1847,-3.0589,-2.9376,-2.8309,-2.7405,-2.6076,-2.4885,-2.3953,-2.416,-2.4614,-2.5092,-2.5412,-2.6254,-2.7384,-2.775,-2.8903,-3.0276,-3.0418,0.0,0.0,0.0,0.0,0.0,0.0,0.0,0.0,0.0,0.0,0.0,0.0,0.0,0.0,0.0,0.0,0.0,0.0,0.0,0.0,0.0,0.0,0.0,0.0,-3.5795,-3.6007,-3.6007,-3.6911,-3.7945,-3.8902,-3.9307,-3.9597,-3.9814,-3.9362,-3.9002,-3.8934,-3.9227,-3.9777,-4.0685,-4.1185,-4.1849,-4.2763,-4.28,-4.302,-4.3497,-4.3339,-4.3268,-4.3305,-4.2673,-4.2338,-4.2297,-4.1648,-4.1111,-4.0802,-4.058,-4.0353,-4.007,-4.007,-4.007,-4.007,0.0,0.0,0.0,0.0,-3.947,-3.9152,0.0,0.0,0.0,0.0,0.0,0.0,0.0,-3.5703,-3.5366,-3.3981,-3.411,-3.3525,-3.1462,-3.1773,-3.2039,-3.1645,-3.1289,-3.0956,-3.0621,-2.9732,-2.9848,-3.1273,-3.1357,-3.1903,-3.3054,-3.3847,-3.4322,-3.4449,-3.4569,-3.432,-3.3715,-3.2362,-3.0895,-2.9394,-2.8107,-2.7039,-2.6112,-2.4606,-2.3229,-2.2068,-2.1858,-2.2541,-2.3742,-2.4513,-2.5536,-2.6663,-2.7585,-2.881,-2.9989,-3.0444,0.0,0.0,0.0,0.0,0.0,0.0,0.0,0.0,0.0,0.0,0.0,0.0,0.0,0.0,0.0,0.0,0.0,0.0,0.0,0.0,0.0,0.0,0.0,0.0,-3.618,-3.6757,-3.6911,-3.8041,-3.8965,-3.9223,-3.9959,-4.0311,-3.9865,-3.9194,-3.8763,-3.8683,-3.8805,-3.9763,-4.1783,-4.2011,0.0,0.0,0.0,-4.3479,-4.341,-4.3069,-4.2957,-4.3032,-4.2216,-4.1864,-4.2032,-4.1094,-4.0707,-4.0707,-4.0254,-4.007,-4.007,-4.007,-4.007,-4.007,-4.007,-4.007,-3.9918,-3.9418,-3.9082,-3.8865,0.0,0.0,0.0,0.0,0.0,0.0,0.0,-3.56,-3.5205,-3.3962,-3.3866,-3.3091,-3.0903,-3.1172,-3.1189,-3.0476,-3.0395,-3.0127,-2.9476,-2.8937,-2.8975,-2.972,-2.981,-3.0427,-3.1736,-3.2002,-3.2771,-3.4174,-3.3312,-3.2646,-3.211,-3.0605,-2.8786,-2.6707,-2.5773,-2.4819,-2.3657,-2.2019,-2.0848,-2.0176,-2.0287,-2.1163,-2.2395,-2.3285,-2.4869,-2.6768,-2.7743,-2.8962,-3.0269,-3.0993,-3.2039,-3.3063,-3.3063,-3.3588,0.0,0.0,0.0,0.0,0.0,0.0,0.0,0.0,0.0,0.0,0.0,0.0,0.0,0.0,0.0,0.0,0.0,0.0,0.0,-3.5493,-3.618,-3.7103,-3.8234,-3.8869,-3.9154,-3.9006,-3.9755,-4.0059,-3.9564,-3.9376,-3.91,-3.8737,-3.9502,-4.0533,-4.182,-4.2724,-4.3296,-4.3479,-4.3497,-4.3339,-4.3032,-4.292,-4.2634,-4.2133,-4.1543,0.0,-4.1065,-4.0483,-4.0221,-4.0221,-4.0121,-4.007,-4.007,-4.007,-4.007,-4.007,-4.007,-3.9799,-3.9365,-3.9259,-3.859,-3.7695,0.0,0.0,0.0,0.0,0.0,0.0,0.0,-3.5561,-3.5226,-3.4183,-3.3904,-3.2976,-3.0791,-3.0346,-2.9864,-2.9016,-2.8517,-2.8125,-2.781,-2.7318,-2.7411,-2.8211,-2.8347,-2.8739,-2.9483,-3.1107,-3.2347,-3.3156,-3.2711,-3.204,-3.108,-2.8291,-2.5872,-2.3854,-2.251,-2.127,-1.9943,-1.8661,-1.7474,-1.6369,-1.6983,-1.7782,-1.8866,-2.1982,-2.4103,-2.5602,-2.7199,-2.87,-3.0009,-3.0914,-3.2057,-3.3184,-3.3277,-3.3836,-3.4483,0.0,0.0,0.0,0.0,0.0,0.0,0.0,0.0,0.0,0.0,0.0,0.0,0.0,0.0,-3.5493,-3.5493,0.0,-3.6103,-3.6103,-3.718,-3.8238,-3.8945,-3.9445,-3.9691,-3.9583,-3.9757,-3.9778,-3.9451,-3.9266,-3.9026,-3.8738,-3.9213,-4.0083,-4.1369,-4.2221,-4.2844,-4.3178,-4.3196,-4.3105,-4.2882,-4.2418,-4.2133,-4.1948,-4.1157,-4.0849,-4.0896,-4.0353,-4.007,-4.007,-4.007,-4.007,-4.007,-4.007,-4.007,-4.007,-3.9747,-3.9487,-3.9152,-3.8535,-3.7911,-3.7358,0.0,0.0,0.0,0.0,0.0,0.0,0.0,-3.5468,-3.5252,-3.4438,-3.4067,-3.3081,-3.0934,-3.0072,-2.9141,-2.7949,-2.6745,-2.596,-2.5886,-2.5139,-2.4895,-2.5392,-2.543,-2.5531,-2.5743,-2.7724,-2.8681,-2.853,-2.8414,-2.7698,-2.6324,-2.3537,-2.1477,-2.0127,-1.8763,-1.7292,-1.5949,-1.4997,-1.3674,-1.2377,-1.3322,-1.4049,-1.5038,-1.9896,-2.2635,-2.4353,-2.6541,-2.8373,-2.9884,-3.0824,-3.2092,-3.3343,-3.3561,-3.4086,-3.473,-3.5089,-3.519,0.0,0.0,0.0,0.0,0.0,0.0,0.0,0.0,-3.5547,-3.5493,-3.5493,-3.5493,-3.5565,-3.5699,-3.6257,-3.6757,-3.693,-3.8228,-3.9246,-3.9296,-3.9769,-4.012,-4.012,-3.9806,-3.9515,-3.9365,-3.9054,-3.8833,-3.8707,-3.8884,-3.9491,-4.0653,-4.1428,-4.2049,-4.2553,-4.2678,-4.2711,-4.2634,-4.1864,-4.1561,-4.1674,-4.0913,-4.0597,-4.0802,-4.0303,-4.007,-4.007,-4.007,-4.007,-4.007,-4.007,-4.007,-4.002,-3.9312,-3.9028,-3.892,-3.7796,-3.7298,-3.7178,0.0,0.0,0.0,0.0,0.0,0.0,0.0,0.0,-3.5164,-3.4478,-3.4255,-3.338,-3.1349,-3.1339,-3.0568,-2.8165,-2.6147,-2.4595,-2.3718,-2.2221,-2.0646,-1.9117,-1.8647,-1.8674,-1.9131,-1.691,-1.5597,-1.5399,-1.3958,-1.2605,-1.1442,-1.2894,-1.3917,-1.449,-1.4567,-1.3729,-1.2319,-1.1211,-1.0183,-0.9347,-1.0381,-1.1338,-1.2576,-1.5841,-1.9849,-2.4129,-2.6283,-2.8434,-3.0453,-3.1271,-3.2506,-3.377,-3.3956,-3.4423,-3.4927,-3.5124,-3.5324,-3.5468,-3.5562,-3.5566,-3.5566,-3.5596,-3.554,-3.5507,0.0,-3.5507,-3.5493,-3.5493,-3.5493,-3.5718,-3.643,-3.6642,-3.6949,-3.7738,-3.8479,-3.9023,-3.9262,-3.9623,-3.984,-3.984,-3.966,-3.942,-3.9155,-3.8939,-3.8796,-3.8707,-3.9601,-4.0006,-3.9674,-4.0908,-4.152,-4.1318,-4.194,-4.2074,-4.1648,-4.1561,-4.122,-4.0645,-4.0566,-4.037,-4.0221,-4.0121,-4.007,-4.007,-4.007,-4.007,-4.007,-4.007,-4.007,-3.9969,-3.8849,-3.839,-3.8351,-3.7637,-3.7074,-3.6616,0.0,0.0,0.0,0.0,0.0,0.0,0.0,0.0,0.0,-3.4702,-3.4417,-3.3691,-3.2173,-3.0409,-2.8285,-2.5545,-2.2776,-2.0633,-1.9352,-1.7064,-1.5252,-1.3988,-1.393,-1.3314,-1.1995,-1.2069,-1.1073,-0.8816,-0.9012,-0.8196,-0.6442,-0.6532,-0.7194,-0.8251,-0.7535,-0.7347,-0.7388,-0.6961,-0.6457,-0.6179,-0.7685,-0.9025,-1.0563,-1.4447,-1.8273,-2.197,-2.5112,-2.7906,0.0,-3.176,-3.3078,-3.4186,-3.4427,-3.4791,-3.517,-3.5425,-3.5557,-3.562,-3.565,-3.5724,-3.5764,-3.5764,-3.5669,-3.557,-3.5618,-3.5553,-3.5493,-3.5493,-3.5493,-3.5757,-3.6546,-3.7123,-3.7738,-3.8604,-3.9349,-3.9871,-3.9988,-3.9891,-3.9797,-3.9797,-3.947,-3.9229,-3.9108,-3.8921,-3.87,-3.8373,-3.8692,-3.8862,-3.8699,-3.9851,-4.0617,-4.0671,-4.1432,-4.1692,-4.1472,-4.1283,-4.0995,-4.06,-4.0534,-4.0387,-4.0188,-4.0138,-4.007,-4.007,-4.007,-3.9918,-3.9575,-3.9969,-3.9901,-3.947,-3.8629,-3.8278,-3.8165,-3.7222,-3.6646,-3.6352,0.0,0.0,0.0,0.0,0.0,0.0,0.0,0.0,0.0,0.0,-3.4603,-3.4026,-3.2901,-3.0212,-2.7248,-2.4249,-2.0686,-1.769,-1.5457,-1.1999,-0.94,-0.7952,-0.7579,-0.6589,-0.4797,-0.5227,-0.3848,-0.0587,-0.1274,-0.0667,0.1178,0.0928,-0.0142,-0.1912,-0.1571,-0.1898,-0.2694,-0.2854,-0.2948,-0.3125,-0.4897,-0.6641,-0.8576,-1.2606,-1.6333,-1.9931,-2.4218,-2.7566,-3.0222,-3.2033,-3.3464,-3.4544,-3.4871,-3.513,-3.5388,-3.5624,-3.5703,-3.5736,-3.5723,-3.58,-3.589,-3.5894,-3.5764,-3.5641,-3.5669,-3.5596,-3.5509,-3.5507,-3.568,-3.6084,-3.6911,-3.7777,-3.8642,-3.9488,-4.0073,-4.0441,-4.0489,-4.0043,-3.975,-3.9797,-3.9389,-3.9092,-3.9091,-3.8931,-3.8584,-3.7962,-3.7954,-3.79,-3.7782,-3.8744,-3.9522,-3.9887,-4.0595,-4.1101,-4.1311,-4.1041,-4.0823,-4.0631,-4.0534,-4.0436,-4.0238,-4.0121,-4.007,-4.007,-4.007,-3.9747,-3.9259,-3.9696,-3.947,-3.892,-3.8294,-3.8067,-3.7953,-3.6892,-3.6414,-3.6274,0.0,0.0,0.0,0.0,0.0,0.0,0.0,0.0,0.0,0.0,0.0,0.0,0.0,-3.1731,-2.9312,-2.5858,-2.1462,-1.7073,-1.2783,-0.7482,-0.3187,-0.0075,0.1713,0.2601,0.2457,0.6614,0.9849,1.2042,1.3494,1.4713,1.557,1.139,0.7594,0.4134,0.2047,0.1146,0.1306,0.0697,0.0234,-0.0235,-0.1952,-0.4112,-0.6551,-0.928,-1.3484,-1.8695,-2.405,-2.7705,-3.026,-3.1959,-3.3462,-3.4772,-3.5237,-3.5387,-3.5441,-3.5646,-3.5757,-3.579,-3.5809,-3.5789,-3.5812,-3.5885,-3.5795,-3.5682,-3.562,-3.5607,-3.5581,-3.5515,-3.6122,-3.693,-3.7796,-3.8661,-3.9508,-4.0315,-4.0319,-4.0286,-4.0473,-3.9922,-3.9585,-3.9775,-3.9389,-3.9101,-3.9101,-3.8979,-3.8511,-3.7602,-3.7899,-3.7774,-3.6974,-3.7707,-3.829,-3.8639,-3.9381,-4.0141,-4.0918,-4.0935,-4.0776,-4.0534,-4.0485,-4.037,-4.0138,-4.007,-4.007,-4.007,-4.007,-3.9747,-3.9206,-3.9206,-3.8849,-3.8294,-3.7679,-3.7417,-3.7358,-3.6723,-3.6492,-3.6492,0.0,0.0,0.0,0.0,0.0,0.0,0.0,0.0,0.0,0.0,0.0,0.0,0.0,0.0,0.0,0.0,-1.2569,-1.1171,-0.6259,-0.1723,0.1599,0.3379,0.5544,0.7331,0.8773,1.1161,1.4315,1.8175,1.7884,1.8596,2.0153,1.6849,1.3492,1.0147,0.8749,0.7068,0.536,0.4775,0.3791,0.2484,0.0853,-0.2006,-0.5451,-0.7979,-1.3155,-1.9638,0.0,-2.7301,-3.0299,-3.2705,-3.4327,-3.5398,-3.5541,-3.5593,-3.5616,-3.5721,-3.5771,-3.5812,-3.5916,-3.5933,-3.5933,-3.5955,-3.5899,-3.5839,-3.5807,-3.5729,-3.5641,-3.5593,-3.6276,-3.714,-3.7919,-3.8775,-3.9644,-4.0494,-4.05,-4.0406,-4.0489,-4.0043,-3.9709,-3.9797,-3.9389,-3.9101,-3.9101,-3.8979,-3.8615,-3.7962,-3.7773,-3.7358,-3.6516,-3.7723,-3.8495,-3.8594,-3.9819,-4.0612,-4.0888,-4.0888,-4.084,-4.0648,-4.0436,-4.0288,-4.007,-3.9696,-3.947,-3.947,-3.947,-3.892,-3.8084,-3.8865,-3.859,-3.7679,-3.746,-3.7417,-3.7298,-3.6723,-3.6414,-3.6274,0.0,0.0,0.0,0.0,0.0,0.0,0.0,0.0,0.0,0.0,0.0,0.0,0.0,0.0,0.0,0.0,0.0,-0.4008,0.0959,0.4303,0.6428,0.7251,0.9601,1.1254,1.2104,1.459,1.7556,2.1048,2.1289,2.1984,2.3065,2.0455,1.7813,1.5118,1.3543,1.1522,0.9278,0.8421,0.6775,0.4642,0.2939,0.0077,-0.3757,-0.8744,-1.3963,0.0,-2.3818,-2.7825,-3.1304,-3.3616,-3.4836,-3.5419,-3.5632,-3.5654,-3.5597,-3.5613,-3.5671,-3.5766,-3.5923,-3.5947,-3.5947,-3.5995,-3.5947,-3.5896,-3.5899,-3.5833,-3.5745,-3.565,-3.6618,-3.7616,-3.8093,-3.9104,-4.0055,-4.0616,-4.0593,-4.0489,-4.0489,-4.0368,-4.0157,-3.9835,-3.9652,-3.9435,-3.912,-3.9007,-3.8652,-3.8021,-3.7596,-3.7064,-3.6326,-3.7508,-3.8318,-3.8577,-3.9802,-4.0595,-4.0888,-4.0888,-4.084,-4.0648,-4.0404,-4.0138,-3.9747,-3.9365,-3.9082,-3.8865,-3.8865,-3.8311,-3.7476,-3.8254,-3.7969,-3.7074,-3.7074,-3.7074,-3.7013,-3.6662,-3.6414,-3.6274,0.0,0.0,0.0,0.0,0.0,0.0,0.0,0.0,0.0,0.0,0.0,0.0,0.0,0.0,0.0,0.0,0.0,0.0,0.8431,1.03,1.139,1.1662,1.4101,1.4786,1.3138,1.7385,2.0193,2.1316,2.4105,2.5213,2.471,2.2483,2.0591,1.8971,1.6291,1.4348,1.2892,1.1481,0.913,0.628,0.4632,0.1922,-0.2143,-1.1044,-1.5614,-1.8071,-2.4326,-2.9261,-3.308,-3.4563,-3.4947,-3.49,-3.5489,-3.5524,-3.5354,-3.5309,-3.5438,-3.5631,-3.5833,-3.5839,-3.5825,-3.5951,-3.5933,-3.5895,-3.5903,-3.5899,-3.586,-3.5753,-3.7089,-3.8302,-3.8313,-3.9624,-4.0706,-4.0706,-4.0588,-4.0489,-4.0489,-4.0845,-4.0802,-3.9949,-4.0214,-4.0123,-3.925,-3.9054,-3.8658,-3.7789,-3.7345,-3.6852,-3.6326,-3.7094,-3.787,-3.8577,-3.9353,-4.0112,-4.0871,-4.0888,-4.0776,-4.0534,-4.0337,-3.9901,-3.9206,-3.9152,-3.881,-3.8222,-3.8222,-3.7895,-3.7358,-3.7417,-3.7058,-3.6492,-3.6492,-3.6492,-3.6492,-3.6492,-3.6492,-3.6429,0.0,0.0,0.0,0.0,0.0,0.0,0.0,0.0,0.0,0.0,0.0,0.0,0.0,0.0,0.0,0.0,0.0,0.0,1.2936,1.5211,1.6366,1.6293,1.926,2.0643,2.007,2.2113,2.3562,2.4298,2.5693,2.615,2.5699,2.4256,2.2357,2.009,1.7908,1.5992,1.4339,1.3114,1.1378,0.9397,0.7584,0.1872,-0.6025,-0.9486,-1.6179,-2.41,-2.7486,-3.0783,-3.3643,-3.4293,-3.4567,-3.4737,-3.5238,-3.5155,-3.4923,-3.5224,-3.538,-3.5477,-3.5643,-3.5735,-3.5801,-3.5849,-3.5838,-3.5845,-3.5896,-3.5898,-3.5894,-3.586,-3.7288,-3.8487,-3.8389,-3.968,-4.0771,-4.0771,-4.0623,-4.0489,-4.0489,-4.0845,-4.1029,-4.0802,-4.1076,-4.0958,-4.0141,-3.949,-3.8835,-3.8251,-3.7541,-3.6852,-3.6326,-3.7577,-3.8405,-3.8577,-3.9888,-4.0681,-4.0888,-4.0888,-4.084,-4.0648,-4.0054,-3.961,-3.9332,-3.8294,-3.7796,-3.7637,-3.7637,-3.7298,-3.6785,-3.7238,-3.7058,-3.6492,-3.6492,-3.6492,-3.6492,-3.6492,-3.6414,-3.6274,0.0,0.0,0.0,0.0,0.0,0.0,0.0,0.0,0.0,0.0,0.0,0.0,0.0,0.0,0.0,0.0,0.0,0.0,0.0,1.7914,1.9113,1.7867,2.117,2.2227,2.0506,2.3724,2.5604,2.5963,2.7225,2.7595,2.7063,2.5465,2.3767,2.1994,1.9889,1.8006,1.6305,1.4466,1.2318,0.0,0.0,0.0891,-0.625,-1.3139,-1.958,-2.5487,-2.9536,-3.2324,-3.4155,-3.432,-3.4534,-3.4737,-3.4756,-3.4714,-3.4713,-3.4997,-3.5162,-3.5306,-3.5493,-3.5611,-3.5687,-3.5781,-3.5774,-3.5786,-3.5879,-3.589,-3.5917,-3.5938,-3.736,-3.8573,-3.8498,-3.976,-4.0791,-4.0809,-4.0623,-4.0588,-4.0854,-4.1319,-4.1567,-4.1472,-4.1856,-4.1887,-4.1322,-3.9954,-3.8983,-3.8719,-3.7487,-3.6659,-3.6444,-3.781,-3.8594,-3.8594,-4.0077,-4.0888,-4.0888,-4.0888,-4.0776,-4.0583,-3.9935,-3.9385,-3.8887,-3.7854,-3.7238,-3.7013,-3.7013,-3.6846,-3.6554,-3.6892,-3.6785,-3.6492,-3.6492,-3.6492,-3.6492,-3.6492,-3.6414,-3.6289,0.0,0.0,0.0,0.0,0.0,0.0,0.0,0.0,0.0,0.0,0.0,0.0,0.0,0.0,0.0,0.0,0.0,0.0,0.0,0.0,1.9659,1.7793,2.1451,2.2207,1.9388,2.4096,2.674,2.7037,2.8566,2.8966,2.8275,2.6352,2.4981,2.4053,2.1732,1.9803,1.8158,1.5365,1.2118,0.8557,0.3406,-0.1537,-0.7192,0.0,-2.4173,-2.5561,-3.1115,-3.3738,-3.4529,-3.4476,-3.4615,-3.4737,-3.4284,-3.434,-3.4628,-3.4755,-3.4944,-3.5152,-3.5393,-3.5457,-3.5514,-3.5704,-3.5721,-3.5718,-3.5838,-3.5884,-3.5914,-3.5973,-3.7389,-3.8595,-3.86,-3.9811,-4.0818,-4.0807,-4.0648,-4.0704,-4.1207,-4.1884,-4.2248,-4.1976,-4.2567,-4.2858,-4.2486,-4.0799,-3.9614,-3.9222,-3.7433,-3.6431,-3.6602,-3.7888,-3.8681,-3.8888,-4.0181,-4.0888,-4.0888,-4.0888,-4.0776,-4.0517,-3.9817,-3.9102,-3.8334,-3.7621,-3.7013,-3.6492,-3.6492,-3.6492,-3.6492,-3.6492,-3.6492,-3.6492,-3.6492,-3.6492,-3.6492,-3.6492,-3.6492,-3.6492,0.0,0.0,0.0,0.0,0.0,0.0,0.0,0.0,0.0,0.0,-3.1559,-3.0477,0.0,0.0,0.0,0.0,0.0,0.0,0.0,0.0,0.0,1.819,2.2808,2.608,2.7674,2.6972,2.7339,2.885,2.9281,2.8889,2.7745,2.6872,2.5861,2.4703,2.2226,2.0006,1.8068,1.5076,1.03,0.4515,0.1458,-0.7986,-2.0378,-2.2263,0.0,0.0,-3.3481,-3.4431,-3.4753,-3.4367,-3.4371,-3.447,-3.4367,-3.4458,-3.463,-3.4691,-3.4889,-3.5122,-3.5152,-3.5251,-3.5369,-3.5514,-3.5538,-3.5566,-3.569,-3.5786,-3.5841,-3.5909,-3.7342,-3.86,-3.86,-3.9891,-4.0935,-4.0809,-4.0718,-4.0662,-4.0665,-4.18,-4.2533,-4.2267,-4.3337,-4.3745,-4.2809,-4.3007,-4.2187,-3.9868,-3.7769,-3.6624,-3.6509,-3.7854,-3.9163,-4.044,-4.075,-4.0888,-4.0888,-4.0888,-4.0888,-4.0823,-3.9508,-3.8799,-3.858,-3.7266,-3.6616,-3.6492,-3.6492,-3.6492,-3.6492,-3.6492,-3.6492,-3.6492,-3.6492,-3.6492,-3.6492,-3.6492,-3.6492,-3.6492,0.0,0.0,0.0,0.0,0.0,0.0,0.0,-3.1877,-3.1821,-3.1555,-3.1596,-3.1355,-3.0435,-2.6053,-2.2657,0.0,0.0,0.0,0.0,0.0,0.0,0.0,0.0,0.0,2.5173,2.5343,2.6005,2.721,0.0,2.7128,2.8012,2.6352,2.5122,2.4279,2.1156,1.7965,1.4841,1.1793,0.6466,-0.0289,-0.4476,-1.2538,-2.2378,0.0,0.0,0.0,-3.448,-3.4696,-3.4812,-3.4203,-3.4255,-3.4591,-3.4416,-3.4394,-3.448,-3.4604,-3.4811,-3.5018,-3.5088,-3.5155,-3.5235,-3.5443,-3.5515,-3.5538,-3.5713,-3.5775,-3.5836,-3.593,-3.7343,-3.8568,-3.8586,-3.9919,-4.098,-4.0909,-4.0791,-4.0784,-4.1035,-4.2009,-4.2726,-4.275,-4.3732,-4.4139,-4.3497,-4.3769,-4.3008,-4.0607,-3.8572,-3.7254,-3.686,-3.7949,-3.9094,-4.0233,-4.0664,-4.0888,-4.0888,-4.0888,-4.0728,-4.0303,-3.9246,-3.8525,-3.8076,-3.6982,-3.6492,-3.6492,-3.6492,-3.6492,-3.6492,-3.6492,-3.6492,-3.6492,-3.6492,-3.6492,-3.6492,-3.6492,-3.6492,-3.6492,0.0,0.0,0.0,0.0,0.0,0.0,0.0,-3.1748,-3.1691,-3.15,-3.1445,-3.1334,-3.1083,-3.0344,-2.9187,0.0,0.0,0.0,0.0,0.0,0.0,0.0,0.0,0.0,1.9569,0.0,0.0,2.6043,2.5332,0.0,0.0,0.0,0.0,0.0,1.8541,1.4007,0.848,0.5424,0.0344,0.0,0.0,-1.7294,-2.2878,0.0,0.0,0.0,0.0,-3.4794,-3.4733,-3.4136,-3.4232,-3.4548,-3.433,-3.4302,-3.4386,-3.4495,-3.471,-3.4908,-3.5035,-3.5053,-3.5122,-3.5355,-3.543,-3.5502,-3.5696,-3.5774,-3.5821,-3.5948,-3.7187,-3.8318,-3.8532,-3.977,-4.0827,-4.0964,-4.0863,-4.0905,-4.1345,-4.2211,-4.2867,-4.2994,-4.3882,-4.4346,-4.4017,-4.4011,-4.3194,-4.1254,-3.9182,-3.7811,-3.7323,-3.7965,-3.8767,-3.9664,-4.0302,-4.0716,-4.0888,-4.0888,-4.0549,-3.9817,-3.9086,-3.8358,-3.7648,-3.6876,-3.6554,-3.6492,-3.6492,-3.6492,-3.6492,-3.6492,-3.6492,-3.6492,-3.6492,-3.6492,-3.6492,-3.6492,-3.6492,-3.6492,0.0,0.0,0.0,0.0,0.0,0.0,0.0,-3.1312,-3.1334,-3.1334,-3.1044,-3.0885,-3.0845,-3.026,-3.0252,0.0,0.0,0.0,0.0,0.0,0.0,0.0,0.0,0.0,0.0,0.0,0.0,2.8395,2.8291,0.0,0.0,0.0,0.0,0.0,0.0,0.7255,-0.2725,-0.5405,0.0,0.0,0.0,0.0,0.0,0.0,0.0,0.0,0.0,-3.4848,-3.4529,-3.4464,-3.4189,-3.3921,-3.4055,-3.4325,-3.4548,-3.4386,-3.4607,-3.4889,-3.4927,-3.4927,-3.4945,-3.5105,-3.5219,-3.5369,-3.5492,-3.5666,-3.5819,-3.5895,-3.6712,-3.7634,-3.8377,-3.9326,-4.0226,-4.0894,-4.098,-4.0926,-4.0796,-4.2143,-4.2951,-4.2454,-4.3805,-4.4546,-4.4048,-4.3986,-4.3318,-4.1672,-3.917,-3.7699,-3.7582,-3.7577,-3.8232,-3.9664,-3.9767,-4.0146,-4.0871,-4.0888,-4.0597,-3.9952,-3.9229,-3.8525,-3.7764,-3.6997,-3.6616,-3.6492,-3.6492,-3.6492,-3.6492,-3.6492,-3.6492,-3.6492,-3.6492,-3.6492,-3.6492,-3.6492,-3.6492,-3.6492,0.0,0.0,0.0,0.0,0.0,0.0,-3.119,-3.1213,-3.1312,-3.1507,-3.1278,-3.1201,-3.1432,-3.0931,-3.0788,-3.1257,0.0,0.0,0.0,0.0,0.0,0.0,0.0,0.0,0.0,0.0,0.1071,0.6606,0.6373,0.0,0.0,0.0,0.0,0.0,0.0,-0.467,-1.0839,-1.2455,0.0,0.0,0.0,0.0,0.0,0.0,0.0,0.0,0.0,0.0,-3.4713,-3.4416,-3.4179,-3.3972,-3.3868,-3.403,-3.4227,-3.408,-3.4367,-3.473,-3.473,-3.4811,-3.4945,-3.5171,-3.5251,-3.5369,-3.562,-3.5743,-3.582,-3.5899,-3.6618,-3.7496,-3.834,-3.9236,-4.0108,-4.0932,-4.1033,-4.0928,-4.0772,-4.1722,-4.2448,-4.2521,-4.3411,-4.4077,-4.4223,-4.4091,-4.276,-3.9725,-3.8377,-3.7503,-3.7061,-3.7361,-3.7749,-3.8353,-3.8801,-3.9388,-4.0164,-4.0164,-3.9941,-3.9506,-3.9086,-3.8318,-3.7298,-3.6892,-3.66,-3.6492,-3.6492,-3.6492,-3.6492,-3.6492,-3.6492,-3.6492,-3.6492,-3.6492,-3.6492,-3.6492,-3.6492,-3.6492,0.0,0.0,0.0,0.0,0.0,-3.1542,-3.1542,-3.1542,-3.1562,-3.1677,-3.1545,-3.1487,-3.1691,-3.1295,-3.1078,-3.11,-3.0452,0.0,0.0,0.0,0.0,0.0,0.0,0.0,0.0,0.0,-1.027,-0.6757,-0.7038,-0.5944,0.0,0.0,-0.6809,-0.9342,0.0,0.0,0.0,0.0,0.0,0.0,0.0,0.0,0.0,0.0,0.0,0.0,0.0,0.0,0.0,0.0,0.0,-3.4179,-3.3842,-3.3868,-3.4023,-3.3921,-3.4245,-3.4623,-3.4602,-3.4751,-3.4964,-3.5138,-3.5239,-3.534,-3.562,-3.5736,-3.5795,-3.587,-3.6387,-3.7089,-3.7948,-3.8828,-3.9704,-4.0576,-4.0898,-4.0986,-4.0887,-4.1489,-4.2052,-4.2335,-4.3109,-4.3729,-4.4016,-4.3573,-4.182,-3.8256,-3.7844,-3.7433,-3.6725,-3.7022,-3.7292,-3.7473,-3.7991,-3.8629,-3.937,-3.937,-3.9095,-3.8543,-3.8405,-3.776,-3.6687,-3.6551,-3.6476,-3.6492,-3.6492,-3.6492,-3.6492,-3.6492,-3.6492,-3.6492,-3.6492,-3.6492,-3.6492,-3.6492,-3.6492,-3.6492,0.0,0.0,0.0,0.0,0.0,0.0,-3.2283,-3.2283,-3.2144,-3.175,-3.1677,-3.1582,-3.123,-3.119,-3.1213,-3.1295,-3.11,0.0,0.0,0.0,0.0,0.0,0.0,0.0,0.0,0.0,-1.4343,-0.3849,-0.3849,-0.3779,-0.361,-0.362,-0.8379,-1.6868,0.0,0.0,0.0,0.0,0.0,0.0,0.0,0.0,0.0,0.0,0.0,0.0,0.0,0.0,0.0,0.0,0.0,0.0,0.0,-3.3947,-3.4074,-3.3947,-3.4269,-3.4687,-3.4623,-3.4751,-3.4908,-3.4889,-3.5054,-3.5235,-3.538,-3.5549,-3.5735,-3.5872,-3.5899,-3.6183,-3.7044,-3.793,-3.8804,-3.9666,-4.0542,-4.1074,-4.1,-4.1621,-4.1978,-4.1659,-4.2967,-4.3729,-4.3265,-4.2248,-4.0529,-3.7893,-3.7805,-3.7542,-3.6725,-3.6561,-3.6824,-3.7456,-3.7491,-3.7853,-3.8594,-3.8594,-3.8103,-3.7003,-3.7019,-3.6653,-3.5939,-3.5939,-3.6133,-3.6492,-3.6492,-3.6492,-3.6492,-3.6492,-3.6492,-3.6492,-3.6492,-3.6492,-3.6492,-3.6492,-3.6492,-3.6492,0.0,0.0,0.0,0.0,0.0,0.0,0.0,-3.2317,-3.2351,-3.2435,-3.2021,-3.175,-3.1932,-3.1562,-3.1334,-3.1545,-3.13,0.0,0.0,0.0,0.0,0.0,0.0,0.0,0.0,0.0,-2.8751,-2.5412,-2.5537,-2.5587,-2.5531,-2.5531,-2.7056,-2.9789,-2.9737,-3.1489,0.0,0.0,0.0,0.0,0.0,0.0,-3.5898,0.0,0.0,0.0,0.0,0.0,0.0,0.0,0.0,0.0,0.0,0.0,0.0,-3.3876,-3.3947,-3.4179,-3.4348,-3.4548,-3.4773,-3.5089,-3.5229,-3.5335,-3.5546,-3.564,-3.5745,-3.5872,-3.5899,-3.6177,-3.7045,-3.7904,-3.8789,-3.9663,-4.0533,-4.1074,-4.1,-4.1116,-4.1352,-4.1763,-4.2412,-4.2768,-4.2645,-4.153,-3.9921,-3.7857,-3.7805,-3.7542,-3.6725,-3.6544,-3.6565,-3.6663,-3.668,-3.7042,-3.7836,-3.7473,-3.739,-3.7515,-3.6783,-3.6217,-3.576,-3.5378,-3.5186,-3.5106,-3.5106,-3.5106,-3.5153,-3.5614,-3.5799,-3.5845,-3.6307,-3.6492,-3.6492,-3.6492,-3.6492,-3.6492,0.0,0.0,0.0,0.0,0.0,0.0,0.0,-3.2827,-3.2827,-3.2795,-3.2299,-3.2039,-3.2283,-3.1787,-3.1582,-3.1896,-3.1861,0.0,0.0,0.0,0.0,0.0,0.0,0.0,-3.4499,-3.4918,-3.52,-3.5359,-3.5565,-3.5639,-3.5577,-3.5648,-3.5708,-3.5689,-3.5729,-3.5748,0.0,0.0,0.0,0.0,0.0,0.0,-3.5932,0.0,0.0,0.0,0.0,0.0,0.0,0.0,0.0,0.0,0.0,0.0,0.0,0.0,-3.3979,-3.4136,-3.4265,-3.4529,-3.487,-3.5143,-3.5248,-3.5304,-3.5507,-3.5599,-3.5698,-3.5794,-3.5852,-3.608,-3.6602,-3.7695,-3.8687,-3.9218,-4.0324,-4.1088,-4.1006,-4.089,-4.1061,-4.1768,-4.1858,-4.185,-4.1914,-4.0988,-3.9741,-3.8162,-3.7977,-3.765,-3.693,-3.6708,-3.6502,-3.6301,-3.6301,-3.6542,-3.7025,-3.673,-3.6593,-3.6645,-3.5976,-3.5457,-3.5007,-3.4689,-3.4503,-3.4475,-3.4475,-3.4475,0.0,-3.4922,-3.5106,-3.5137,-3.5568,-3.5737,-3.5737,-3.5737,-3.5737,-3.5737,0.0,0.0,0.0,0.0,0.0,0.0,0.0,-3.3698,-3.3494,-3.2939,-3.2535,-3.2351,-3.2351,-3.1967,-3.1896,-3.2317,0.0,0.0,0.0,0.0,0.0,0.0,0.0,0.0,-3.4658,-3.4697,-3.4906,-3.5281,-3.5489,-3.5528,-3.5445,-3.5621,-3.5702,-3.571,-3.5768,-3.5807,0.0,0.0,0.0,0.0,0.0,0.0,0.0,0.0,0.0,0.0,0.0,0.0,0.0,0.0,0.0,0.0,0.0,0.0,0.0,0.0,0.0,0.0,0.0,-3.4694,-3.5075,-3.5092,-3.5147,-3.5212,-3.5302,-3.5463,0.0,-3.5704,-3.5807,-3.5919,-3.597,-3.7367,-3.8514,-3.8574,-3.9999,-4.1064,-4.0998,-4.089,-4.1028,-4.1636,-4.1303,-4.1032,-4.0991,-4.0615,-3.9851,-3.8683,-3.8281,-3.7844,-3.7264,-3.6908,-3.6602,-3.6301,-3.6301,-3.6301,-3.6301,-3.6259,-3.5793,-3.488,-3.4769,-3.4459,-3.3904,-3.3848,-3.4022,-3.438,-3.4321,-3.4321,-3.4321,-3.4383,-3.4398,-3.4398,-3.446,-3.4475,-3.4475,-3.4475,-3.4475,-3.4475,0.0,0.0,0.0,0.0,0.0,0.0,0.0,0.0,0.0,0.0,-3.2925,-3.2666,-3.2666,-3.2368,-3.2299,0.0,0.0,0.0,0.0,0.0,0.0,0.0,0.0,0.0,-3.439,-3.4713,-3.4962,-3.5216,-3.5372,-3.5535,-3.5706,-3.5749,-3.5774,-3.5774,-3.5857,-3.5909,0.0,0.0,0.0,0.0,0.0,0.0,0.0,0.0,0.0,0.0,-3.5737,-3.5641,0.0,0.0,0.0,0.0,0.0,0.0,0.0,0.0,-3.4714,-3.4963,-3.4812,0.0,-3.4908,-3.5126,-3.5176,-3.5254,0.0,-3.5566,-3.564,-3.582,-3.5878,-3.6109,-3.6776,-3.7727,-3.8638,-3.9314,-4.032,-4.0996,-4.0935,-4.0805,-4.0739,-4.0808,-4.0556,-4.0327,-4.0122,-3.9863,-3.9405,-3.8658,-3.8281,-3.7879,-3.7376,-3.693,-3.6643,-3.6444,-3.6343,-3.6301,-3.6301,-3.5941,-3.5677,-3.5391,-3.4658,-3.4115,-3.3798,-3.3332,-3.3099,-3.3017,-3.2946,-3.2875,-3.2921,-3.3444,-3.366,-3.3706,-3.426,-3.4475,-3.4475,-3.4475,-3.4475,-3.4475,0.0,0.0,0.0,0.0,0.0,0.0,0.0,0.0,0.0,0.0,0.0,-3.2876,-3.3068,-3.2749,0.0,0.0,0.0,0.0,0.0,0.0,0.0,0.0,0.0,-3.408,-3.4435,-3.4651,-3.4908,-3.5203,-3.5331,-3.5469,-3.5611,-3.5745,-3.5807,-3.5797,-3.5908,-3.5976,-3.5995,0.0,0.0,0.0,-3.5994,0.0,0.0,0.0,0.0,0.0,-3.5753,-3.566,0.0,-3.5519,-3.5369,-3.5193,0.0,0.0,0.0,0.0,-3.4926,-3.516,-3.4945,-3.4926,-3.5018,-3.5157,-3.5209,-3.5239,-3.5378,-3.5507,-3.562,-3.5732,-3.5846,-3.6156,-3.7001,-3.7868,-3.8731,-3.9555,-4.0452,-4.1015,-4.0961,-4.0832,-4.0715,-4.0602,-4.0315,-4.0024,-3.9819,-3.9513,-3.9173,-3.8836,-3.8535,-3.8132,-3.7632,-3.7206,-3.6811,-3.6502,-3.636,-3.6301,-3.6301,-3.6028,-3.5793,-3.5571,-3.4785,-3.4202,-3.3783,-3.3187,-3.2773,-3.2578,-3.2453,-3.2398,-3.2428,-3.2782,-3.2936,-3.2982,-3.3367,-3.3521,-3.3521,-3.3521,-3.3521,-3.3521,0.0,0.0,0.0,0.0,0.0,0.0,0.0,0.0,0.0,0.0,0.0,0.0,0.0,0.0,0.0,0.0,0.0,0.0,0.0,0.0,0.0,0.0,-3.3753,-3.4012,-3.4591,-3.4591,-3.4774,-3.5157,-3.5307,-3.5386,-3.5438,-3.5698,-3.5811,-3.5827,-3.5935,-3.5996,-3.5996,-3.6005,-3.5991,-3.5991,-3.5991,0.0,0.0,0.0,0.0,0.0,0.0,0.0,0.0,-3.5599,-3.5451,-3.5223,-3.5209,0.0,0.0,0.0,0.0,0.0,-3.5001,-3.5072,-3.5193,-3.5209,-3.5209,-3.5209,-3.5223,-3.5405,-3.5596,-3.5618,-3.576,-3.6164,-3.7111,-3.7948,-3.878,-3.9735,-4.0519,-4.1008,-4.0961,-4.0855,-4.0742,-4.0681,-4.0323,-4.0005,-3.9819,-3.9445,-3.9192,-3.9101,-3.8778,-3.8423,-3.8047,-3.7524,-3.7034,-3.6609,-3.6444,-3.6301,-3.6301,-3.6301,-3.6071,-3.5571,-3.5068,-3.448,-3.3834,-3.3187,-3.2827,-3.2648,-3.2523,-3.2398,-3.2398,-3.2398,-3.2398,-3.2398,-3.2398,-3.2398,-3.2398,-3.2398,-3.2398,-3.2398,0.0,0.0,0.0,0.0,0.0,0.0,0.0,0.0,0.0,0.0,0.0,0.0,0.0,0.0,0.0,0.0,0.0,0.0,0.0,0.0,0.0,-3.3947,-3.3947,-3.4173,-3.4583,-3.4604,-3.4713,-3.4962,-3.5143,-3.5355,-3.5572,-3.5779,-3.5875,-3.5896,-3.5971,-3.5976,-3.5918,-3.5984,-3.5991,-3.5991,-3.5991,0.0,0.0,0.0,0.0,0.0,0.0,0.0,0.0,-3.562,-3.5495,-3.5355,-3.5239,0.0,0.0,0.0,0.0,0.0,-3.5157,-3.5179,-3.5198,-3.5193,-3.5209,-3.5223,-3.5336,-3.5445,-3.5543,-3.5659,-3.5754,-3.6304,-3.7903,-3.8268,-3.8848,-4.0458,-4.0687,-4.0701,-4.0809,-4.0684,-4.0545,-4.0534,-4.0469,-4.0266,-3.984,-3.9731,-3.9543,-3.911,-3.8778,-3.8579,-3.8517,-3.7773,-3.7264,-3.7111,-3.6673,-3.6402,-3.6301,-3.6301,-3.6071,-3.5571,-3.5068,-3.4545,-3.4034,-3.3346,-3.3005,-3.2843,-3.2648,-3.2523,-3.2398,-3.2398,-3.2398,-3.2398,-3.2398,-3.2398,-3.2398,-3.2398,-3.2398,-3.2342,0.0,0.0,0.0,0.0,0.0,0.0,0.0,0.0,0.0,0.0,0.0,0.0,0.0,0.0,0.0,0.0,0.0,0.0,0.0,0.0,-3.386,-3.4148,-3.4173,-3.4367,-3.4812,-3.4851,-3.4997,-3.5288,-3.5366,-3.5504,-3.567,-3.5791,-3.5872,-3.5909,-3.5966,-3.5954,-3.5893,-3.597,-3.5991,-3.5991,0.0,0.0,0.0,0.0,0.0,0.0,0.0,0.0,0.0,0.0,-3.5507,-3.5378,-3.5239,0.0,0.0,0.0,0.0,0.0,-3.5209,-3.5196,-3.52,-3.5198,-3.5229,-3.5258,-3.5315,-3.5451,-3.5566,-3.5639,-3.5727,-3.632,-3.8079,-3.839,-3.8987,-4.0714,-4.0898,-4.084,-4.0896,-4.0762,-4.0648,-4.0615,-4.0492,-4.0243,-3.984,-3.9705,-3.9489,-3.9129,-3.897,-3.8778,-3.8609,-3.8013,-3.7542,-3.7226,-3.6753,-3.6444,-3.6301,-3.6301,-3.6216,-3.5985,-3.5481,-3.4975,-3.4464,-3.3764,-3.333,-3.3005,-3.2703,-3.2578,-3.2523,-3.2453,-3.2398,-3.2398,-3.2398,-3.2398,-3.2398,-3.2398,-3.2398,-3.2342,0.0,0.0,0.0,0.0,0.0,0.0,0.0,0.0,0.0,0.0,0.0,0.0,0.0,0.0,0.0,0.0,0.0,0.0,0.0,-3.3998,-3.4099,-3.4293,-3.4293,-3.4524,-3.4963,-3.5035,-3.5184,-3.5489,-3.555,-3.5629,-3.5727,-3.5776,-3.5846,-3.5897,-3.5957,-3.595,-3.5908,-3.5971,-3.5991,-3.5991,0.0,0.0,0.0,0.0,0.0,0.0,0.0,0.0,0.0,0.0,0.0,0.0,0.0,0.0,0.0,-3.5209,-3.5209,-3.5209,-3.5193,-3.5198,-3.5164,-3.5147,-3.5215,-3.5261,-3.5277,-3.543,-3.5562,-3.5585,-3.5679,-3.6312,-3.8062,-3.8772,-3.9517,-4.0839,-4.0982,-4.094,-4.0942,-4.0818,-4.071,-4.0668,-4.0468,-4.0204,-3.984,-3.966,-3.9433,-3.911,-3.9101,-3.8998,-3.8748,-3.8277,-3.7808,-3.734,-3.6895,-3.6527,-3.6301,-3.6301,-3.6301,-3.6301,-3.5705,-3.5207,-3.4769,-3.4036,-3.3471,-3.3096,-3.2827,-3.2648,-3.2578,-3.2453,-3.2398,-3.2398,-3.2398,-3.2398,-3.2398,-3.2398,-3.2398,-3.2342,0.0,0.0,0.0,0.0,0.0,0.0,0.0,0.0,0.0,0.0,0.0,0.0,0.0,0.0,0.0,0.0,0.0,0.0,0.0,-3.3998,-3.4099,-3.4293,-3.4293,-3.448,-3.4889,-3.4908,-3.4981,-3.5146,-3.5386,-3.5607,-3.5791,-3.5799,-3.5845,-3.5889,-3.59,-3.5909,-3.5898,-3.5964,-3.5991,-3.5991,-3.5991,0.0,0.0,0.0,0.0,0.0,0.0,0.0,0.0,0.0,0.0,0.0,0.0,0.0,-3.5209,-3.5209,-3.5209,-3.5193,-3.5198,-3.5147,-3.5092,-3.502,-3.5056,-3.5145,-3.5261,-3.5369,-3.5455,-3.556,-3.5659,-3.6246,-3.7991,-3.9687,-4.085,-4.0891,-4.08,-4.0744,-4.0813,-4.0648,-4.0534,-4.0519,-4.0504,-4.0319,-3.984,-3.9797,-3.9571,-3.9137,-3.9101,-3.9101,-3.9073,-3.8676,-3.8231,-3.7666,-3.7283,-3.6816,-3.6301,-3.6301,-3.6301,-3.6301,-3.5328,-3.4833,-3.4785,-3.3781,-3.3256,-3.3096,-3.2951,-3.2773,-3.2578,-3.2453,-3.2398,-3.2398,-3.2398,-3.2398,-3.2398,-3.2398,-3.2398,-3.2216,0.0,0.0,0.0,0.0,0.0,0.0,0.0,0.0,0.0,0.0,0.0,0.0,0.0,0.0,0.0,0.0,0.0,0.0,0.0,-3.4363,-3.4404,-3.4495,-3.4495,-3.4651,-3.5015,-3.5064,-3.522,-3.5469,-3.5609,-3.5727,-3.5799,-3.5852,-3.5885,-3.5894,-3.5901,-3.5897,-3.5898,-3.5964,-3.5991,-3.5991,-3.5991,-3.6001,0.0,0.0,0.0,0.0,0.0,0.0,0.0,0.0,-3.5607,-3.5543,-3.5281,-3.5209,-3.5209,-3.5209,-3.5212,-3.5198,-3.52,-3.5129,-3.5153,-3.5666,-3.5799,-3.5684,-3.5372,-3.5763,-3.6105,-3.5743,-3.5687,-3.6232,-3.7974,-3.9853,-4.1094,-4.0984,-4.0848,-4.0772,-4.0796,-4.0636,-4.0489,-4.0489,-4.0489,-4.0319,-3.984,-3.9797,-3.9595,-3.9156,-3.9101,-3.9101,-3.9101,-3.8554,-3.8099,-3.7701,-3.715,-3.665,-3.6301,-3.6301,-3.6301,-3.6301,-3.5924,-3.5419,-3.4785,-3.4399,-3.3866,-3.3203,-3.3112,-3.2951,-3.2773,-3.2594,-3.2453,-3.2398,-3.2398,-3.2398,-3.2342,-3.1992,-3.1823,-3.1709,0.0,0.0,0.0,0.0,0.0,0.0,0.0,0.0,0.0,0.0,0.0,0.0,0.0,0.0,0.0,0.0,0.0,0.0,-3.4602,-3.4602,-3.4602,-3.4602,-3.4602,-3.4753,-3.5098,-3.5155,-3.5361,-3.5698,-3.5756,-3.5782,-3.5799,-3.5879,-3.5899,-3.5899,-3.5893,-3.5918,-3.5934,-3.5982,-3.5991,-3.5991,-3.601,-3.6001,0.0,0.0,0.0,0.0,0.0,0.0,0.0,0.0,-3.562,-3.5554,-3.534,-3.5239,-3.5209,-3.5209,-3.5196,-3.52,-3.5164,-3.5284,-3.5476,-3.5836,-3.6274,-3.6425,-3.5565,-3.6017,-3.6458,-3.5836,-3.611,-3.6957,-3.8466,-4.0043,-4.1101,-4.1038,-4.0938,-4.0843,-4.0805,-4.0653,-4.0549,-4.0504,-4.0489,-4.0336,-3.9963,-3.984,-3.9641,-3.9272,-3.9156,-3.9101,-3.9101,-3.8628,-3.818,-3.7701,-3.7228,-3.6753,-3.6301,-3.6301,-3.6301,-3.6301,-3.6301,-3.5793,-3.4785,-3.4496,-3.3968,-3.3309,-3.315,-3.3058,-3.2951,-3.2703,-3.2523,-3.2398,-3.2398,-3.2398,-3.2342,-3.1936,-3.1652,-3.1422,0.0,0.0,0.0,0.0,0.0,0.0,0.0,0.0,0.0,0.0,0.0,0.0,0.0,0.0,0.0,0.0,0.0,0.0,-3.4602,-3.4602,-3.4602,-3.4602,-3.4602,-3.4753,-3.5098,-3.517,-3.5366,-3.5704,-3.5698,-3.5736,-3.5799,-3.5879,-3.5899,-3.5896,-3.5896,-3.5934,-3.5991,-3.5991,-3.5991,-3.5991,-3.6004,-3.5994,-3.5986,0.0,0.0,0.0,0.0,0.0,0.0,0.0,-3.566,-3.5585,-3.5445,-3.5311,-3.5209,-3.5209,-3.5196,-3.5183,-3.5129,-3.5684,-3.6084,-3.5299,-3.6363,-3.7234,-3.5815,-3.6022,-3.6353,-3.5805,-3.7038,-3.8479,-3.95,-4.0383,-4.0998,-4.1065,-4.1012,-4.0925,-4.0789,-4.0712,-4.0623,-4.05,-4.0469,-4.0386,-4.0213,-3.9963,-3.9709,-3.9508,-3.9245,-3.9101,-3.9101,-3.9036,-3.8609,-3.7736,-3.7631,-3.7173,-3.6301,-3.6301,-3.6301,-3.6301,-3.6301,-3.5749,-3.4785,-3.3781,-3.3309,-3.3309,-3.315,-3.3096,-3.3043,-3.2757,-3.2523,-3.2398,-3.2398,-3.2398,-3.2398,-3.2398,-3.1992,-3.1422,0.0,0.0,0.0,0.0,0.0,0.0,0.0,0.0,0.0,0.0,0.0,0.0,0.0,0.0,0.0,0.0,0.0,0.0,-3.4602,-3.4602,-3.4602,-3.4602,-3.4602,-3.4753,-3.5098,-3.5391,-3.5615,-3.5775,-3.5765,-3.5795,-3.5859,-3.5899,-3.5899,-3.5897,-3.5953,-3.5982,-3.5991,-3.5991,-3.5991,-3.5991,-3.601,-3.6001,-3.6005,0.0,0.0,0.0,0.0,0.0,0.0,0.0,0.0,0.0,-3.5445,-3.5311,-3.5209,-3.5209,-3.5196,-3.5183,-3.5129,-3.5299,-3.56,-3.5925,-3.6432,-3.6741,-3.6425,-3.6516,-3.6471,-3.5836,-3.6627,-3.7498,-3.7743,-3.8634,-3.9305,-3.9273,-3.9216,-3.9136,-3.9057,-3.8937,-3.8851,-3.8748,-3.8738,-3.8888,-3.9259,-3.9204,-3.9254,-3.9494,-3.9427,-3.9298,-3.9129,-3.8855,-3.8436,-3.7841,-3.7524,-3.7034,-3.6444,-3.636,-3.6301,-3.6301,-3.5985,-3.5436,-3.4785,-3.4496,-3.3968,-3.3309,-3.3256,-3.3203,-3.3043,-3.2757,-3.2523,-3.2398,-3.2398,-3.2398,-3.2342,-3.1936,-3.1652,-3.1364,0.0,0.0,0.0,0.0,0.0,0.0,0.0,0.0,0.0,0.0,0.0,0.0,0.0,0.0,0.0,0.0,0.0,0.0,0.0,-3.4602,-3.4602,-3.4602,-3.4602,-3.4773,-3.513,-3.5514,-3.5737,-3.5801,-3.5773,-3.5803,-3.5889,-3.59,-3.5908,-3.5898,-3.5964,-3.5991,-3.5991,-3.5991,-3.5991,-3.5991,-3.6007,-3.6001,-3.599,0.0,0.0,0.0,0.0,0.0,0.0,0.0,0.0,0.0,-3.5519,-3.5378,-3.5266,-3.5266,-3.527,-3.5239,-3.5219,-3.548,-3.5802,-3.5978,-3.6309,-3.6536,-3.6338,-3.6305,-3.6291,-3.6195,-3.6656,-3.715,-3.7486,-3.812,-3.857,-3.8545,-3.8514,-3.8443,-3.835,-3.8276,-3.8161,-3.8035,-3.8034,-3.8325,-3.898,-3.8951,-3.9108,-3.958,-3.9556,-3.9401,-3.9129,-3.8913,-3.8579,-3.8129,-3.7703,-3.7246,-3.6696,-3.6468,-3.6343,-3.6301,-3.6028,-3.5616,-3.5098,-3.469,-3.4068,-3.3309,-3.3256,-3.315,-3.3043,-3.2757,-3.2523,-3.2453,-3.2398,-3.2272,-3.1992,-3.1652,-3.1175,-3.0615,0.0,0.0,0.0,0.0,0.0,0.0,0.0,0.0,0.0,0.0,0.0,0.0,0.0,0.0,0.0,0.0,0.0,0.0,0.0,-3.4602,-3.4602,-3.4602,-3.4626,-3.4812,-3.5181,-3.5531,-3.5728,-3.5794,-3.5737,-3.5768,-3.5899,-3.59,-3.5909,-3.5918,-3.5964,-3.5991,-3.5991,-3.5991,-3.5991,-3.5991,-3.6004,-3.6001,-3.5997,-3.6009,0.0,0.0,0.0,0.0,0.0,0.0,0.0,0.0,-3.563,-3.5519,-3.5405,-3.5405,-3.5359,-3.5325,-3.538,-3.5938,-3.6362,-3.5656,-3.6055,-3.6453,-3.5836,-3.5704,-3.5916,-3.6632,-3.6842,-3.7152,-3.8001,-3.8213,-3.8288,-3.8359,-3.8359,-3.8314,-3.8186,-3.8161,-3.8098,-3.7898,-3.7881,-3.8215,-3.9099,-3.8961,-3.9109,-3.9783,-3.9637,-3.9408,-3.9137,-3.9129,-3.8894,-3.8418,-3.8096,-3.7649,-3.702,-3.6696,-3.6468,-3.6301,-3.6301,-3.6071,-3.5571,-3.461,-3.3848,-3.3309,-3.315,-3.3096,-3.3058,-3.2757,-3.2594,-3.2578,-3.2453,-3.2048,-3.161,-3.1537,-3.0748,-2.969,0.0,0.0,0.0,0.0,0.0,0.0,0.0,0.0,0.0,0.0,0.0,0.0,0.0,0.0,0.0,0.0,0.0,0.0,0.0,-3.4602,-3.4602,-3.4602,-3.4851,-3.503,-3.5114,-3.5489,-3.5716,-3.5728,-3.5756,-3.582,-3.5903,-3.589,-3.5934,-3.5982,-3.5996,-3.5991,-3.5991,-3.5991,-3.5991,-3.5991,-3.5991,-3.6004,-3.5997,-3.6009,-3.6005,0.0,0.0,0.0,0.0,0.0,0.0,0.0,-3.5676,-3.5538,-3.5405,-3.5405,-3.5391,-3.5359,-3.5325,-3.5554,-3.5755,-3.555,-3.5717,-3.5875,-3.5723,-3.5704,-3.5742,-3.5916,-3.6004,-3.6125,-3.6317,-3.6459,-3.6542,-3.6562,-3.6562,-3.652,-3.6453,-3.6442,-3.6356,-3.6164,-3.6142,-3.6694,-3.8137,-3.8228,-3.8728,-4.0024,-3.988,-3.9637,-3.9427,-3.9219,-3.8942,-3.8579,-3.8387,-3.791,-3.717,-3.6978,-3.6701,-3.6301,-3.6301,-3.6071,-3.5571,-3.4927,-3.4168,-3.3309,-3.3256,-3.315,-3.2951,-3.2843,-3.2648,-3.2453,-3.2398,-3.2342,-3.216,-3.1652,-3.1306,-3.0925,0.0,0.0,0.0,0.0,0.0,0.0,0.0,0.0,0.0,0.0,0.0,0.0,0.0,0.0,0.0,0.0,0.0,0.0,0.0,0.0,-3.4602,-3.4602,-3.487,-3.5032,-3.5098,-3.5405,-3.5604,-3.5707,-3.5737,-3.5794,-3.591,-3.5893,-3.5935,-3.5991,-3.5991,-3.5991,-3.5991,-3.5991,-3.5991,-3.5991,-3.5991,-3.601,-3.6004,-3.6001,-3.5971,-3.594,-3.5955,0.0,0.0,0.0,0.0,0.0,0.0,0.0,-3.5579,-3.5549,-3.5538,-3.5549,-3.5579,-3.566,-3.5727,-3.562,-3.5658,-3.5697,-3.5695,-3.5704,-3.5704,-3.5704,-3.5749,-3.5791,-3.5791,-3.5921,-3.5996,-3.5996,-3.5996,-3.5996,-3.5948,-3.5945,-3.5903,-3.5755,-3.5702,-3.6289,-3.7887,-3.8031,-3.8604,-4.008,-4.0062,-3.9857,-3.9526,-3.9376,-3.9146,-3.8836,-3.8609,-3.8259,-3.779,-3.7323,-3.6921,-3.662,-3.6409,-3.6071,-3.5571,-3.4833,-3.4168,-3.3658,-3.3346,-3.3096,-3.3005,-3.2827,-3.2648,-3.2523,-3.2453,-3.2216,-3.1879,-3.1233,-3.0807,-3.0375,0.0,0.0,0.0,0.0,0.0,0.0,0.0,0.0,0.0,0.0,0.0,0.0,0.0,0.0,0.0,0.0,0.0,0.0,0.0,0.0,0.0,-3.4602,-3.4791,-3.4963,-3.5098,-3.5311,-3.5507,-3.5697,-3.5689,-3.5753,-3.588,-3.589,-3.5935,-3.5991,-3.5991,-3.5991,-3.5991,-3.5991,-3.5991,-3.5991,-3.5991,-3.5996,-3.5979,-3.5979,-3.5953,-3.5918,-3.5966,-3.5948,-3.5915,-3.5952,0.0,0.0,0.0,0.0,-3.5799,-3.5729,-3.5721,-3.5729,-3.5845,-3.5878,-3.5864,-3.5745,-3.5718,-3.5708,-3.5697,-3.5706,-3.5706,-3.5695,-3.5749,-3.5791,-3.5791,-3.5921,-3.5996,-3.5996,-3.5996,-3.5996,-3.5996,-3.5996,-3.5989,-3.5912,-3.5768,-3.6326,-3.7947,-3.8053,-3.862,-4.0135,-4.0233,-4.0021,-3.9561,-3.9508,-3.9376,-3.9101,-3.8836,-3.8591,-3.8418,-3.7755,-3.7266,-3.6981,-3.6516,-3.6114,-3.5677,-3.4706,-3.4201,-3.405,-3.3414,-3.3096,-3.3112,-3.2773,-3.2648,-3.2578,-3.2453,-3.2104,-3.1595,-3.094,-3.0254,-2.958,0.0,0.0,0.0,0.0,0.0,0.0,0.0,0.0,0.0,0.0,-3.5673,0.0,0.0,0.0,0.0,0.0,0.0,0.0,0.0,0.0,0.0,-3.4602,-3.4791,-3.4963,-3.5098,-3.5302,-3.5489,-3.5695,-3.5698,-3.5745,-3.581,-3.5861,-3.5933,-3.5991,-3.5991,-3.5991,-3.5991,-3.5991,-3.5991,-3.5991,-3.5991,-3.5966,-3.5918,-3.5916,-3.5917,-3.5901,-3.5911,-3.5912,-3.5894,-3.5917,-3.5912,0.0,0.0,0.0,-3.5794,-3.5799,-3.5791,-3.5784,-3.5729,-3.5811,-3.5872,-3.5799,-3.5791,-3.5773,-3.5708,-3.5747,-3.5775,-3.5706,-3.5749,-3.5791,-3.5791,-3.5921,-3.5996,-3.5996,-3.5996,-3.5996,-3.5996,-3.5996,-3.5989,-3.5912,-3.5768,-3.6326,-3.7947,-3.8053,-3.8681,-4.0342,-4.0304,-4.0062,-3.9775,-3.9585,-3.9376,-3.9101,-3.9073,-3.8818,-3.8418,-3.8273,-3.7823,-3.6981,-3.6516,-3.6259,-3.6156,-3.5161,-3.4464,-3.405,-3.3503,-3.3203,-3.3112,-3.2951,-3.2773,-3.2578,-3.2453,-3.2342,-3.2231,-3.1595,-3.094,-3.0269,0.0,0.0,0.0,0.0,0.0,0.0,0.0,0.0,0.0,0.0,0.0,-3.5704,0.0,0.0,0.0,0.0,0.0,0.0,0.0,0.0,0.0,-3.4602,-3.4689,-3.4851,-3.5078,-3.5178,-3.5378,-3.5704,-3.5687,-3.5726,-3.5755,-3.5811,-3.5901,-3.5994,-3.5968,-3.5966,-3.5991,-3.5991,-3.5982,-3.5933,-3.5933,-3.5937,-3.5891,-3.5893,-3.5899,-3.5908,-3.5893,-3.5874,-3.5848,-3.5888,-3.5895,-3.5918,-3.5937,0.0,0.0,0.0,-3.5866,-3.5852,-3.5814,-3.5859,-3.5879,-3.5864,-3.5857,-3.5842,-3.5773,-3.5782,-3.5782,-3.5766,-3.5807,-3.5836,-3.5816,-3.5921,-3.5996,-3.5996,-3.5996,-3.5996,-3.5996,-3.5995,-3.5989,-3.5955,-3.5805,-3.637,-3.8054,-3.8074,-3.87,-4.0354,-4.0425,-4.0267,-4.0042,-3.9794,-3.9561,-3.9324,-3.9183,-3.8998,-3.8789,-3.8355,-3.7631,-3.6736,-3.6509,-3.6343,-3.6259,-3.5237,-3.469,-3.4464,-3.3642,-3.3203,-3.3112,-3.3058,-3.2827,-3.2578,-3.2523,-3.2231,-3.1823,-3.1175,-3.051,-2.9827,0.0,0.0,0.0,0.0,0.0,0.0,0.0,0.0,0.0,0.0,0.0,0.0,0.0,0.0,0.0,0.0,0.0,0.0,0.0,0.0,0.0,-3.4602,-3.4602,-3.4752,-3.503,-3.5081,-3.5273,-3.562,-3.5684,-3.5708,-3.5694,-3.5753,-3.5849,-3.5966,-3.5917,-3.5934,-3.5994,-3.5979,-3.5951,-3.5898,-3.5898,-3.5908,-3.5903,-3.5903,-3.5895,-3.5872,-3.5875,-3.5851,-3.5811,-3.5873,-3.5907,-3.5896,-3.5901,-3.5893,0.0,0.0,0.0,-3.5909,-3.5899,-3.5894,-3.5908,-3.5905,-3.5892,-3.5885,-3.5842,-3.5823,-3.5823,-3.5799,-3.5869,-3.59,-3.5841,-3.5923,-3.5996,-3.5996,-3.5995,-3.5994,-3.5994,-3.5992,-3.6009,-3.6005,-3.5816,-3.6378,-3.8131,-3.8131,-3.87,-4.0354,-4.0489,-4.0406,-4.0214,-3.9943,-3.9705,-3.9526,-3.9245,-3.9101,-3.9101,-3.8291,-3.7487,-3.669,-3.6568,-3.6444,-3.6259,-3.5237,-3.4769,-3.4721,-3.3729,-3.3256,-3.315,-3.3096,-3.2935,-3.2703,-3.2648,-3.2231,-3.1709,-3.0999,-3.0329,-2.9642,0.0,0.0,0.0,0.0,0.0,0.0,0.0,0.0,0.0,0.0,0.0,0.0,-3.5704,-3.5521,-3.5331,-3.513,-3.4999,-3.4812,-3.4604,-3.4602,-3.4602,-3.4602,-3.4602,0.0,-3.4927,-3.5013,-3.5193,-3.5424,-3.5604,-3.5708,-3.5694,-3.5706,-3.5781,-3.5917,-3.5898,-3.5934,-3.5994,-3.5935,-3.5898,-3.5898,-3.5908,-3.5896,-3.5894,-3.5894,-3.5853,-3.5799,-3.5807,-3.5807,-3.5815,-3.5872,-3.5894,-3.5904,-3.5907,-3.5896,-3.5903,0.0,0.0,0.0,-3.5909,-3.5909,-3.5904,-3.5889,-3.5908,-3.5897,-3.5905,-3.5885,-3.5885,-3.5815,-3.5904,-3.5974,-3.5904,-3.5948,-3.5992,-3.5992,-3.5992,-3.5992,-3.5992,-3.6007,-3.6005,-3.6005,-3.5825,-3.6373,-3.8131,-3.8131,-3.87,-4.0354,-4.0489,-4.0406,-4.0214,-3.9943,-3.9705,-3.9526,-3.9245,-3.9101,-3.9101,-3.8291,-3.7667,-3.715,-3.6713,-3.6444,-3.6259,-3.5237,-3.4769,-3.4721,-3.3729,-3.3309,-3.3309,-3.315,-3.3096,-3.3043,-3.2703,-3.2594,-3.2468,-3.1709,-3.0999,-3.0329,0.0,0.0,0.0,0.0,0.0,0.0,0.0,0.0,0.0,0.0,0.0,0.0,0.0,-3.5451,-3.5316,-3.513,-3.4981,-3.4812,-3.4604,-3.4602,-3.4602,-3.4602,-3.4602,-3.4689,-3.4908,-3.5032,-3.5193,-3.5405,-3.5601,-3.5707,-3.5699,-3.5708,-3.5757,-3.5836,-3.5849,-3.5867,-3.5935,-3.5915,-3.5901,-3.59,-3.5903,-3.5864,-3.5838,-3.5838,-3.5823,-3.5799,-3.5799,-3.5799,-3.5799,-3.583,-3.5838,-3.5845,-3.5833,-3.5869,-3.5908,-3.5909,-3.5918,-3.5925,-3.5901,-3.5923,-3.5958,-3.5953,-3.5966,-3.5947,-3.5914,-3.5909,-3.5895,-3.5866,-3.5895,-3.5926,-3.5908,-3.5953,-3.5993,-3.5996,-3.5993,-3.6007,-3.6007,-3.6001,-3.5996,-3.5996,-3.5909,-3.6475,-3.814,-3.8152,-3.8742,-4.0389,-4.0489,-4.0473,-4.0408,-4.0195,-3.9943,-3.9705,-3.9464,-3.9064,-3.8473,-3.8183,-3.7632,-3.6869,-3.6725,-3.6502,-3.6301,-3.5616,-3.5115,-3.4769,-3.4084,-3.3607,-3.3309,-3.3256,-3.3203,-3.3096,-3.2989,-3.2578,-3.1921,-3.1261,-3.0495,-2.9766,0.0,0.0,0.0,0.0,0.0,0.0,0.0,0.0,0.0,-3.5704,0.0,0.0,0.0,0.0,-3.5193,-3.4943,-3.4851,-3.4751,-3.4623,-3.4602,-3.4602,-3.4602,-3.4602,-3.4668,-3.4811,-3.4944,-3.51,-3.5228,-3.5483,-3.5608,-3.5608,-3.5667,-3.5745,-3.5801,-3.5787,-3.5827,-3.5895,-3.5893,-3.5899,-3.5908,-3.5885,-3.5845,-3.5799,-3.5799,-3.5799,-3.5791,-3.5773,-3.5765,-3.5756,-3.5718,-3.5708,-3.5708,-3.5708,-3.5768,-3.5844,-3.5896,-3.5908,-3.5898,-3.5898,-3.5933,-3.5964,-3.5962,-3.596,-3.594,-3.5916,-3.591,-3.5923,-3.59,-3.5916,-3.5921,-3.5907,-3.5954,-3.5995,-3.5995,-3.5996,-3.5993,-3.6009,-3.6005,-3.6001,-3.5994,-3.5938,-3.6521,-3.814,-3.8167,-3.8762,-4.0369,-4.0489,-4.0473,-4.0389,-4.0269,-4.0061,-3.9705,-3.9464,-3.9017,-3.8281,-3.8168,-3.7685,-3.6869,-3.6766,-3.6544,-3.6301,-3.5793,-3.5299,-3.4769,-3.4284,-3.3813,-3.3309,-3.3309,-3.3203,-3.3043,-3.2796,-3.2272,-3.1564,-3.0659,-2.9936,-2.9393,0.0,0.0,0.0,0.0,0.0,0.0,0.0,0.0,-3.5704,-3.5704,0.0,0.0,0.0,0.0,0.0,-3.4626,-3.4602,-3.4602,-3.4602,-3.4602,-3.4602,-3.4602,-3.4602,-3.4602,-3.4602,-3.4811,-3.4908,-3.4908,-3.5247,-3.5405,-3.5405,-3.5608,-3.5737,-3.5794,-3.5735,-3.5787,-3.591,-3.5909,-3.5908,-3.5883,-3.583,-3.5799,-3.5799,-3.5799,-3.5791,-3.5782,-3.5718,-3.5707,-3.5667,-3.555,-3.5495,-3.5495,-3.5495,-3.5582,-3.5721,-3.5852,-3.5903,-3.5896,0.0,0.0,0.0,-3.5891,-3.5898,-3.5897,-3.5895,-3.5956,-3.5984,-3.5918,-3.5957,-3.5976,-3.5913,-3.5953,-3.5996,-3.5993,-3.5992,-3.5994,-3.5995,-3.5995,-3.5992,-3.5994,-3.5938,-3.6521,-3.814,-3.8167,-3.8762,-4.0369,-4.0489,-4.0406,-4.0233,-4.0214,-3.9982,-3.9508,-3.9245,-3.8942,-3.8609,-3.8281,-3.7809,-3.7188,-3.6869,-3.6544,-3.6301,-3.5793,-3.5299,-3.4769,-3.4284,-3.3813,-3.3309,-3.3309,-3.3203,-3.3043,-3.2241,-3.1834,-3.1492,-3.0058,-2.9504,-2.9393,0.0,0.0,0.0,0.0,0.0,-3.5704,-3.5704,-3.5704,-3.5704,0.0,0.0,0.0,-3.5209,-3.4925,-3.4711,-3.4623,-3.4602,-3.4602,-3.4602,-3.4602,-3.4602,-3.4602,-3.4602,-3.4602,-3.4602,-3.4811,-3.4908,-3.4908,-3.5247,-3.5405,-3.5405,-3.5612,-3.5698,-3.5727,-3.5766,-3.5791,-3.5826,-3.5838,-3.583,-3.583,-3.5807,-3.5799,-3.5799,-3.5799,-3.5765,-3.5737,-3.5718,-3.5646,-3.555,-3.5507,-3.5495,-3.5495,-3.5495,-3.5588,-3.5718,-3.5736,-3.5813,-3.5895,-3.5895,0.0,0.0,0.0,0.0,0.0,-3.5908,-3.5909,-3.5911,-3.5895,-3.5915,-3.5916,-3.5898,-3.5917,-3.5893,-3.5808,-3.5915,-3.5996,-3.5995,-3.6009,-3.5999,-3.5994,-3.5938,-3.6521,-3.814,-3.8167,-3.8762,-4.0369,-4.0489,-4.0473,-4.0425,-4.0286,-3.9982,-3.9508,-3.9427,-3.9146,-3.8609,-3.8281,-3.7809,-3.7188,-3.6869,-3.6544,-3.6301,-3.5793,-3.5299,-3.4769,-3.4284,-3.3813,-3.3309,-3.3309,-3.3203,-3.3096,-3.285,-3.2327,-3.1564,-3.0719,-2.9997,-2.9393,0.0,0.0,0.0,0.0,0.0,-3.5704,-3.5704,-3.5704,-3.5704,0.0,0.0,0.0,-3.5049,-3.4772,-3.4602,-3.4602,-3.4602,-3.4602,-3.4602,-3.4602,-3.4602,-3.4602,-3.4602,-3.4602,-3.4602,-3.471,-3.4771,-3.4771,-3.5049,-3.5212,-3.5288,-3.547,-3.5615,-3.5707,-3.5728,-3.5775,-3.5803,-3.5801,-3.5799,-3.5799,-3.5799,-3.5799,-3.5791,-3.5765,-3.5728,-3.5697,-3.5601,-3.5521,-3.5438,-3.5397,-3.5364,-3.5378,-3.5438,-3.5509,-3.5577,-3.557,-3.563,-3.5687,-3.5687,-3.569,-3.5709,-3.5807,0.0,0.0,-3.5811,-3.5846,-3.5856,-3.5821,-3.5849,-3.5861,-3.5882,-3.5903,-3.586,-3.5728,-3.5754,-3.5821,-3.5903,-3.5964,-3.5999,-3.5955,-3.5929,-3.6508,-3.8064,-3.8144,-3.8762,-4.0369,-4.0489,-4.0457,-4.0372,-4.0081,-3.9769,-3.9526,-3.9401,-3.9173,-3.8807,-3.8346,-3.7879,-3.7396,-3.693,-3.6544,-3.6301,-3.5793,-3.5299,-3.4769,-3.4284,-3.3813,-3.3309,-3.3309,-3.3203,-3.3043,-3.2742,-3.2216,-3.1564,-3.06,-2.9922,-2.9393,0.0,0.0,-3.5081,-3.5098,-3.5405,-3.5673,-3.5704,-3.5704,-3.5704,0.0,-3.5521,-3.5258,-3.4926,-3.4751,-3.4626,-3.4583,-3.4602,-3.4602,-3.4602,-3.4602,-3.4602,-3.4602,-3.4602,-3.4602,-3.4602,-3.4602,-3.4602,-3.4602,-3.4811,-3.4963,-3.5081,-3.5302,-3.5502,-3.5667,-3.5689,-3.5737,-3.5794,-3.5801,-3.5799,-3.5799,-3.5799,-3.5799,-3.5791,-3.5737,-3.5755,-3.5792,-3.5501,-3.5456,-3.5484,-3.5261,-3.5209,-3.5226,-3.5335,-3.5383,-3.5379,-3.5383,-3.5378,-3.5391,-3.5391,-3.5391,-3.5418,-3.5604,-3.5631,0.0,-3.5639,-3.5706,-3.5733,-3.5678,-3.5735,-3.5799,-3.5846,-3.586,-3.5817,-3.5675,-3.5572,-3.5566,-3.5758,-3.5874,-3.5935,-3.5864,-3.5872,-3.6452,-3.7947,-3.8085,-3.8749,-4.0389,-4.0489,-4.0406,-4.0214,-3.9791,-3.9556,-3.9483,-3.9272,-3.9129,-3.9101,-3.8442,-3.7964,-3.7701,-3.7013,-3.6544,-3.6301,-3.5793,-3.5299,-3.4769,-3.4284,-3.3813,-3.3309,-3.3309,-3.3203,-3.3043,-3.2185,-3.1777,-3.145,-2.9997,-2.9442,-2.9331,0.0,-3.4772,-3.4981,-3.5081,-3.5302,-3.5509,-3.5673,-3.5704,-3.5704,-3.5704,-3.5521,-3.5258,-3.4926,-3.4851,-3.4791,-3.4604,-3.4602,-3.4602,-3.4602,-3.4602,-3.4602,-3.4602,-3.4602,-3.4602,-3.4602,-3.4602,-3.4602,-3.4602,-3.4811,-3.4908,-3.4945,-3.5262,-3.5418,-3.5477,-3.5629,-3.5708,-3.5718,-3.5782,-3.5799,-3.5799,-3.5799,-3.5799,-3.5791,-3.5737,-3.6071,-3.6479,-3.5685,-3.578,-3.6179,-3.5439,-3.5209,-3.519,-3.5242,-3.5239,-3.5232,-3.5247,-3.5239,-3.523,-3.523,-3.523,-3.5264,-3.5292,-3.5315,0.0,-3.5287,-3.5405,-3.547,-3.5457,-3.556,-3.5604,-3.5523,-3.5538,-3.5519,-3.5335,-3.5458,-3.5591,-3.5631,-3.5663,-3.5671,-3.5657,-3.5602,-3.6237,-3.7938,-3.8053,-3.871,-4.0369,-4.0489,-4.0406,-4.0214,-4.0101,-3.9878,-3.9508,-3.9452,-3.9324,-3.9101,-3.8442,-3.7964,-3.7701,-3.7013,-3.6544,-3.6301,-3.5793,-3.5299,-3.4769,-3.4284,-3.3813,-3.3309,-3.3309,-3.3203,-3.3043,-3.2185,-3.1477,-3.0778,-2.9875,-2.9156,-2.8766,-3.4561,-3.4771,-3.4926,-3.5081,-3.5273,-3.5464,-3.5673,-3.562,-3.5553,-3.5553,-3.5307,-3.5086,-3.4908,-3.4811,-3.471,-3.4623,-3.4602,-3.4602,-3.4602,-3.4602,-3.4602,-3.4602,-3.4602,-3.4602,-3.4602,-3.4602,-3.4602,-3.4602,-3.471,-3.4811,-3.4908,-3.5149,-3.5258,-3.5254,-3.5574,-3.5669,-3.5618,-3.5747,-3.5801,-3.5799,-3.5799,-3.5799,-3.5782,-3.5658,-3.5821,-3.6087,-3.5518,-3.5545,-3.5785,-3.5312,-3.5143,-3.5126,-3.5072,-3.4981,-3.4906,-3.4963,-3.4925,-3.4869,-3.4961,-3.4997,-3.5013,-3.513,-3.5146,0.0,0.0,-3.5203,-3.5239,-3.5247,-3.5304,-3.5354,-3.5316,-3.5282,-3.5215,-3.5035,-3.5172,-3.5316,-3.5354,-3.5491,-3.5592,-3.556,-3.5516,-3.617,-3.7844,-3.7973,-3.8666,-4.0373,-4.0489,-4.0406,-4.0214,-4.0062,-3.9857,-3.9508,-3.9376,-3.9245,-3.9101,-3.8597,-3.8147,-3.7701,-3.7208,-3.6713,-3.6301,-3.5793,-3.5299,-3.4769,-3.4284,-3.3813,-3.3309,-3.3309,-3.3256,-3.315,-3.2437,-3.1777,-3.1174,-3.0119,-2.947,-2.8994,-3.4517,-3.473,-3.4889,-3.5049,-3.5197,-3.5364,-3.5553,-3.5477,-3.5391,-3.5364,-3.5152,-3.4963,-3.4851,-3.473,-3.4626,-3.4583,-3.4602,-3.4602,-3.4602,-3.4602,-3.4583,-3.4539,-3.4539,-3.4517,-3.4495,-3.4517,-3.4539,-3.4539,-3.4561,-3.4689,-3.485,-3.4997,-3.5081,-3.5095,-3.5457,-3.5593,-3.555,-3.5679,-3.5756,-3.581,-3.5791,-3.5896,-3.6015,-3.5643,-3.5707,-3.5952,-3.5592,-3.5343,-3.5193,-3.5127,-3.5092,-3.5075,-3.4945,-3.4792,-3.4651,-3.4728,-3.4623,-3.4495,-3.4623,-3.4645,-3.4689,-3.4889,-3.4944,-3.4944,0.0,0.0,0.0,-3.4926,-3.4907,-3.4887,-3.4933,-3.489,-3.4838,-3.4698,-3.4789,-3.4882,-3.4945,-3.5181,-3.5367,-3.5425,-3.5445,-3.604,-3.752,-3.7955,-3.8789,-4.0377,-4.0489,-4.0441,-4.0269,-3.9963,-3.9728,-3.9561,-3.9272,-3.9101,-3.9101,-3.8778,-3.8323,-3.7736,-3.7377,-3.6878,-3.6301,-3.5941,-3.5436,-3.4927,-3.4464,-3.3949,-3.345,-3.3346,-3.3309,-3.3256,-3.2602,-3.2074,-3.1592,-3.036,-2.9704,-2.9282,-3.4517,-3.4623,-3.4689,-3.4889,-3.4945,-3.4999,-3.5146,-3.5302,-3.535,-3.5162,-3.5258,-3.5165,-3.4689,-3.4771,-3.4772,-3.4623,-3.4602,-3.4602,-3.4602,-3.4602,-3.4517,-3.434,-3.434,-3.4245,-3.4074,-3.4245,-3.434,-3.434,-3.4517,-3.4604,-3.4626,-3.4831,-3.4999,-3.5114,-3.5212,-3.5405,-3.5667,-3.5577,-3.5639,-3.5803,-3.581,-3.6265,-3.685,-3.5855,-3.646,-3.7668,-3.6703,-3.5859,-3.5193,-3.5127,-3.5092,-3.5075,-3.4945,-3.4831,-3.4747,-3.4583,-3.4431,-3.4293,-3.4124,-3.4099,-3.4148,-3.4344,-3.439,-3.439,-3.439,0.0,-3.4311,-3.4302,0.0,-3.4093,-3.3981,0.0,0.0,-3.4284,-3.4315,-3.4364,-3.4401,-3.443,-3.4639,-3.5171,-3.5289,-3.5707,-3.6648,-3.8147,-3.9461,-4.0441,-4.0492,-4.0489,-4.0473,-4.0043,-3.9797,-3.9754,-3.9338,-3.9101,-3.9101,-3.8778,-3.8373,-3.7859,-3.7432,-3.6974,-3.6444,-3.6301,-3.5985,-3.5481,-3.4975,-3.4464,-3.3949,-3.3503,-3.3309,-3.324,-3.2446,-3.169,-3.0925,-3.0147,-2.9324,-2.8716,-3.4363,-3.4517,-3.4668,-3.4851,-3.4908,-3.4981,-3.5243,-3.5258,-3.5181,-3.5016,-3.4963,-3.5059,-3.5433,-3.5466,-3.5631,-3.6032,-3.6047,-3.5777,-3.5156,-3.5119,-3.4825,-3.4167,-3.4124,-3.4099,-3.3998,-3.4074,-3.4173,-3.4293,-3.4386,-3.4495,-3.4583,-3.4811,-3.487,-3.4813,-3.503,-3.5243,-3.5418,-3.5463,-3.5618,-3.5803,-3.5793,-3.6326,-3.6968,-3.5913,-3.588,-3.6362,-3.5911,-3.5501,-3.5127,-3.502,-3.4946,-3.4869,-3.4628,-3.4454,-3.4316,-3.4221,-3.4099,-3.3947,-3.3998,-3.3998,-3.4023,-3.4099,-3.4124,-3.4124,-3.4124,-3.4105,-3.4087,-3.408,0.0,0.0,0.0,0.0,0.0,0.0,-3.4179,-3.4232,-3.4232,-3.4284,-3.4383,-3.4636,-3.4735,-3.5324,-3.6747,-3.8118,-3.9223,-3.9985,-4.0177,-4.0232,-4.0101,-3.9794,-3.9632,-3.9632,-3.9279,-3.9101,-3.9101,-3.897,-3.853,-3.7789,-3.7596,-3.7097,-3.6402,-3.6343,-3.6028,-3.5571,-3.5345,-3.4833,-3.4101,-3.3848,-3.3607,-3.324,-3.2391,-3.1618,-3.0808,-2.9979,-2.9212,-2.8587,-3.4197,-3.4409,-3.4666,-3.4791,-3.4831,-3.4926,-3.5232,-3.5149,-3.5073,-3.5211,-3.5092,-3.535,-3.6264,-3.6287,-3.646,-3.7042,-3.7033,-3.6657,-3.5876,-3.5764,-3.5403,-3.4621,-3.4355,-3.4199,-3.4164,-3.4005,-3.3998,-3.4148,-3.4197,-3.4316,-3.4517,-3.467,-3.4711,-3.4689,-3.487,-3.503,-3.5181,-3.5345,-3.5519,-3.5679,-3.5708,-3.6056,-3.6505,-3.6028,-3.558,-3.5176,-3.5176,-3.5108,-3.5039,-3.4908,-3.481,-3.4666,-3.4404,-3.4173,-3.3998,-3.3921,-3.3815,-3.3726,-3.3807,-3.386,-3.3842,-3.3895,-3.3921,-3.3921,-3.3921,-3.3921,-3.3895,-3.386,-3.386,0.0,0.0,0.0,-3.3671,-3.3671,0.0,-3.3688,-3.3688,-3.3713,-3.3894,-3.4246,-3.4357,-3.5102,-3.6859,-3.7778,-3.8658,-3.9588,-3.9859,-3.9922,-3.9775,-3.9609,-3.9502,-3.9502,-3.9245,-3.9101,-3.9101,-3.9101,-3.8651,-3.7754,-3.7701,-3.7212,-3.6343,-3.6301,-3.6114,-3.5766,-3.5481,-3.4975,-3.4284,-3.4,-3.3642,-3.3187,-3.2281,-3.1504,-3.0808,-2.9993,-2.9226,-2.8587,-3.3998,-3.4316,-3.4583,-3.4623,-3.4623,-3.4668,-3.487,-3.4908,-3.5173,-3.5968,-3.6063,-3.6323,-3.6994,-3.7065,-3.7061,-3.7099,-3.6851,-3.6708,-3.667,-3.648,-3.626,-3.6058,-3.5308,-3.4772,-3.4601,-3.4006,-3.3726,-3.3726,-3.3921,-3.4124,-3.4316,-3.4316,-3.4524,-3.487,-3.471,-3.4812,-3.5114,-3.5181,-3.5302,-3.5419,-3.5476,-3.5364,-3.5269,-3.6358,-3.6059,-3.5092,-3.5092,-3.502,-3.4889,-3.4829,-3.4666,-3.4495,-3.434,-3.4173,-3.3972,-3.378,-3.3698,-3.3643,-3.3481,-3.3422,-3.3481,-3.3643,-3.3698,-3.3698,-3.3698,-3.3698,-3.3643,-3.3452,-3.3422,-3.3422,-3.3422,-3.3099,-3.2827,-3.2827,-3.2568,0.0,0.0,-3.2368,-3.2849,-3.4134,-3.4357,-3.5057,-3.6723,-3.7047,-3.7811,-3.9392,-3.9622,-3.9709,-3.9709,-3.9561,-3.9502,-3.9502,-3.9245,-3.9101,-3.9101,-3.9101,-3.87,-3.7893,-3.7754,-3.7268,-3.6502,-3.6343,-3.6301,-3.6199,-3.5237,-3.4833,-3.469,-3.3729,-3.3309,-3.3171,-3.189,-3.1232,-3.0808,-3.0086,-2.9261,-2.8587,-3.3972,-3.4221,-3.445,-3.458,-3.4602,-3.4604,-3.4689,-3.5264,-3.5758,-3.5934,-3.6421,-3.7058,-3.7793,-3.7887,-3.8131,-3.8719,-3.8495,-3.8069,-3.7396,-3.7116,-3.6662,-3.5945,-3.5623,-3.5193,-3.4624,-3.4395,-3.4095,-3.3698,-3.378,-3.3895,-3.4099,-3.4245,-3.4363,-3.452,-3.4561,-3.4732,-3.4963,-3.4997,-3.5098,-3.5273,-3.5288,-3.5273,-3.5262,-3.5557,-3.537,-3.4983,-3.4983,-3.4908,-3.483,-3.4809,-3.4623,-3.434,-3.4148,-3.3972,-3.378,-3.3549,-3.3509,-3.3481,-3.3422,-3.3393,-3.3422,-3.3481,-3.3509,-3.3509,-3.3509,-3.3309,-3.3093,-3.3019,-3.283,-3.2669,-3.2669,-3.2553,-3.2468,-3.2468,-3.2368,-3.2317,0.0,-3.2317,-3.2484,-3.2924,-3.3259,-3.4144,-3.5868,-3.6451,-3.734,-3.8906,-3.9253,-3.9331,-3.9227,-3.9192,-3.9183,-3.9219,-3.9156,-3.9101,-3.9101,-3.9101,-3.8807,-3.8162,-3.7857,-3.7361,-3.6759,-3.6451,-3.6301,-3.6259,-3.5616,-3.5115,-3.4738,-3.4084,-3.3555,-3.3027,-3.1649,-3.094,-3.0645,-2.9685,-2.9022,-2.8587,-3.3947,-3.4173,-3.4363,-3.4561,-3.4602,-3.4695,-3.5015,-3.5614,-3.6201,-3.669,-3.7192,-3.7831,-3.8676,-3.8751,-3.8952,-3.942,-3.9229,-3.8766,-3.8029,-3.7772,-3.7335,-3.6671,-3.6381,-3.5856,-3.5041,-3.4751,-3.4268,-3.3605,-3.3605,-3.3698,-3.3895,-3.4023,-3.4173,-3.4293,-3.445,-3.4604,-3.4811,-3.487,-3.4962,-3.5102,-3.5102,-3.5083,-3.5047,-3.4963,-3.4945,-3.4963,-3.4889,-3.481,-3.4727,-3.4727,-3.4495,-3.4173,-3.4049,-3.3815,-3.3577,-3.3422,-3.3393,-3.3393,-3.3393,-3.3393,-3.3393,-3.3393,-3.3286,-3.3178,-3.3178,-3.2894,-3.2634,-3.2634,-3.2435,-3.2317,-3.2317,-3.2162,-3.2109,-3.2109,-3.1967,-3.1913,0.0,-3.1913,-3.1913,-3.1913,-3.2419,-3.3362,-3.4813,-3.569,-3.6736,-3.8059,-3.8726,-3.9036,-3.8921,-3.8979,-3.9007,-3.9045,-3.9073,-3.9101,-3.9101,-3.9073,-3.8807,-3.8291,-3.7875,-3.7415,-3.69,-3.6492,-3.6301,-3.6259,-3.5793,-3.5299,-3.4769,-3.4284,-3.3694,-3.2973,-3.1762,-3.1057,-3.054,-2.9373,-2.878,-2.8587,-3.4186,-3.4414,-3.4605,-3.4805,-3.4808,-3.5052,-3.5897,-3.6066,-3.6629,-3.8112,-3.8338,-3.8676,-3.9526,-3.9577,-3.9483,-3.921,-3.8989,-3.8773,-3.851,-3.8322,-3.8192,-3.8192,-3.7482,-3.6653,-3.5838,-3.5059,-3.4262,-3.3393,-3.3393,-3.3509,-3.3671,-3.3698,-3.3895,-3.4293,-3.4293,-3.4409,-3.4604,-3.4792,-3.4889,-3.4889,-3.4889,-3.4791,-3.4604,-3.4583,-3.4812,-3.507,-3.4869,-3.4687,-3.4602,-3.4602,-3.4316,-3.3998,-3.3998,-3.3726,-3.3393,-3.3393,-3.3393,-3.3393,-3.3393,-3.3393,-3.3393,-3.3393,-3.3099,-3.2795,-3.2795,-3.2535,-3.2283,-3.2283,-3.2248,-3.2248,-3.2248,-3.1932,-3.1694,-3.1694,-3.1428,-3.119,-3.119,-3.119,-3.119,-3.1151,-3.1877,-3.2736,-3.3684,-3.4817,-3.5901,-3.6848,-3.8047,-3.8718,-3.8737,-3.8902,-3.8979,-3.8979,-3.9045,-3.9101,-3.9101,-3.9036,-3.8766,-3.8342,-3.7825,-3.736,-3.69,-3.6492,-3.6301,-3.6259,-3.5766,-3.5283,-3.4785,-3.4267,-3.371,-3.2989,-3.2185,-3.1362,-3.048,-2.9121,-2.8587,-2.8587,-3.755,-3.7962,-3.8252,-3.83,-3.7774,-3.7437,-3.7662,-3.8225,-3.8563,-3.8338,-3.8863,-3.9333,-3.9583,-3.9432,-3.9264,-3.921,-3.8826,-3.8572,-3.8491,-3.8322,-3.8192,-3.8192,-3.7993,-3.7232,-3.5838,-3.562,-3.4806,-3.3393,-3.3393,-3.3422,-3.3481,-3.3633,-3.3815,-3.4074,-3.4221,-3.4409,-3.4583,-3.4666,-3.4668,-3.4668,-3.4668,-3.4732,-3.4813,-3.4668,-3.4752,-3.4925,-3.4711,-3.4539,-3.4381,-3.4381,-3.4124,-3.378,-3.378,-3.3605,-3.3393,-3.3393,-3.3393,-3.3393,-3.3393,-3.3393,-3.3393,-3.3393,-3.3099,-3.2795,-3.2795,-3.2299,-3.186,-3.186,-3.1674,-3.1466,-3.1466,-3.1406,-3.1329,-3.1329,-3.1269,-3.1095,-3.074,-3.0975,-3.1055,-3.074,-3.1179,-3.1987,-3.3229,-3.388,-3.4748,-3.596,-3.6921,-3.7601,-3.789,-3.8519,-3.891,-3.8997,-3.9007,-3.9036,-3.9036,-3.9007,-3.8892,-3.8664,-3.7946,-3.7524,-3.7321,-3.6597,-3.6301,-3.6259,-3.5374,-3.4911,-3.4721,-3.3882,-3.3309,-3.2881,-3.2201,-3.1057,-2.969,-2.8881,-2.8587,-2.8587,-3.867,-3.9092,-3.957,-4.0046,-3.9614,-3.9139,-3.8901,-3.8957,-3.8976,-3.8882,-3.9183,-3.9432,-3.9432,-3.9202,-3.9017,-3.8913,-3.8646,-3.8478,-3.8368,-3.8274,-3.8192,-3.8192,-3.7848,-3.7087,-3.5838,-3.5476,-3.4661,-3.3393,-3.3393,-3.3393,-3.3393,-3.3538,-3.3671,-3.3868,-3.4074,-3.4269,-3.4473,-3.4561,-3.4602,-3.4602,-3.4602,-3.467,0.0,-3.4647,-3.467,-3.4753,-3.4647,-3.4473,-3.4293,-3.4293,-3.4023,-3.3698,-3.3698,-3.3549,-3.3393,-3.3393,-3.3393,-3.3393,-3.3393,-3.3393,-3.3393,-3.3393,-3.3006,-3.2568,-3.2568,-3.1986,-3.1487,-3.1487,-3.1329,-3.119,-3.119,-3.119,-3.119,-3.119,-3.119,-3.1055,-3.0559,-3.074,-3.0797,-3.0518,-3.074,-3.1292,-3.2262,-3.3088,-3.4056,-3.5346,-3.6389,-3.733,-3.8051,-3.8552,-3.8851,-3.891,-3.8921,-3.8968,-3.8968,-3.8939,-3.8862,-3.8792,-3.7946,-3.7524,-3.7469,-3.6678,-3.6301,-3.6259,-3.5464,-3.5021,-3.4738,-3.3984,-3.3346,-3.2788,-3.1679,-3.0719,-2.9827,-2.8944,-2.8587,-2.8587,-3.8775,-3.9176,-3.9769,-4.0712,-4.0578,-4.0188,-3.9738,-3.9015,-3.8771,-3.9408,-3.9309,-3.9156,-3.9156,-3.896,-3.8718,-3.8376,-3.8314,-3.82,-3.7917,-3.7884,-3.7884,-3.7884,-3.7214,-3.6472,-3.5675,-3.4969,-3.4208,-3.3393,-3.3393,-3.3393,-3.3393,-3.3393,-3.3509,-3.3698,-3.3895,-3.4124,-3.434,-3.4517,-3.4602,-3.4602,-3.4602,-3.4602,-3.4602,-3.4602,-3.4602,-3.4602,-3.4602,-3.445,-3.4269,-3.4269,-3.3998,-3.3643,-3.3643,-3.3549,-3.3393,-3.3393,-3.3393,-3.3393,-3.3393,-3.3364,-3.3316,-3.3316,-3.2766,-3.2214,-3.2214,-3.1711,-3.119,-3.119,-3.119,-3.119,-3.119,-3.119,-3.119,-3.1112,-3.1112,-3.0918,-3.0393,-3.0393,-3.0393,-3.0335,-3.0435,0.0,-3.1123,-3.2262,-3.3421,-3.464,-3.5852,-3.6989,-3.8083,-3.8315,-3.8486,-3.8626,-3.8685,-3.8799,-3.8881,-3.8822,-3.8792,-3.8683,-3.7895,-3.7469,-3.7395,-3.6638,-3.6301,-3.6259,-3.5705,-3.5253,-3.4785,-3.4184,-3.3555,-3.2718,-3.1233,-3.0584,-3.0343,-2.9135,-2.8651,-2.8587,-4.0434,-4.0707,-4.0977,-4.1186,-4.0619,-4.0137,-4.0036,-3.9888,-3.961,-3.9081,-3.8979,-3.895,-3.895,-3.8725,-3.8297,-3.7589,-3.7353,-3.6971,-3.6272,-3.6236,-3.6236,-3.6236,-3.6091,-3.5639,-3.4842,-3.4679,-3.4208,-3.3393,-3.3393,-3.3393,-3.3393,-3.3393,-3.3509,-3.3698,-3.3895,-3.4197,-3.4539,-3.4602,-3.4602,-3.4602,-3.4602,-3.4602,-3.4602,-3.4602,-3.4602,-3.4602,-3.4602,-3.4363,-3.4049,-3.4049,-3.3807,-3.3452,-3.3452,-3.3422,-3.3393,-3.3393,-3.3393,-3.3393,-3.3393,-3.3178,-3.2908,-3.2908,-3.2368,-3.1823,-3.1823,-3.1487,-3.119,-3.119,-3.119,-3.119,-3.119,-3.119,-3.1055,-3.0699,-3.0601,-3.0293,-2.9467,-2.9661,-2.9793,-2.9393,-3.0038,-3.0559,-3.0642,-3.1241,-3.1935,-3.2669,-3.3547,-3.4371,-3.5175,-3.5872,-3.673,-3.7779,-3.7827,-3.8158,-3.8803,-3.8822,-3.8621,-3.8201,-3.7721,-3.7321,-3.6978,-3.6533,-3.6301,-3.6259,-3.5328,-3.488,-3.4738,-3.3678,-3.3027,-3.2578,-3.1652,-3.0999,-3.0404,-2.9642,-2.9058,-2.8587,-4.0836,-4.0671,-4.0522,-4.0646,-3.989,-3.9265,-3.9265,-3.919,-3.9061,-3.8918,-3.8435,-3.807,-3.807,-3.7491,-3.6953,-3.657,-3.6427,-3.6218,-3.5838,-3.582,-3.582,-3.582,-3.5403,-3.5005,-3.4624,-3.419,-3.3791,-3.3393,-3.3393,-3.3393,-3.3393,-3.3393,-3.3452,-3.3549,-3.3753,-3.3998,-3.4293,-3.4386,-3.445,-3.445,-3.4561,-3.4602,-3.4602,-3.4602,-3.4602,-3.4602,-3.4602,-3.434,-3.3998,-3.3998,-3.3726,-3.3393,-3.3393,-3.3393,-3.3393,-3.3393,-3.3393,-3.3393,-3.3393,-3.3099,-3.2795,-3.2795,-3.2265,-3.1677,-3.1677,-3.1466,-3.119,-3.119,-3.119,-3.119,-3.119,-3.1015,-3.074,-3.0518,-3.0309,-2.9865,-2.9212,-2.9303,-2.9348,-2.912,-2.9689,-3.0225,-3.0477,-3.0942,-3.1658,-3.2632,-3.3141,-3.3846,-3.4807,-3.5395,-3.5981,-3.6583,-3.6806,-3.7114,-3.75,-3.7904,-3.7906,-3.7486,-3.7488,-3.7283,-3.69,-3.6492,-3.6301,-3.6241,-3.5237,-3.4769,-3.4738,-3.3487,-3.2827,-3.2539,-3.1781,-3.1058,-3.0389,-2.978,-2.9121,-2.8587,-4.0312,-3.9834,-3.9429,-3.9663,-3.8993,-3.8446,-3.8446,-3.8143,-3.8085,-3.8444,-3.7766,-3.7168,-3.7004,-3.6272,-3.5747,-3.5566,-3.5548,-3.5476,-3.5313,-3.5294,-3.5263,-3.5182,-3.4568,-3.4194,-3.4101,-3.3471,-3.3165,-3.3165,-3.3256,-3.3286,-3.3286,-3.3364,-3.3422,-3.3481,-3.3633,-3.3815,-3.4023,-3.4221,-3.4293,-3.4316,-3.4517,-3.4602,-3.4602,-3.4602,-3.4602,-3.4602,-3.4602,-3.434,-3.3998,-3.3998,-3.3726,-3.3393,-3.3393,-3.3393,-3.3393,-3.3393,-3.3393,-3.3393,-3.3393,-3.3068,-3.2699,-3.2699,-3.2127,-3.1582,-3.1582,-3.1389,-3.119,-3.119,-3.119,-3.119,-3.1055,-3.074,-3.0418,-3.0208,-2.9865,-2.9483,-2.8997,-2.8951,-2.8951,-2.8951,-2.9438,-2.9968,-3.0309,-3.0878,-3.1628,-3.2728,-3.2925,-3.3441,-3.4513,-3.4831,-3.5097,-3.534,-3.563,-3.5937,-3.6161,-3.6723,-3.6862,-3.6555,-3.6791,-3.6675,-3.6309,-3.5983,-3.5921,-3.6017,-3.5093,-3.4667,-3.448,-3.333,-3.2718,-3.2523,-3.1951,-3.1175,-3.045,-2.9979,-2.9324,-2.8587,-3.857,-3.837,-3.8368,-3.8383,-3.8295,-3.8225,-3.8225,-3.7591,-3.712,-3.7185,-3.708,-3.6739,-3.6014,-3.5856,-3.553,-3.4787,-3.4715,-3.4407,-3.3665,-3.3628,-3.3473,-3.3091,-3.3019,-3.2823,-3.2525,-3.2454,-3.2419,-3.2419,-3.2716,-3.2876,-3.2876,-3.3208,-3.3509,-3.3671,-3.3698,-3.3815,-3.4023,-3.4221,-3.4293,-3.4316,-3.4517,-3.4602,-3.4602,-3.4602,-3.4602,-3.4602,-3.4602,-3.434,-3.3998,-3.3998,-3.3726,-3.3393,-3.3393,-3.3393,-3.3393,-3.3393,-3.3393,-3.3393,-3.3393,-3.288,-3.2351,-3.2351,-3.1804,-3.1269,-3.1269,-3.123,-3.119,-3.119,-3.119,-3.1055,-3.0642,-3.0518,-3.0208,-2.9393,-2.9212,-2.8997,-2.8525,-2.8444,-2.8444,-2.8444,-2.9243,-2.9793,-2.9837,-3.0675,-3.1286,-3.1457,-3.1585,-3.1921,-3.2459,-3.2563,-3.3101,-3.4145,-3.4196,-3.4699,-3.5768,-3.5522,-3.5411,-3.5345,-3.5084,-3.4751,-3.4362,-3.4323,-3.4663,-3.526,-3.4669,-3.4154,-3.3649,-3.2926,-3.2523,-3.2398,-3.2342,-3.1564,-3.0524,-3.0464,-2.9685,-2.8587,-3.7918,-3.7846,-3.7846,-3.7846,-3.7934,-3.8003,-3.8003,-3.7352,-3.6648,-3.6161,-3.5774,-3.5439,-3.5113,-3.4661,-3.4244,-3.3918,-3.3882,-3.3737,-3.3429,-3.3393,-3.3334,-3.3178,-3.2939,-3.2731,-3.2601,-3.2401,-3.2317,-3.2317,-3.2634,-3.2795,-3.2795,-3.3208,-3.3452,-3.352,-3.352,-3.3549,-3.3643,-3.3842,-3.3947,-3.3947,-3.4173,-3.4316,-3.4427,-3.4427,-3.4427,-3.4427,-3.4427,-3.4245,-3.3972,-3.3842,-3.3615,-3.3393,-3.3393,-3.3393,-3.3393,-3.3393,-3.3393,-3.3393,-3.3393,-3.288,-3.2317,-3.2317,-3.1748,-3.119,-3.119,-3.119,-3.119,-3.119,-3.119,-3.1055,-3.0601,-3.0267,-2.9881,-2.9212,-2.8873,-2.8605,-2.846,-2.8411,-2.8411,-2.8411,-2.8967,-2.9483,-2.975,-3.0393,-3.0918,-3.1213,-3.1329,-3.1504,-3.1821,-3.2109,-3.2458,-3.2945,-3.3179,-3.3484,-3.3948,-3.4303,-3.4353,-3.4129,-3.4516,-3.4484,-3.4093,-3.4093,-3.3932,-3.3564,-3.3372,-3.2702,-3.1824,-3.1949,-3.1689,-3.1319,-3.1728,-3.1043,-2.9889,-2.9889,-2.9359,-2.8587,-3.7577,-3.7577,-3.7577,-3.7577,-3.7703,-3.7739,-3.7505,-3.6787,-3.5962,-3.5172,-3.4497,-3.4122,-3.4135,-3.3707,-3.3393,-3.3393,-3.3334,-3.3334,-3.3411,-3.3334,-3.3304,-3.3226,-3.2862,-3.2601,-3.2502,-3.2144,-3.1985,-3.1985,-3.2299,-3.2468,-3.2502,-3.3006,-3.3286,-3.3393,-3.3393,-3.3393,-3.3393,-3.3587,-3.3698,-3.3726,-3.3921,-3.4124,-3.4293,-3.4221,-3.4245,-3.4293,-3.4221,-3.4074,-3.3895,-3.3753,-3.3577,-3.3393,-3.3393,-3.3393,-3.3393,-3.3393,-3.3393,-3.3364,-3.3256,-3.2766,-3.2283,-3.2127,-3.1674,-3.119,-3.119,-3.119,-3.1151,-3.1015,-3.0998,-3.0797,-3.0208,-2.9837,-2.9438,-2.8951,-2.8621,-2.8411,-2.8411,-2.8411,-2.8411,-2.8411,-2.8826,-2.9212,-2.9572,-3.0123,-3.0658,-3.0998,-3.1196,-3.1389,-3.1559,-3.1875,-3.2073,-3.2161,-3.2403,-3.2553,-3.2651,-3.3135,-3.3247,-3.309,-3.3596,-3.3691,-3.3421,-3.347,-3.3117,-3.2359,-3.2216,-3.1678,-3.0822,-3.0957,-3.0715,-3.0253,-3.0547,-3.0119,-2.9251,-2.9251,-2.8955,-2.8587,-3.7577,-3.7577,-3.7577,-3.7577,-3.7577,-3.7327,-3.6542,-3.5739,-3.4954,-3.422,-3.3416,-3.2948,-3.3104,-3.3304,-3.3393,-3.3393,-3.3226,-3.3196,-3.3411,-3.3226,-3.3006,-3.2813,-3.2468,-3.2109,-3.1714,-3.1389,-3.123,-3.123,-3.1562,-3.1714,-3.1714,-3.2451,-3.3019,-3.3393,-3.3393,-3.3393,-3.3393,-3.3587,-3.3698,-3.3726,-3.3921,-3.4124,-3.4269,-3.4074,-3.4124,-3.4269,-3.4074,-3.3868,-3.3698,-3.3698,-3.3577,-3.3393,-3.3393,-3.3393,-3.3393,-3.3393,-3.3393,-3.3316,-3.2908,-3.2568,-3.2196,-3.1823,-3.1449,-3.119,-3.119,-3.119,-3.1055,-3.0601,-3.0518,-3.0208,-2.9303,-2.912,-2.8951,-2.8493,-2.8396,-2.8411,-2.8411,-2.8411,-2.8411,-2.8411,-2.8826,-2.9074,-2.912,-2.9951,-3.0518,-3.0584,-3.1044,-3.1351,-3.1517,-3.1559,-3.1671,-3.18,-3.18,-3.1948,-3.2318,-3.2001,-3.2001,-3.2301,-3.1982,-3.1817,-3.1852,-3.2038,-3.2117,-3.2068,-3.1637,-3.1405,-3.1307,-3.0105,-2.9604,-2.9535,-2.8943,-2.8713,-2.8707,-2.8707,-2.8685,-2.8587,-3.6851,-3.7048,-3.7164,-3.7164,-3.6874,-3.6486,-3.6238,-3.5084,-3.416,-3.393,-3.3184,-3.2705,-3.2752,-3.3024,-3.3196,-3.3196,-3.3256,-3.3226,-3.2988,-3.2925,-3.2781,-3.2468,-3.2092,-3.1823,-3.1714,-3.1351,-3.119,-3.119,-3.1524,-3.1823,-3.2092,-3.2334,-3.2651,-3.2988,-3.2988,-3.3129,-3.3393,-3.3481,-3.3509,-3.3509,-3.3577,-3.3698,-3.3868,-3.3815,-3.386,-3.3868,-3.3815,-3.3753,-3.3671,-3.3549,-3.3549,-3.3577,-3.3452,-3.3393,-3.3393,-3.3393,-3.3393,-3.3316,-3.2908,-3.2535,-3.2196,-3.1787,-3.1449,-3.119,-3.119,-3.119,-3.1151,-3.1015,-3.074,-3.0293,-2.9705,-2.9303,-2.8951,-2.8493,-2.8411,-2.8411,-2.8411,-2.8411,-2.8411,-2.8411,-2.8525,-2.8748,-2.909,-2.9661,-3.0166,-3.0518,-3.0958,-3.1329,-3.1559,-3.1579,-3.1671,-3.18,-3.18,-3.1856,-3.1965,-3.1856,-3.1856,-3.1965,-3.1524,-3.1123,-3.0764,-3.0833,-3.0622,-3.0085,-2.9982,-2.969,-2.9337,-2.9046,-2.8634,-2.8247,-2.8111,-2.7788,-2.7385,-2.7385,-2.74,-2.7447,-3.6162,-3.6204,-3.6127,-3.6127,-3.5819,-3.5453,-3.517,-3.4306,-3.3582,-3.33,-3.2841,-3.2523,-3.2523,-3.277,-3.2961,-3.3024,-3.3073,-3.2975,-3.2666,-3.2619,-3.2453,-3.2214,-3.1806,-3.1603,-3.1603,-3.1274,-3.1112,-3.1112,-3.1389,-3.1694,-3.2056,-3.2056,-3.2334,-3.2795,-3.2795,-3.3019,-3.3393,-3.3393,-3.3393,-3.3393,-3.3393,-3.352,-3.3698,-3.3633,-3.3615,-3.3698,-3.3587,-3.3577,-3.3577,-3.3452,-3.3481,-3.3577,-3.3452,-3.3393,-3.3393,-3.3393,-3.3334,-3.3196,-3.2749,-3.2468,-3.2179,-3.1657,-3.1351,-3.119,-3.119,-3.0914,-3.0687,-3.0683,-3.0309,-2.9821,-2.9364,-2.9044,-2.8748,-2.8444,-2.8411,-2.8411,-2.8411,-2.8411,-2.8411,-2.8411,-2.8411,-2.8541,-2.8826,-2.9409,-2.9881,-2.9978,-3.0601,-3.0982,-3.101,-3.1317,-3.1559,-3.1688,-3.1688,-3.1688,-3.1688,-3.1688,-3.1688,-3.1709,-3.124,-3.073,-3.0234,-2.9978,-2.9645,-2.9196,-2.8982,-2.87,-2.8378,-2.8045,-2.7621,-2.7238,-2.6863,-2.6607,-2.647,-2.647,-2.6619,-2.6877,-3.5469,-3.5179,-3.4688,-3.4688,-3.4635,-3.4354,-3.3599,-3.3441,-3.3196,-3.2493,-3.2406,-3.2406,-3.2406,-3.2489,-3.2639,-3.282,-3.2705,-3.2555,-3.2385,-3.2266,-3.2091,-3.1967,-3.1585,-3.1359,-3.1359,-3.114,-3.1015,-3.1015,-3.1151,-3.1351,-3.1657,-3.1657,-3.2056,-3.2763,-3.2763,-3.2988,-3.3393,-3.3393,-3.3393,-3.3393,-3.3393,-3.3491,-3.3643,-3.3481,-3.3538,-3.3643,-3.3481,-3.3393,-3.3393,-3.3393,-3.3393,-3.3393,-3.3393,-3.3393,-3.3364,-3.3411,-3.3256,-3.2975,-3.2453,-3.2283,-3.2074,-3.1368,-3.119,-3.119,-3.119,-3.049,-2.9814,-2.9843,-2.9438,-2.8951,-2.8541,-2.8396,-2.8411,-2.8411,-2.8411,-2.8411,-2.8411,-2.8411,-2.8411,-2.8411,-2.8411,-2.8411,-2.8411,-2.9227,-2.9617,-2.9241,-3.0021,-3.0402,-3.0091,-3.0788,-3.1274,-3.144,-3.1423,-3.1423,-3.1423,-3.1479,-3.15,-3.1487,-3.101,-3.0517,-3.0005,-2.9406,-2.915,-2.9104,-2.8621,-2.8396,-2.8235,-2.7159,-2.6678,-2.652,-2.5425,-2.5344,-2.5833,-2.5833,-2.6199,-2.6701,-3.4497,-3.4623,-3.4688,-3.4688,-3.4179,-3.3722,-3.3511,-3.3038,-3.2599,-3.2423,-3.2406,-3.2406,-3.2406,-3.2422,-3.2353,-3.2144,-3.2573,-3.2705,-3.2352,-3.2109,-3.1821,-3.147,-3.1196,-3.1038,-3.1078,-3.1055,-3.1055,-3.1151,-3.119,-3.123,-3.1329,-3.1329,-3.1694,-3.2419,-3.2419,-3.2798,-3.3393,-3.3393,-3.3393,-3.3393,-3.3393,-3.3422,-3.3481,-3.3422,-3.3422,-3.3452,-3.3422,-3.3393,-3.3393,-3.3393,-3.3393,-3.3393,-3.3393,-3.3286,-3.3196,-3.3364,-3.3147,-3.2781,-3.2401,-3.2074,-3.1731,-3.1291,-3.119,-3.119,-3.119,-3.049,-2.9881,-3.0145,-2.9597,-2.909,-2.8951,-2.8653,-2.8411,-2.8411,-2.8411,-2.8411,-2.8411,-2.8411,-2.8411,-2.8411,-2.8411,-2.8411,-2.8411,-2.892,-2.9212,-2.912,-2.9645,-2.9951,-2.9881,-3.0038,-3.0377,-3.0942,-3.0982,-3.0982,-3.0982,-3.1329,-3.1173,-3.046,-2.9962,-2.9496,-2.8951,-2.8826,-2.87,-2.8573,-2.8444,-2.8122,-2.768,-2.699,-2.6428,-2.6042,-2.5272,-2.51,-2.5208,-2.5208,-2.5303,-2.5507,-3.3567,-3.3661,-3.3599,-3.3473,-3.3195,-3.3003,-3.3003,-3.2669,-3.2406,-3.2406,-3.2267,-3.2179,-3.2179,-3.2037,-3.1929,-3.1728,-3.2144,-3.2249,-3.1748,-3.1562,-3.1334,-3.1038,-3.0895,-3.0855,-3.0952,-3.0975,-3.1072,-3.119,-3.119,-3.119,-3.119,-3.119,-3.1504,-3.2039,-3.2039,-3.2453,-3.3129,-3.3129,-3.3178,-3.3256,-3.3256,-3.3244,-3.3165,-3.3165,-3.3165,-3.3165,-3.3165,-3.3165,-3.3165,-3.3165,-3.3165,-3.3165,-3.3165,-3.3104,-3.3042,-3.3135,-3.2961,-3.2669,-3.2385,-3.2003,-3.162,-3.1291,-3.119,-3.119,-3.119,-3.0289,-2.9486,-2.9575,-2.8844,-2.8097,-2.7887,-2.7643,-2.758,-2.7888,-2.7934,-2.8057,-2.8365,-2.8411,-2.8411,-2.8411,-2.8411,-2.8411,-2.8411,-2.8826,-2.8997,-2.8795,-2.9212,-2.9409,-2.9182,-2.9152,-2.9617,-3.0642,-3.0683,-3.0683,-3.0683,-3.0707,-3.0377,-2.9645,-2.9422,-2.9028,-2.8493,-2.8493,-2.8444,-2.8396,-2.8122,-2.7795,-2.7464,-2.664,-2.6136,-2.5839,-2.523,-2.5005,-2.5005,-2.5005,-2.5005,-2.5059,-3.2665,-3.2543,-3.2161,-3.1912,-3.2108,-3.2319,-3.2319,-3.2354,-3.2388,-3.2319,-3.2073,-3.1894,-3.1821,-3.1654,-3.1483,-3.1445,-3.1637,-3.1562,-3.1095,-3.1055,-3.0935,-3.0733,-3.0692,-3.0733,-3.0912,-3.0992,-3.1072,-3.1151,-3.1151,-3.1151,-3.119,-3.119,-3.1389,-3.1677,-3.1677,-3.2092,-3.2781,-3.2781,-3.2894,-3.3055,-3.3055,-3.2993,-3.2916,-3.2916,-3.2916,-3.2916,-3.2916,-3.2916,-3.2916,-3.2916,-3.2916,-3.2916,-3.2916,-3.2884,-3.2834,-3.2834,-3.2672,-3.242,-3.2283,-3.1967,-3.1562,-3.1252,-3.1033,-3.0819,-3.0695,-2.9563,-2.8519,-2.853,-2.7689,-2.6792,-2.647,-2.638,-2.6565,-2.7149,-2.7242,-2.7442,-2.8011,-2.8181,-2.8258,-2.8258,-2.835,-2.8411,-2.8411,-2.8732,-2.8826,-2.8444,-2.8795,-2.8826,-2.8396,-2.8411,-2.8967,-3.0251,-3.0293,-3.0293,-3.0393,-2.9935,-2.9496,-2.9074,-2.9074,-2.8858,-2.8411,-2.8411,-2.8348,-2.8235,-2.773,-2.7414,-2.721,-2.6297,-2.5839,-2.5729,-2.5174,-2.5005,-2.5005,-2.5005,-2.5005,-2.4948,-3.1658,-3.1703,-3.1617,-3.1579,-3.1802,-3.1984,-3.1984,-3.2232,-3.2319,-3.202,-3.193,-3.1821,-3.1579,-3.1504,-3.1406,-3.1095,-3.1134,-3.1196,-3.1389,-3.1252,-3.1112,-3.0975,-3.0692,-3.0651,-3.0912,-3.0992,-3.1015,-3.1015,-3.1015,-3.1015,-3.1015,-3.1151,-3.1389,-3.1677,-3.1677,-3.2039,-3.2621,-3.2621,-3.277,-3.2948,-3.2948,-3.2916,-3.2916,-3.2916,-3.2916,-3.2916,-3.2916,-3.2916,-3.2916,-3.2916,-3.2916,-3.2916,-3.2916,-3.2687,-3.2504,-3.2504,-3.2144,-3.1787,-3.2003,-3.1657,-3.1269,-3.123,-3.0202,-2.9079,-2.8474,-2.7226,-2.6414,-2.7179,-2.6898,-2.647,-2.6425,-2.638,-2.6411,-2.6472,-2.6518,-2.6565,-2.6641,-2.7165,-2.755,-2.755,-2.8057,-2.8411,-2.8411,-2.8444,-2.8493,-2.8411,-2.8493,-2.8493,-2.8396,-2.8411,-2.8653,-2.9303,-2.9303,-2.9528,-2.9924,-2.9044,-2.8779,-2.909,-2.87,-2.8493,-2.8411,-2.8411,-2.8122,-2.763,-2.7515,-2.7004,-2.615,-2.5948,-2.5619,-2.5118,-2.5061,-2.5005,-2.5005,-2.5005,-2.4948,-2.4778,-3.1213,-3.1368,-3.1428,-3.1252,-3.1466,-3.1711,-3.1858,-3.202,-3.2144,-3.2179,-3.1875,-3.1654,-3.1504,-3.1196,-3.0878,-3.0716,-3.0814,-3.0895,-3.0958,-3.0878,-3.0814,-3.0855,-3.0692,-3.0692,-3.0912,-3.0992,-3.1015,-3.1015,-3.1055,-3.1112,-3.1112,-3.1112,-3.1157,-3.1334,-3.1449,-3.1768,-3.2214,-3.2386,-3.2555,-3.2737,-3.2737,-3.269,-3.2641,-3.2641,-3.2641,-3.2641,-3.2641,-3.2641,-3.2641,-3.2641,-3.2641,-3.2641,-3.2641,-3.2523,-3.2299,-3.1707,-3.1583,-3.1497,-3.1082,-3.0641,-3.0437,-3.1028,-3.0029,-2.8378,-2.6357,-2.5648,-2.5579,-2.635,-2.6026,-2.5539,-2.5315,-2.5272,-2.5379,-2.5733,-2.5574,-2.5651,-2.6258,-2.6382,-2.6534,-2.6842,-2.7134,-2.7319,-2.7319,-2.7642,-2.7857,-2.7857,-2.8211,-2.8411,-2.8411,-2.8411,-2.8493,-2.87,-2.8951,-2.9212,-2.9438,-2.8748,-2.8493,-2.87,-2.8493,-2.8235,-2.791,-2.791,-2.763,-2.7041,-2.6745,-2.6351,-2.5893,-2.5564,-2.523,-2.5005,-2.5005,-2.5005,-2.5005,-2.5005,-2.4708,-2.4292,-3.0895,-3.1078,-3.1196,-3.1015,-3.1213,-3.1504,-3.1858,-3.1894,-3.1984,-3.2161,-3.1783,-3.1428,-3.1274,-3.0797,-3.0526,-3.0526,-3.0609,-3.0543,-3.0261,-3.0261,-3.0385,-3.0634,-3.0692,-3.0733,-3.0871,-3.0895,-3.0935,-3.0935,-3.1015,-3.1072,-3.1072,-3.1032,-3.0992,-3.0975,-3.1179,-3.1487,-3.1858,-3.2144,-3.237,-3.2539,-3.2539,-3.2507,-3.2371,-3.2195,-3.2125,-3.209,-3.1932,-3.1861,-3.1861,-3.1861,-3.1861,-3.1861,-3.1861,-3.1776,-3.1498,-3.0664,-3.064,-3.0725,-2.9989,-2.9554,-2.951,-3.0224,-2.9381,-2.7639,-2.4918,-2.4603,-2.5052,-2.5491,-2.5161,-2.4679,-2.4343,-2.4302,-2.4471,-2.4995,-2.4667,-2.4672,-2.5633,-2.5439,-2.5392,-2.5939,-2.6137,-2.6274,-2.638,-2.6857,-2.7165,-2.7165,-2.7642,-2.7919,-2.7919,-2.7934,-2.7934,-2.7919,-2.8576,-2.8967,-2.8967,-2.8573,-2.8348,-2.8186,-2.8186,-2.786,-2.7297,-2.7297,-2.7004,-2.6481,-2.6096,-2.5839,-2.5674,-2.5174,-2.5005,-2.5005,-2.5005,-2.4948,-2.4835,-2.4835,-2.435,-2.3695,-3.0526,-3.0568,-3.0675,-3.0935,-3.1015,-3.1235,-3.1821,-3.1894,-3.1821,-3.1596,-3.1521,-3.1274,-3.0634,-3.051,-3.0526,-3.0526,-3.0526,-3.0228,-2.9549,-2.9499,-2.9798,-3.0493,-3.0651,-3.0692,-3.0692,-3.0733,-3.0733,-3.0733,-3.0733,-3.0733,-3.0733,-3.0871,-3.0912,-3.0912,-3.1196,-3.1411,-3.1654,-3.1948,-3.2232,-3.2422,-3.2422,-3.2388,-3.2318,-3.1563,-3.1282,-3.1194,-3.051,-3.0282,-3.0282,-3.0282,-3.0282,-3.0282,-3.0282,-2.99,-2.9435,-2.9332,-2.9042,-2.8736,-2.8779,-2.8837,-2.8716,-2.8184,-2.741,-2.6333,-2.4677,-2.4323,-2.4359,-2.4421,-2.4374,-2.4343,-2.4302,-2.4302,-2.4317,-2.4379,-2.3985,-2.3684,-2.3788,-2.3954,-2.4185,-2.4702,-2.5288,-2.5863,-2.6335,-2.6426,-2.6457,-2.6457,-2.6472,-2.6427,-2.6427,-2.6518,-2.6518,-2.6442,-2.7766,-2.8444,-2.8444,-2.8396,-2.8122,-2.7565,-2.7565,-2.7312,-2.6782,-2.6782,-2.6496,-2.5948,-2.5893,-2.5564,-2.5061,-2.5005,-2.5005,-2.5005,-2.5005,-2.4708,-2.435,-2.435,-2.3956,-2.3403,-3.0526,-3.0692,-3.0855,-3.0975,-3.1173,-3.1428,-3.1821,-3.1765,-3.1691,-3.1765,-3.1428,-3.1078,-3.0855,-3.0235,-2.9831,-2.9831,-2.945,-2.9069,-2.8787,-2.8771,-2.8903,-2.9185,-2.9241,-2.9281,-2.9281,-2.9303,-2.9343,-2.9343,-2.9421,-2.9477,-2.9477,-2.9438,-2.9421,-2.9421,-2.9807,-3.0029,-3.0137,-3.0629,-3.09,-3.0984,-3.0984,-3.0984,-3.0949,-3.0633,-3.0527,-3.0475,-3.0211,-3.0106,-3.0106,-3.0106,-3.0106,-3.0106,-3.0106,-2.981,-2.9351,-2.8595,-2.7872,-2.7234,-2.7072,-2.7201,-2.7317,-2.7147,-2.6128,-2.5026,-2.4427,-2.4287,-2.4302,-2.4302,-2.4302,-2.4219,-2.3909,-2.3867,-2.3782,-2.3465,-2.3024,-2.2844,-2.3113,-2.3228,-2.3465,-2.3925,-2.4457,-2.4856,-2.5102,-2.5472,-2.5718,-2.5718,-2.6118,-2.6364,-2.6364,-2.638,-2.638,-2.6364,-2.6872,-2.7149,-2.7149,-2.6839,-2.6572,-2.6303,-2.6012,-2.5806,-2.5645,-2.5645,-2.554,-2.5342,-2.5342,-2.523,-2.5005,-2.4708,-2.4593,-2.4536,-2.4234,-2.3872,-2.3564,-2.3813,-2.328,-2.2519,-3.0757,-3.0838,-3.0935,-3.1235,-3.1312,-3.1504,-3.1984,-3.1595,-3.131,-3.142,-3.0865,-3.0347,-3.0208,-2.952,-2.9085,-2.9085,-2.8655,-2.8312,-2.808,-2.7827,-2.798,-2.8583,-2.8478,-2.8323,-2.8169,-2.8345,-2.8489,-2.8489,-2.8565,-2.8603,-2.8603,-2.8527,-2.8489,-2.8489,-2.8887,-2.9051,-2.9104,-2.9626,-2.9894,-2.9959,-2.9959,-3.0024,-3.0071,-2.9825,-2.972,-2.9702,-2.9439,-2.9288,-2.9257,-2.932,-2.9257,-2.9129,-2.9243,-2.9032,-2.8545,-2.762,-2.6905,-2.6329,-2.601,-2.607,-2.6225,-2.6208,-2.539,-2.4517,-2.434,-2.4287,-2.4302,-2.4302,-2.4302,-2.4177,-2.3696,-2.3595,-2.3465,-2.2979,-2.2495,-2.231,-2.2618,-2.2526,-2.2603,-2.3113,-2.3421,-2.3782,-2.4036,-2.4506,-2.4823,-2.4952,-2.5456,-2.5689,-2.5542,-2.5497,-2.5497,-2.5497,-2.5363,-2.5363,-2.5497,-2.556,-2.5461,-2.5129,-2.4791,-2.4576,-2.4434,-2.4434,-2.4419,-2.4449,-2.4449,-2.4446,-2.4496,-2.4142,-2.4063,-2.406,-2.3754,-2.3399,-2.3053,-2.3292,-2.2811,-2.2087,-3.1351,-3.0958,-3.0781,-3.1731,-3.1411,-3.1312,-3.2232,-3.1446,-3.068,-3.0446,-2.9689,-2.8996,-2.845,-2.8373,-2.8412,-2.8412,-2.8412,-2.808,-2.735,-2.6601,-2.7035,-2.8982,-2.8616,-2.8136,-2.7602,-2.8136,-2.8395,-2.8395,-2.8395,-2.8395,-2.8395,-2.8395,-2.8395,-2.8395,-2.8665,-2.8797,-2.8797,-2.914,-2.9438,-2.9693,-2.9693,-2.9843,-3.0001,-2.9193,-2.8895,-2.8789,-2.7982,-2.7569,-2.7434,-2.7642,-2.74,-2.7038,-2.731,-2.7023,-2.6554,-2.6274,-2.622,-2.6132,-2.5791,-2.5643,-2.5509,-2.5179,-2.5108,-2.4934,-2.4441,-2.4302,-2.4302,-2.4317,-2.4302,-2.4135,-2.3681,-2.3595,-2.3421,-2.2979,-2.2495,-2.2184,-2.2184,-2.1746,-2.1616,-2.2137,-2.2231,-2.2572,-2.3508,-2.3595,-2.3782,-2.4261,-2.4302,-2.4094,-2.3638,-2.3595,-2.3595,-2.3595,-2.3157,-2.3113,-2.3595,-2.4896,-2.5066,-2.4098,-2.4098,-2.3756,-2.3175,-2.3175,-2.3189,-2.3189,-2.3189,-2.3286,-2.3365,-2.3365,-2.3467,-2.3564,-2.3564,-2.328,-2.2896,-2.2909,-2.2604,-2.2197,-3.1038,-3.0734,-3.0513,-3.1044,-3.0699,-3.0455,-3.0758,-3.0144,-2.9659,-2.9553,-2.9003,-2.8586,-2.8412,-2.7964,-2.7649,-2.7649,-2.7147,-2.6766,-2.6535,-2.6336,-2.6452,-2.7018,-2.6916,-2.6763,-2.6611,-2.6763,-2.6866,-2.6866,-2.6866,-2.6866,-2.6866,-2.6866,-2.6866,-2.6866,-2.7121,-2.7262,-2.7297,-2.7555,-2.7855,-2.8097,-2.8097,-2.8206,-2.8386,-2.814,-2.8052,-2.8017,-2.7789,-2.7569,-2.7404,-2.7465,-2.7261,-2.6973,-2.6859,-2.6759,-2.6572,-2.6099,-2.6043,-2.5901,-2.5307,-2.5249,-2.5353,-2.5386,-2.4963,-2.4498,-2.4359,-2.4302,-2.4219,-2.3867,-2.3824,-2.3551,-2.2754,-2.2632,-2.2434,-2.1921,-2.1746,-2.1664,-2.1664,-2.1793,-2.2123,-2.2618,-2.2663,-2.3068,-2.3994,-2.3782,-2.3782,-2.4261,-2.3994,-2.3739,-2.3595,-2.329,-2.3421,-2.4078,-2.3334,-2.2979,-2.3113,-2.3175,-2.3051,-2.278,-2.2394,-2.2319,-2.259,-2.259,-2.2821,-2.3175,-2.2897,-2.2777,-2.2773,-2.2155,-2.1964,-2.1945,-2.1626,-2.152,-2.1548,-2.1741,-2.1861,-2.1851,-3.052,-3.0202,-2.9949,-3.0455,-3.019,-2.9959,-3.0074,-2.9433,-2.8905,-2.8784,-2.814,-2.7661,-2.7528,-2.7114,-2.6849,-2.6849,-2.6468,-2.622,-2.622,-2.622,-2.622,-2.622,-2.622,-2.622,-2.622,-2.6195,-2.6195,-2.622,-2.622,-2.622,-2.622,-2.622,-2.622,-2.622,-2.638,-2.645,-2.645,-2.6725,-2.699,-2.723,-2.7373,-2.7509,-2.7701,-2.7701,-2.7701,-2.7701,-2.7612,-2.7448,-2.723,-2.723,-2.7038,-2.6792,-2.6554,-2.6468,-2.6452,-2.6115,-2.5917,-2.5684,-2.5059,-2.5076,-2.513,-2.4937,-2.4585,-2.4261,-2.4006,-2.3979,-2.3909,-2.3421,-2.3334,-2.3113,-2.2356,-2.2184,-2.2044,-2.1471,-2.1423,-2.1423,-2.1423,-2.1664,-2.1983,-2.2296,-2.2296,-2.2603,-2.3377,-2.3201,-2.3246,-2.3724,-2.3465,-2.3246,-2.3068,-2.2754,-2.2889,-2.3465,-2.2694,-2.2388,-2.2632,-2.2123,-2.1888,-2.1888,-2.1568,-2.1613,-2.1952,-2.1952,-2.2156,-2.2471,-2.2085,-2.1904,-2.1901,-2.1251,-2.0989,-2.0974,-2.0725,-2.0628,-2.0653,-2.0855,-2.0925,-2.093,-2.9843,-2.9437,-2.9196,-2.9854,-2.9636,-2.9485,-2.9782,-2.896,-2.8247,-2.8015,-2.7148,-2.6485,-2.6256,-2.622,-2.622,-2.622,-2.6168,-2.6132,-2.6132,-2.6132,-2.6165,-2.6214,-2.6181,-2.6201,-2.6201,-2.6143,-2.6163,-2.622,-2.6168,-2.6168,-2.622,-2.622,-2.622,-2.622,-2.622,-2.622,-2.622,-2.645,-2.6725,-2.7038,-2.7279,-2.7478,-2.7672,-2.7701,-2.7654,-2.7612,-2.7465,-2.7198,-2.6973,-2.694,-2.6759,-2.652,-2.6291,-2.622,-2.6168,-2.6168,-2.5828,-2.5389,-2.4981,-2.4923,-2.4813,-2.4056,-2.399,-2.3948,-2.3462,-2.3463,-2.3421,-2.2934,-2.2844,-2.2663,-2.2217,-2.2137,-2.1996,-2.1471,-2.1423,-2.1423,-2.1423,-2.1423,-2.1423,-2.1471,-2.1423,-2.1616,-2.2231,-2.2263,-2.2402,-2.2799,-2.2844,-2.2663,-2.2217,-2.2137,-2.2184,-2.2263,-2.1712,-2.1664,-2.2184,-2.1664,-2.1423,-2.1423,-2.1423,-2.1423,-2.1423,-2.1423,-2.1375,-2.1313,-2.0908,-2.0758,-2.083,-2.0349,-2.0275,-2.0351,-2.0351,-2.0272,-2.0076,-2.0076,-1.9913,-1.9701,-2.9246,-2.8628,-2.8202,-2.8741,-2.8159,-2.76,-2.7665,-2.7316,-2.7013,-2.6928,-2.6534,-2.6239,-2.622,-2.622,-2.622,-2.622,-2.5848,-2.5631,-2.5631,-2.5631,-2.5821,-2.616,-2.6211,-2.6208,-2.6208,-2.5745,-2.5721,-2.622,-2.5811,-2.5848,-2.622,-2.622,-2.622,-2.622,-2.622,-2.622,-2.6203,-2.6239,-2.6555,-2.7006,-2.707,-2.723,-2.7478,-2.7642,-2.7461,-2.7181,-2.7341,-2.7087,-2.6674,-2.6434,-2.6329,-2.6291,-2.622,-2.622,-2.6132,-2.5881,-2.5513,-2.513,-2.4775,-2.4032,-2.3362,-2.3187,-2.276,-2.2523,-2.2921,-2.3009,-2.2934,-2.2449,-2.2356,-2.217,-2.1664,-2.1568,-2.1568,-2.1423,-2.1423,-2.1423,-2.1423,-2.1423,-2.1568,-2.1996,-2.1664,-2.1746,-2.2663,-2.2754,-2.2632,-2.2356,-2.2356,-2.2324,-2.2231,-2.1793,-2.1921,-2.2709,-2.1874,-2.1664,-2.2184,-2.1664,-2.1423,-2.1423,-2.1423,-2.1423,-2.1423,-2.1423,-2.1215,-2.0908,-2.0308,-1.9861,-1.9515,-1.8887,-1.8643,-1.8638,-1.8638,-1.8881,-1.9171,-1.9171,-1.9425,-1.9584,-2.8066,-2.7726,-2.7453,-2.7751,-2.736,-2.7006,-2.7006,-2.6759,-2.6606,-2.6606,-2.638,-2.622,-2.622,-2.622,-2.6115,-2.5901,-2.5481,-2.5198,-2.5198,-2.5317,-2.5641,-2.6183,-2.6205,-2.6188,-2.6184,-2.5901,-2.5873,-2.622,-2.5937,-2.5954,-2.622,-2.622,-2.622,-2.622,-2.622,-2.622,-2.622,-2.6345,-2.6537,-2.6825,-2.694,-2.707,-2.723,-2.7338,-2.7213,-2.7006,-2.7023,-2.6775,-2.638,-2.6256,-2.622,-2.622,-2.622,-2.6043,-2.5811,-2.5647,-2.5192,-2.467,-2.4508,-2.3634,-2.2701,-2.2405,-2.1847,-2.1522,-2.1992,-2.2303,-2.2356,-2.1888,-2.1793,-2.1746,-2.1471,-2.1423,-2.1423,-2.1423,-2.1423,-2.1423,-2.1423,-2.1423,-2.152,-2.1793,-2.1568,-2.1602,-2.2109,-2.2203,-2.2063,-2.1841,-2.1793,-2.1793,-2.1793,-2.1568,-2.165,-2.2156,-2.165,-2.152,-2.1793,-2.1568,-2.1423,-2.1423,-2.1423,-2.1423,-2.1375,-2.1215,-2.0908,-2.056,-1.985,-1.9319,-1.8898,-1.8344,-1.8084,-1.8084,-1.8084,-1.8189,-1.8317,-1.8317,-1.8306,-1.8137,-2.6892,-2.6875,-2.6875,-2.6908,-2.6875,-2.6842,-2.6842,-2.6657,-2.6554,-2.6554,-2.6345,-2.622,-2.622,-2.6132,-2.5901,-2.554,-2.5059,-2.4799,-2.4799,-2.5021,-2.533,-2.5722,-2.6027,-2.6113,-2.5914,-2.5945,-2.602,-2.6079,-2.6007,-2.6007,-2.6079,-2.6079,-2.6132,-2.622,-2.622,-2.622,-2.6203,-2.645,-2.6554,-2.6606,-2.6859,-2.694,-2.694,-2.6973,-2.694,-2.6842,-2.6674,-2.6415,-2.622,-2.622,-2.6132,-2.6079,-2.6079,-2.5775,-2.5389,-2.5389,-2.4863,-2.4261,-2.4204,-2.3347,-2.2369,-2.1811,-2.1233,-2.0946,-2.1097,-2.1547,-2.1746,-2.1423,-2.1375,-2.1423,-2.1423,-2.1423,-2.1423,-2.1423,-2.1423,-2.1423,-2.1423,-2.1423,-2.1423,-2.1423,-2.1423,-2.1423,-2.1423,-2.1423,-2.1423,-2.1423,-2.1423,-2.1423,-2.1423,-2.1423,-2.1423,-2.1423,-2.1423,-2.1423,-2.1423,-2.1423,-2.1423,-2.1423,-2.1313,-2.1326,-2.1264,-2.0957,-2.061,-2.022,-1.9436,-1.8951,-1.8673,-1.8182,-1.7975,-1.803,-1.7975,-1.7822,-1.7601,-1.7534,-1.7022,-1.6337,-2.6606,-2.6468,-2.638,-2.6606,-2.6468,-2.631,-2.631,-2.6274,-2.6239,-2.6239,-2.6203,-2.622,-2.622,-2.5848,-2.5594,-2.5503,-2.4823,-2.4385,-2.4385,-2.4503,-2.4394,-2.3982,-2.5384,-2.5743,-2.4739,-2.4958,-2.5262,-2.5594,-2.5253,-2.5253,-2.5594,-2.5594,-2.5811,-2.622,-2.622,-2.622,-2.622,-2.6239,-2.638,-2.6606,-2.664,-2.664,-2.6674,-2.6908,-2.6725,-2.6329,-2.6554,-2.6415,-2.622,-2.622,-2.5937,-2.5594,-2.5594,-2.5313,-2.4981,-2.4981,-2.4639,-2.4204,-2.3749,-2.2892,-2.2067,-2.1561,-2.1091,-2.0795,-2.0979,-2.1153,-2.1277,-2.1229,-2.1326,-2.1423,-2.1423,-2.1423,-2.1423,-2.1423,-2.1423,-2.1423,-2.1423,-2.1423,-2.1423,-2.1423,-2.1423,-2.1423,-2.1423,-2.1423,-2.1423,-2.1423,-2.1423,-2.1423,-2.1423,-2.1423,-2.1423,-2.1423,-2.1423,-2.1423,-2.1423,-2.1423,-2.1423,-2.1423,-2.1055,-2.0908,-2.0908,-2.0795,-2.0409,-1.9656,-1.9044,-1.8685,-1.8548,-1.7755,-1.7545,-1.7711,-1.749,-1.739,-1.7278,-1.692,-1.6161,-1.541,-2.6345,-2.6274,-2.6239,-2.6345,-2.6274,-2.622,-2.622,-2.622,-2.622,-2.622,-2.622,-2.622,-2.622,-2.5589,-2.516,-2.516,-2.4379,-2.3909,-2.3909,-2.394,-2.4013,-2.4112,-2.4503,-2.4748,-2.4742,-2.4342,-2.4422,-2.4942,-2.4918,-2.4981,-2.516,-2.516,-2.5406,-2.5811,-2.5811,-2.5937,-2.622,-2.622,-2.6274,-2.638,-2.638,-2.638,-2.638,-2.6503,-2.6399,-2.622,-2.6345,-2.631,-2.622,-2.622,-2.5901,-2.5503,-2.5503,-2.5059,-2.4558,-2.4558,-2.4063,-2.3465,-2.3201,-2.2438,-2.1684,-2.1554,-2.1144,-2.0825,-2.0947,-2.1082,-2.118,-2.1019,-2.1006,-2.1019,-2.0772,-2.0723,-2.0822,-2.1019,-2.1055,-2.1153,-2.1375,-2.1423,-2.1423,-2.1423,-2.1423,-2.1423,-2.1423,-2.1423,-2.1423,-2.1423,-2.1423,-2.1423,-2.1423,-2.1423,-2.1423,-2.1423,-2.1423,-2.1423,-2.1423,-2.1423,-2.1423,-2.1423,-2.1215,-2.1006,-2.0795,-2.0359,-1.9734,-1.9056,-1.859,-1.8182,-1.7865,-1.7434,-1.739,-1.7434,-1.7334,-1.7155,-1.6864,-1.64,-1.5758,-1.5177]},{"header":{"parameterUnit":"m.s-1","parameterCategory":1,"la1":30.6,"la2":28.766,"lo1":-90.7593,"lo2":-88.6598,"dy":0.0162,"dx":0.0183,"nx":116,"ny":114,"refTime":"2023-06-03T12:00:00:Z","depth":0,"parameterNumber":3,"parameterNumberName":"V-component_of_WINDS"},"data":[0.0,0.0,0.0,0.0,0.0,0.0,0.0,0.0,0.0,0.0,0.0,0.0,0.0,0.0,0.0,0.0,0.0,0.0,0.0,0.0,0.0,0.0,0.0,0.0,0.0,0.0,0.0,0.0,0.0,0.0,0.0,0.0,0.0,0.0,0.0,0.0,0.0,0.0,0.0,0.0,0.0,0.0,0.0,0.0,0.0,0.0,0.0,0.0,0.0,0.0,0.0,0.0,0.0,0.0,0.0,0.0,0.0,0.0,0.0,0.0,0.0,0.0,0.0,0.0,0.0,0.0,0.0,0.0,0.0,0.0,0.0,0.0,0.0,0.0,0.0,0.0,0.0,0.0,0.0,0.0,0.0,0.0,0.0,0.0,0.0,0.0,0.0,0.0,0.0,0.0,0.0,0.0,0.0,0.0,0.0,0.0,0.0,0.0,0.0,0.0,0.0,0.0,0.0,0.0,0.0,0.0,0.0,0.0,0.0,0.0,0.0,0.0,0.0,0.0,0.0,0.0,0.0,0.0,0.0,0.0,0.0,0.0,0.0,0.0,0.0,0.0,0.0,0.0,0.0,0.0,0.0,0.0,0.0,0.0,0.0,0.0,0.0,0.0,0.0,0.0,0.0,0.0,0.0,0.0,0.0,0.0,0.0,0.0,0.0,0.0,0.0,0.0,0.0,0.0,0.0,0.0,0.0,0.0,0.0,0.0,0.0,0.0,0.0,0.0,0.0,0.0,0.0,0.0,0.0,0.0,0.0,0.0,0.0,0.0,0.0,0.0,0.0,0.0,0.0,0.0,0.0,0.0,0.0,0.0,0.0,0.0,0.0,0.0,0.0,0.0,0.0,0.0,0.0,0.0,0.0,0.0,0.0,0.0,0.0,0.0,0.0,0.0,0.0,0.0,0.0,0.0,0.0,0.0,0.0,0.0,0.0,0.0,0.0,0.0,0.0,0.0,0.0,0.0,0.0,0.0,0.0,0.0,0.0,0.0,0.0,0.0,0.0,0.0,0.0,0.0,0.0,0.0,0.0,0.0,0.0,0.0,0.0,0.0,0.0,0.0,0.0,0.0,0.0,0.0,0.0,0.0,0.0,0.0,0.0,0.0,0.0,0.0,0.0,0.0,0.0,0.0,0.0,0.0,0.0,0.0,0.0,0.0,0.0,0.0,0.0,0.0,0.0,0.0,0.0,0.0,0.0,0.0,0.0,0.0,0.0,0.0,0.0,0.0,0.0,0.0,0.0,0.0,0.0,0.0,0.0,0.0,0.0,0.0,0.0,0.0,0.0,0.0,0.0,0.0,0.0,0.0,0.0,0.0,0.0,0.0,0.0,0.0,0.0,0.0,0.0,0.0,0.0,0.0,0.0,0.0,0.0,0.0,0.0,0.0,0.0,0.0,0.0,0.0,0.0,0.0,0.0,0.0,0.0,0.0,0.0,0.0,0.0,0.0,0.0,0.0,0.0,0.0,0.0,0.0,0.0,0.0,0.0,0.0,0.0,0.0,0.0,0.0,0.0,0.0,0.0,0.0,0.0,0.0,0.0,0.0,0.0,0.0,0.0,0.0,0.0,0.0,0.0,0.0,0.0,0.0,0.0,0.0,0.0,0.0,0.0,0.0,0.0,0.0,0.0,0.0,0.0,0.0,0.0,0.0,0.0,0.0,0.0,0.0,0.0,0.0,0.0,0.0,0.0,0.0,0.0,0.0,0.0,0.0,0.0,0.0,0.0,0.0,0.0,0.0,0.0,0.0,0.0,0.0,0.0,0.0,0.0,0.0,0.0,0.0,0.0,0.0,0.0,0.0,0.0,0.0,0.0,0.0,0.0,0.0,0.0,0.0,0.0,0.0,0.0,0.0,0.0,0.0,0.0,0.0,0.0,0.0,0.0,0.0,0.0,0.0,0.0,0.0,0.0,0.0,0.0,0.0,0.0,0.0,0.0,0.0,0.0,0.0,0.0,0.0,0.0,0.0,0.0,0.0,0.0,0.0,0.0,0.0,0.0,0.0,0.0,0.0,0.0,0.0,0.0,0.0,0.0,0.0,0.0,0.0,0.0,0.0,0.0,0.0,0.0,0.0,0.0,0.0,0.0,0.0,0.0,0.0,0.0,0.0,0.0,0.0,0.0,0.0,0.0,0.0,0.0,0.0,0.0,0.0,0.0,0.0,0.0,0.0,0.0,0.0,0.0,0.0,0.0,0.0,0.0,0.0,0.0,0.0,0.0,0.0,0.0,0.0,0.0,0.0,0.0,0.0,0.0,0.0,0.0,0.0,0.0,0.0,0.0,0.0,0.0,0.0,0.0,0.0,0.0,0.0,0.0,0.0,0.0,0.0,0.0,0.0,0.0,0.0,0.0,0.0,0.0,0.0,0.0,0.0,0.0,0.0,0.0,0.0,0.0,0.0,0.0,0.0,0.0,0.0,0.0,0.0,0.0,0.0,0.0,0.0,0.0,0.0,0.0,0.0,0.0,0.0,0.0,0.0,0.0,0.0,0.0,0.0,0.0,0.0,0.0,0.0,0.0,0.0,0.0,0.0,0.0,0.0,0.0,0.0,0.0,0.0,0.0,0.0,0.0,0.0,0.0,0.0,0.0,0.0,0.0,0.0,0.0,0.0,0.0,0.0,0.0,0.0,0.0,0.0,0.0,0.0,0.0,0.0,0.0,0.0,0.0,0.0,0.0,0.0,0.0,0.0,0.0,0.0,0.0,0.0,0.0,0.0,0.0,0.0,0.0,0.0,0.0,0.0,0.0,0.0,0.0,0.0,0.0,0.0,0.0,0.0,0.0,0.0,0.0,0.0,0.0,0.0,0.0,0.0,0.0,0.0,0.0,0.0,0.0,0.0,0.0,0.0,0.0,0.0,0.0,0.0,0.0,0.0,0.0,0.0,0.0,0.0,0.0,0.0,0.0,0.0,0.0,0.0,0.0,0.0,0.0,0.0,0.0,0.0,0.0,0.0,0.0,0.0,0.0,0.0,0.0,0.0,0.0,0.0,0.0,0.0,0.0,0.0,0.0,0.0,0.0,0.0,0.0,0.0,0.0,0.0,0.0,0.0,0.0,0.0,0.0,0.0,0.0,0.0,0.0,0.0,0.0,0.0,0.0,0.0,0.0,0.0,0.0,0.0,0.0,0.0,0.0,0.0,0.0,0.0,0.0,0.0,0.0,0.0,0.0,0.0,0.0,0.0,0.0,0.0,0.0,0.0,0.0,0.0,0.0,0.0,0.0,0.0,0.0,0.0,0.0,0.0,0.0,0.0,0.0,0.0,0.0,0.0,0.0,0.0,0.0,0.0,0.0,0.0,0.0,0.0,0.0,0.0,0.0,0.0,0.0,0.0,0.0,0.0,0.0,0.0,0.0,0.0,0.0,0.0,0.0,0.0,0.0,0.0,0.0,0.0,0.0,0.0,0.0,0.0,0.0,0.0,0.0,0.0,0.0,0.0,0.0,0.0,0.0,0.0,0.0,0.0,0.0,0.0,0.0,0.0,0.0,0.0,0.0,0.0,0.0,0.0,0.0,0.0,0.0,0.0,0.0,0.0,0.0,0.0,0.0,0.0,0.0,0.0,0.0,0.0,0.0,0.0,0.0,0.0,0.0,0.0,0.0,0.0,0.0,0.0,0.0,0.0,0.0,0.0,0.0,0.0,0.0,0.0,0.0,0.0,0.0,0.0,0.0,0.0,0.0,0.0,0.0,0.0,0.0,0.0,0.0,0.0,0.0,0.0,0.0,0.0,0.0,0.0,0.0,0.0,0.0,0.0,0.0,0.0,0.0,0.0,0.0,0.0,0.0,0.0,0.0,0.0,0.0,0.0,0.0,0.0,0.0,0.0,0.0,0.0,0.0,0.0,0.0,0.0,0.0,0.0,0.0,0.0,0.0,0.0,0.0,0.0,0.0,0.0,0.0,0.0,0.0,0.0,0.0,0.0,0.0,0.0,0.0,0.0,0.0,0.0,0.0,0.0,0.0,0.0,0.0,0.0,0.0,0.0,0.0,0.0,0.0,0.0,0.0,0.0,0.0,0.0,0.0,0.0,0.0,0.0,0.0,0.0,0.0,0.0,0.0,0.0,0.0,0.0,0.0,0.0,0.0,0.0,0.0,0.0,0.0,0.0,0.0,0.0,0.0,0.0,0.0,0.0,0.0,0.0,0.0,0.0,0.0,0.0,0.0,0.0,0.0,0.0,0.0,0.0,0.0,0.0,0.0,0.0,0.0,0.0,0.0,0.0,0.0,0.0,0.0,0.0,0.0,0.0,0.0,0.0,0.0,0.0,0.0,0.0,0.0,0.0,0.0,0.0,0.0,0.0,0.0,0.0,0.0,0.0,0.0,0.0,0.0,0.0,0.0,0.0,0.0,0.0,0.0,0.0,0.0,0.0,0.0,0.0,0.0,0.0,0.0,0.0,0.0,0.0,0.0,0.0,0.0,0.0,0.0,0.0,0.0,0.0,0.0,0.0,0.0,0.0,0.0,0.0,0.0,0.0,0.0,0.0,0.0,0.0,0.0,0.0,0.0,0.0,0.0,0.0,0.0,0.0,0.0,0.0,0.0,0.0,0.0,0.0,0.0,0.0,0.0,0.0,0.0,0.0,0.0,0.0,0.0,0.0,0.0,0.0,0.0,0.0,0.0,0.0,0.0,0.0,0.0,0.0,0.0,0.0,0.0,0.0,0.0,0.0,0.0,0.0,0.0,0.0,0.0,0.0,0.0,0.0,0.0,0.0,0.0,0.0,0.0,0.0,0.0,0.0,0.0,0.0,0.0,0.0,0.0,0.0,0.0,0.0,0.0,0.0,0.0,0.0,0.0,0.0,0.0,0.0,0.0,0.0,0.0,0.0,0.0,0.0,0.0,0.0,0.0,0.0,0.0,0.0,0.0,0.0,0.0,0.0,0.0,0.0,0.0,0.0,0.0,0.0,0.0,0.0,0.0,0.0,0.0,0.0,0.0,0.0,0.0,0.0,0.0,0.0,0.0,0.0,0.0,0.0,0.0,0.0,0.0,0.0,0.0,0.0,0.0,0.0,0.0,0.0,0.0,0.0,0.0,0.0,0.0,0.0,0.0,0.0,0.0,0.0,0.0,0.0,0.0,0.0,0.0,0.0,0.0,0.0,0.0,0.0,0.0,0.0,0.0,0.0,0.0,0.0,0.0,0.0,0.0,0.0,0.0,0.0,0.0,0.0,0.0,0.0,0.0,0.0,0.0,0.0,0.0,0.0,0.0,0.0,0.0,0.0,0.0,0.0,0.0,0.0,0.0,0.0,0.0,0.0,0.0,0.0,0.0,0.0,0.0,0.0,0.0,0.0,0.0,0.0,0.0,0.0,0.0,0.0,0.0,0.0,0.0,0.0,0.0,0.0,0.0,0.0,0.0,0.0,0.0,0.0,0.0,0.0,0.0,0.0,0.0,0.0,0.0,0.0,0.0,0.0,0.0,0.0,0.0,0.0,0.0,0.0,0.0,0.0,0.0,0.0,0.0,0.0,0.0,0.0,0.0,0.0,0.0,0.0,0.0,0.0,0.0,0.0,0.0,0.0,0.0,0.0,0.0,0.0,0.0,0.0,0.0,0.0,0.0,0.0,0.0,0.0,0.0,0.0,0.0,0.0,0.0,0.0,0.0,0.0,0.0,0.0,0.0,0.0,0.0,0.0,0.0,0.0,0.0,0.0,0.0,0.0,0.0,0.0,0.0,0.0,0.0,0.0,0.0,0.0,0.0,0.0,0.0,0.0,0.0,0.0,0.0,0.0,0.0,0.0,0.0,0.0,0.0,0.0,0.0,0.0,0.0,0.0,0.0,0.0,0.0,0.0,0.0,0.0,0.0,0.0,0.0,0.0,0.0,0.0,0.0,0.0,0.0,0.0,0.0,0.0,0.0,0.0,0.0,0.0,0.0,0.0,0.0,0.0,0.0,0.0,0.0,0.0,0.0,0.0,0.0,0.0,0.0,0.0,0.0,0.0,0.0,0.0,0.0,0.0,0.0,0.0,0.0,0.0,0.0,0.0,0.0,0.0,0.0,0.0,0.0,0.0,0.0,0.0,0.0,0.0,0.0,0.0,0.0,0.0,0.0,0.0,0.0,0.0,0.0,0.0,-1.4334,-1.5394,0.0,0.0,0.0,0.0,0.0,0.0,0.0,0.0,0.0,0.0,0.0,0.0,0.0,0.0,0.0,0.0,0.0,0.0,0.0,0.0,0.0,0.0,0.0,0.0,0.0,0.0,0.0,0.0,0.0,0.0,0.0,0.0,0.0,0.0,0.0,0.0,0.0,0.0,-1.1484,-1.1774,-1.1916,-1.344,-1.4537,-1.5267,0.0,0.0,0.0,0.0,0.0,0.0,0.0,0.0,0.0,0.0,0.0,0.0,0.0,0.0,0.0,0.0,0.0,0.0,0.0,0.0,0.0,0.0,0.0,0.0,0.0,0.0,0.0,0.0,0.0,0.0,0.0,0.0,0.0,0.0,0.0,0.0,0.0,0.0,0.0,0.0,0.0,0.0,0.0,0.0,0.0,0.0,0.0,0.0,0.0,0.0,0.0,0.0,0.0,0.0,0.0,0.0,0.0,0.0,0.0,0.0,0.0,0.0,0.0,0.0,0.0,0.0,0.0,0.0,0.0,0.0,-1.4328,-1.547,0.0,0.0,0.0,0.0,0.0,0.0,0.0,0.0,0.0,0.0,0.0,0.0,0.0,0.0,0.0,0.0,0.0,0.0,0.0,0.0,0.0,0.0,0.0,-1.4585,-1.3803,-1.2938,-1.2271,-1.1607,0.0,0.0,0.0,0.0,0.0,0.0,0.0,-0.9614,-0.9986,-1.0657,-1.0812,-1.0962,-1.1186,-1.3368,-1.4609,-1.4982,-1.7463,0.0,0.0,0.0,0.0,0.0,0.0,0.0,0.0,0.0,0.0,0.0,0.0,0.0,0.0,0.0,0.0,0.0,0.0,0.0,0.0,0.0,0.0,0.0,0.0,0.0,0.0,0.0,0.0,0.0,0.0,0.0,0.0,0.0,0.0,0.0,0.0,0.0,0.0,0.0,0.0,0.0,0.0,0.0,0.0,0.0,0.0,0.0,0.0,0.0,0.0,0.0,0.0,0.0,0.0,0.0,0.0,0.0,0.0,0.0,0.0,0.0,0.0,0.0,-1.4088,-1.4088,-1.4088,-1.4088,-1.4243,-1.4398,-1.465,-1.5711,-1.7423,-1.7908,0.0,0.0,0.0,0.0,0.0,0.0,0.0,0.0,0.0,0.0,0.0,0.0,0.0,0.0,0.0,0.0,0.0,0.0,0.0,0.0,0.0,-1.2631,-1.197,-1.049,-1.0265,-1.019,-1.0045,0.0,0.0,0.0,0.0,0.0,-0.7787,-0.8475,-0.8927,-0.9003,-0.969,-1.0443,-1.1111,-1.2872,-1.3673,-1.3825,-1.6219,-1.7813,-1.8603,0.0,0.0,0.0,0.0,0.0,0.0,0.0,0.0,0.0,0.0,0.0,0.0,0.0,0.0,0.0,0.0,0.0,0.0,0.0,0.0,0.0,0.0,0.0,0.0,0.0,0.0,0.0,0.0,0.0,0.0,0.0,0.0,0.0,0.0,0.0,0.0,0.0,0.0,0.0,0.0,0.0,-0.6338,-0.6338,0.0,0.0,0.0,0.0,0.0,0.0,0.0,0.0,0.0,0.0,0.0,0.0,0.0,-1.34,-1.4021,-1.4068,-1.4088,-1.4088,-1.4088,-1.4088,-1.4088,-1.4088,-1.4243,-1.4398,-1.465,0.0,-1.7738,-1.855,0.0,0.0,0.0,0.0,0.0,0.0,0.0,0.0,0.0,0.0,0.0,0.0,0.0,0.0,0.0,0.0,0.0,0.0,0.0,0.0,0.0,-0.96,-0.8755,-0.809,-0.7007,-0.6703,-0.7259,-0.6747,0.0,0.0,0.0,-0.7326,-0.7484,-0.7863,-0.8246,-0.8703,-0.9539,-1.0067,-1.0443,-1.2579,-1.3535,-1.3608,-1.5807,-1.7413,-1.8556,-1.9399,0.0,0.0,0.0,0.0,0.0,0.0,0.0,0.0,0.0,0.0,0.0,0.0,0.0,0.0,0.0,0.0,0.0,0.0,0.0,0.0,0.0,0.0,0.0,0.0,0.0,0.0,0.0,0.0,0.0,0.0,0.0,0.0,0.0,0.0,0.0,0.0,0.0,0.0,0.0,-0.6338,-0.6338,-0.6338,-0.6412,-0.6563,0.0,0.0,0.0,0.0,0.0,0.0,0.0,0.0,0.0,-1.2632,-1.3124,-1.3588,-1.3843,-1.4142,-1.4329,-1.4335,-1.4502,-1.4583,-1.4583,-1.4744,-1.4911,-1.5165,-1.5835,-1.7016,-1.8505,-1.8412,-1.9274,-2.0566,0.0,0.0,0.0,0.0,-2.0566,-2.0566,0.0,0.0,0.0,0.0,0.0,0.0,0.0,0.0,0.0,0.0,0.0,0.0,-0.7858,-0.6146,-0.5064,-0.4838,-0.3536,-0.3158,-0.4171,-0.4085,-0.4394,-0.5183,-0.588,-0.6419,-0.6878,-0.7076,-0.7561,-0.8399,-0.9236,-0.969,-0.9916,-1.2352,-1.36,-1.3818,-1.5745,-1.7285,-1.8566,-1.9465,-2.0696,-2.2063,0.0,0.0,0.0,0.0,0.0,0.0,0.0,0.0,0.0,0.0,0.0,0.0,0.0,0.0,0.0,0.0,0.0,0.0,0.0,0.0,0.0,0.0,0.0,0.0,0.0,0.0,0.0,0.0,0.0,0.0,0.0,0.0,0.0,0.0,0.0,0.0,0.0,-0.6338,-0.6338,-0.6338,-0.6412,-0.6637,0.0,0.0,0.0,0.0,0.0,0.0,-1.1554,-1.1657,-1.2164,-1.3279,-1.3615,-1.3788,-1.3857,-1.4349,-1.4636,-1.4636,-1.4939,-1.5046,-1.5046,-1.5301,-1.5569,-1.5842,-1.6873,-1.7991,-1.9067,-1.8768,-1.9514,-2.0889,-2.0781,-2.0732,-2.0732,-2.0732,-2.0732,-2.0732,0.0,0.0,0.0,0.0,0.0,0.0,0.0,0.0,0.0,0.0,0.0,-0.5868,-0.4447,-0.2595,-0.1145,-0.0384,-0.023,-0.0538,-0.139,-0.189,-0.2546,-0.324,-0.4595,-0.5277,-0.5133,-0.595,-0.6721,-0.7557,-0.8394,-0.916,-0.9916,-1.2352,-1.3738,-1.4307,-1.5886,-1.7285,-1.8566,-1.9585,-2.0991,-2.2531,-2.2531,0.0,0.0,0.0,0.0,0.0,0.0,0.0,0.0,0.0,0.0,0.0,0.0,0.0,0.0,0.0,0.0,0.0,0.0,0.0,0.0,0.0,0.0,0.0,0.0,0.0,0.0,0.0,0.0,0.0,0.0,0.0,0.0,0.0,0.0,0.0,0.0,0.0,0.0,-0.6338,-0.6338,0.0,0.0,0.0,0.0,-0.9001,-0.9247,-1.01,-1.1841,-1.197,-1.2505,-1.3516,-1.3905,-1.4174,-1.4469,-1.4783,-1.4943,-1.4943,-1.5205,-1.5294,-1.5294,-1.5575,-1.5761,-1.6027,-1.7064,-1.8094,-1.9196,-1.9934,-2.0875,-2.1777,-2.1357,-2.1201,-2.1201,-2.1201,-2.1201,-2.1201,0.0,0.0,0.0,0.0,0.0,0.0,0.0,0.0,-0.8415,-0.6801,-0.4296,-0.2218,-0.0996,0.1604,0.344,0.3679,0.4375,0.4151,0.262,0.1581,0.0223,-0.1574,-0.3031,-0.4144,-0.4972,-0.5328,-0.5864,-0.6718,-0.8016,-0.8851,-0.9155,-1.2124,-1.3818,-1.4371,-1.6748,-1.8459,-1.952,-1.9836,-2.1192,-2.3125,-2.3125,-2.3437,0.0,0.0,0.0,0.0,0.0,0.0,0.0,0.0,0.0,0.0,0.0,0.0,0.0,0.0,0.0,0.0,0.0,0.0,0.0,0.0,0.0,0.0,0.0,0.0,0.0,0.0,0.0,0.0,0.0,0.0,0.0,0.0,0.0,0.0,0.0,0.0,0.0,-0.6338,-0.6342,0.0,-0.6994,-0.7676,-0.864,-1.0002,-1.0718,-1.1644,-1.2995,-1.3046,-1.3419,-1.4132,-1.4265,-1.4477,-1.479,-1.515,-1.5244,-1.5244,-1.5517,-1.5697,-1.5896,-1.6167,-1.6713,-1.753,-1.8068,-1.9215,-2.0817,-2.1089,-2.1494,-2.1865,-2.1719,-2.165,-2.165,-2.165,-2.165,-2.165,0.0,0.0,0.0,0.0,0.0,0.0,0.0,0.0,-0.5883,-0.3607,-0.0996,0.1454,0.3573,0.5812,0.7299,0.7517,0.8009,0.7466,0.5578,0.4249,0.2566,0.0365,-0.1526,-0.3167,-0.4574,-0.4807,-0.516,-0.5786,-0.7625,-0.8542,-0.8694,-1.1896,-1.3803,-1.4712,-1.7347,-1.9246,-2.0504,-2.0737,-2.183,-2.3463,-2.3806,-2.3982,-2.4015,0.0,0.0,0.0,0.0,0.0,0.0,0.0,0.0,0.0,0.0,0.0,0.0,0.0,0.0,0.0,0.0,0.0,0.0,0.0,0.0,0.0,0.0,0.0,0.0,0.0,0.0,0.0,0.0,0.0,0.0,0.0,0.0,0.0,0.0,-0.6318,-0.6359,-0.6359,-0.6461,-0.6738,-0.7193,-0.8147,-0.9374,-1.0665,-1.1682,-1.2694,-1.3881,-1.3868,-1.4123,-1.463,-1.4757,-1.4933,-1.5094,-1.5358,-1.5545,-1.5644,-1.5927,-1.6211,-1.6508,-1.7052,-1.7785,-1.8611,-1.943,-2.0512,-2.1695,-2.2059,-2.2187,-2.2295,-2.2158,-2.21,-2.21,-2.21,-2.21,-2.2173,0.0,0.0,0.0,0.0,0.0,0.0,0.0,-0.6276,-0.3174,0.0152,0.2289,0.5033,0.9054,0.9793,1.0329,1.1045,1.0473,0.926,0.7491,0.6057,0.4485,0.258,-0.0071,-0.2229,-0.3663,-0.4292,-0.4683,-0.4688,-0.7,-0.8232,-0.8528,-1.1742,-1.3932,-1.5246,-1.7542,-1.9661,-2.1514,-2.2298,-2.298,-2.3569,-2.4607,-2.4677,-2.4171,0.0,0.0,0.0,0.0,0.0,0.0,0.0,0.0,0.0,0.0,0.0,0.0,0.0,0.0,0.0,0.0,0.0,0.0,0.0,0.0,0.0,0.0,0.0,0.0,0.0,0.0,0.0,0.0,0.0,0.0,0.0,0.0,0.0,-0.6338,-0.643,-0.6475,-0.6485,-0.6641,-0.692,-0.7377,-0.8379,-0.962,-1.0975,-1.2146,-1.3299,-1.4447,-1.4482,-1.4654,-1.5028,-1.5245,-1.5398,-1.5411,-1.5691,-1.5927,-1.6224,-1.6494,-1.6777,-1.7073,-1.8249,-1.888,-1.8972,-2.0872,-2.1695,-2.1784,-2.2687,-2.3135,-2.3096,-2.2685,-2.2529,-2.2529,-2.2529,-2.2529,-2.2689,0.0,0.0,0.0,0.0,0.0,0.0,0.0,-0.4908,-0.2246,0.1751,0.4334,0.721,1.1046,1.2542,1.3418,1.3563,1.3418,1.2552,1.0683,0.9108,0.6517,0.2581,0.0836,-0.0718,-0.215,-0.2868,-0.3685,-0.4688,-0.7,-0.8447,-0.9251,-1.2357,-1.4814,-1.6821,-1.8864,-2.0685,-2.2187,-2.3433,-2.4328,-2.4912,-2.4964,-2.4892,-2.4721,0.0,0.0,0.0,0.0,0.0,0.0,0.0,0.0,0.0,0.0,0.0,0.0,0.0,0.0,0.0,0.0,0.0,0.0,0.0,0.0,0.0,0.0,0.0,0.0,0.0,0.0,0.0,0.0,0.0,0.0,0.0,-0.6338,-0.6338,-0.6338,-0.6396,-0.6481,-0.6485,-0.6715,-0.7337,-0.8462,-0.951,-1.0766,-1.2108,-1.3335,-1.4182,-1.4462,-1.4736,-1.4997,-1.5245,-1.5378,-1.5498,-1.5705,-1.5792,-1.5927,-1.6224,-1.7052,-1.7598,-1.8071,-1.9072,-2.0068,-2.097,-2.1516,-2.2059,-2.2775,-2.296,-2.3135,-2.3125,-2.3018,-2.2969,-2.2969,-2.2969,-2.3391,-2.3972,0.0,0.0,0.0,0.0,0.0,0.0,0.0,-0.3826,-0.0851,0.3856,0.6064,0.9084,1.4001,1.4743,1.5084,1.5438,1.4952,1.3933,1.2207,1.0109,0.7113,0.2991,0.2141,0.0988,-0.0508,-0.1416,-0.2429,-0.3461,-0.6256,-0.841,-0.9809,-1.3107,-1.5878,-1.8108,-2.0189,-2.182,-2.3097,-2.453,-2.5656,-2.637,-2.6366,-2.6051,-2.5645,-2.5412,-2.4483,-2.3182,-2.2774,-2.1192,-1.9288,-1.91,0.0,0.0,0.0,0.0,0.0,0.0,0.0,0.0,0.0,0.0,0.0,0.0,0.0,0.0,0.0,0.0,0.0,0.0,0.0,0.0,0.0,0.0,0.0,0.0,-0.6312,-0.6349,-0.6349,-0.6508,-0.6605,-0.6685,-0.7197,-0.7966,-0.9009,-1.0363,-1.1645,-1.265,-1.3795,-1.4576,-1.4708,-1.499,-1.5335,-1.5565,-1.5578,-1.5658,-1.5832,-1.6204,-1.6393,-1.6407,-1.7785,-1.8519,-1.8611,-1.9977,-2.106,-2.1695,-2.2148,-2.2599,-2.3135,-2.3135,-2.3135,-2.3135,0.0,0.0,0.0,0.0,-2.4069,-2.4584,0.0,0.0,0.0,0.0,0.0,0.0,0.0,-0.3124,0.0617,0.5915,0.7484,1.0651,1.7083,1.654,1.5974,1.6826,1.5771,1.4353,1.2684,1.0238,0.7442,0.4117,0.392,0.3072,0.1443,0.0074,-0.0974,-0.173,-0.5475,-0.8477,-1.063,-1.4324,-1.7302,-1.964,-2.1665,-2.3196,-2.4349,-2.5816,-2.6959,-2.7867,-2.823,-2.7713,-2.6718,-2.6172,-2.5204,-2.4008,-2.2942,-2.1318,-1.9661,-1.9023,0.0,0.0,0.0,0.0,0.0,0.0,0.0,0.0,0.0,0.0,0.0,0.0,0.0,0.0,0.0,0.0,0.0,0.0,0.0,0.0,0.0,0.0,0.0,0.0,-0.638,-0.6481,-0.6508,-0.6622,-0.6783,-0.7004,-0.7948,-0.8752,-0.9479,-1.1054,-1.2222,-1.2849,-1.3932,-1.4669,-1.5002,-1.5291,0.0,0.0,0.0,-1.5825,-1.6015,-1.6857,-1.7138,-1.6951,-1.8796,-1.9521,-1.9155,-2.1051,-2.1872,-2.1872,-2.2775,-2.3135,-2.3135,-2.3135,-2.3135,-2.3135,-2.3135,-2.3135,-2.3396,-2.4155,-2.4659,-2.4999,0.0,0.0,0.0,0.0,0.0,0.0,0.0,-0.2958,0.0845,0.5912,0.8522,1.2044,1.7842,1.7726,1.7736,1.8859,1.7549,1.5599,1.3124,1.2357,1.0618,0.7548,0.7019,0.5914,0.4037,0.2378,0.0357,-0.209,-0.6626,-1.045,-1.363,-1.714,-2.025,-2.3012,-2.4139,-2.5256,-2.6505,-2.7806,-2.8695,-2.9219,-2.938,-2.8731,-2.7655,-2.7143,-2.5753,-2.3891,-2.2566,-2.0946,-1.9191,-1.8075,-1.6062,-1.4034,-1.4034,-1.2558,0.0,0.0,0.0,0.0,0.0,0.0,0.0,0.0,0.0,0.0,0.0,0.0,0.0,0.0,0.0,0.0,0.0,0.0,0.0,-0.6338,-0.638,-0.6542,-0.6656,-0.6766,-0.7168,-0.7936,-0.8269,-0.9248,-1.1251,-1.1757,-1.2516,-1.3717,-1.4475,-1.4953,-1.5015,-1.5445,-1.5758,-1.5825,-1.5832,-1.6204,-1.6951,-1.7232,-1.7878,-1.898,-2.015,0.0,-2.115,-2.2325,-2.2872,-2.2872,-2.3047,-2.3135,-2.3135,-2.3135,-2.3135,-2.3135,-2.3135,-2.356,-2.4241,-2.4413,-2.5421,-2.6764,0.0,0.0,0.0,0.0,0.0,0.0,0.0,-0.2955,0.0769,0.5414,0.8532,1.2411,1.7957,1.8324,1.8661,1.9849,1.9054,1.7574,1.5415,1.5456,1.4345,1.1613,1.0458,0.9199,0.7762,0.4857,0.2475,0.0723,-0.6136,-1.1032,-1.4082,-1.9353,-2.3193,-2.5692,-2.6826,-2.7845,-2.8881,-2.9864,-3.0573,-3.1113,-3.1116,-3.0644,-2.9758,-2.801,-2.6419,-2.494,-2.3128,-2.1237,-1.9488,-1.821,-1.607,-1.3745,-1.3361,-1.1816,-1.0051,0.0,0.0,0.0,0.0,0.0,0.0,0.0,0.0,0.0,0.0,0.0,0.0,0.0,0.0,-0.6338,-0.6338,0.0,-0.6366,-0.6366,-0.6556,-0.6742,-0.678,-0.7311,-0.7895,-0.8324,-0.8905,-0.9918,-1.178,-1.2381,-1.3058,-1.4004,-1.4467,-1.4986,-1.5673,-1.5681,-1.5912,-1.6574,-1.6581,-1.6763,-1.7326,-1.8334,-1.898,-1.9338,-2.097,-2.1606,-2.1516,-2.2599,-2.3135,-2.3135,-2.3135,-2.3135,-2.3135,-2.3135,-2.3135,-2.3135,-2.3647,-2.4079,-2.4584,-2.5505,-2.6423,-2.7267,0.0,0.0,0.0,0.0,0.0,0.0,0.0,-0.3337,0.0308,0.4763,0.7943,1.1959,1.7591,1.8248,1.8744,1.9844,2.0522,2.01,1.8126,1.9116,1.876,1.6411,1.5129,1.4007,1.2975,0.9411,0.6952,0.574,-0.412,-1.0356,-1.3341,-2.1379,-2.6287,-2.8347,-2.9453,-3.0408,-3.1133,-3.1797,-3.2409,-3.2885,-3.2766,-3.2504,-3.1886,-2.9221,-2.7459,-2.6001,-2.3793,-2.1575,-1.95,-1.8247,-1.5913,-1.3302,-1.2464,-1.1075,-0.9387,-0.794,-0.748,0.0,0.0,0.0,0.0,0.0,0.0,0.0,0.0,-0.5789,-0.6338,-0.6338,-0.6338,-0.6271,-0.6295,-0.6393,-0.6481,-0.6512,-0.6913,-0.7097,-0.6929,-0.8001,-0.8803,-0.8803,-0.9557,-1.0773,-1.2129,-1.2973,-1.3561,-1.4088,-1.4345,-1.506,-1.6219,-1.5903,-1.6246,-1.7409,-1.7569,-1.7692,-1.7878,-1.9521,-2.0158,-1.9877,-2.1526,-2.2157,-2.1695,-2.2687,-2.3135,-2.3135,-2.3135,-2.3135,-2.3135,-2.3135,-2.3135,-2.3222,-2.4327,-2.4744,-2.4914,-2.6588,-2.7348,-2.751,0.0,0.0,0.0,0.0,0.0,0.0,0.0,0.0,-0.0921,0.4463,0.6891,1.0525,1.6757,1.7104,1.7207,1.8203,2.2135,2.3339,2.0347,2.3314,2.4388,2.2483,2.252,2.1962,2.0696,1.9538,1.7021,1.3036,0.0426,-0.7838,-1.2163,-2.3624,-2.9844,-3.143,-3.1781,-3.2343,-3.2948,-3.3506,-3.3833,-3.3992,-3.3691,-3.3401,-3.2976,-3.1429,-2.9016,-2.6103,-2.3874,-2.1136,-1.8298,-1.7067,-1.4814,-1.2291,-1.1527,-1.0115,-0.8627,-0.7787,-0.7026,-0.6254,-0.5315,-0.5157,-0.5157,-0.5082,-0.5709,-0.6261,0.0,-0.6261,-0.6338,-0.6338,-0.6338,-0.6298,-0.6424,-0.6461,-0.6515,-0.6654,-0.748,-0.7851,-0.7011,-0.8513,-0.9749,-0.9749,-1.0534,-1.1677,-1.3101,-1.3313,-1.3548,-1.4088,-1.4316,-1.4858,-1.5828,-1.6424,-1.7198,-1.8073,-1.8454,-1.9063,-1.9977,-2.0158,-2.0889,-2.2069,-2.2255,-2.2608,-2.2872,-2.3047,-2.3135,-2.3135,-2.3135,-2.3135,-2.3135,-2.3135,-2.3135,-2.3309,-2.4988,-2.5652,-2.5746,-2.6846,-2.7684,-2.8351,0.0,0.0,0.0,0.0,0.0,0.0,0.0,0.0,0.0,0.0606,0.4914,0.9264,1.3327,1.6769,1.9258,2.0594,2.4106,2.5939,2.5106,2.7177,2.7945,2.687,2.6061,2.5305,2.4594,2.2228,1.7215,0.9538,-0.0749,-0.9899,-1.7941,-2.6693,-3.1473,-3.2786,-3.3299,-3.384,-3.4391,-3.46,-3.4836,-3.5045,-3.4666,-3.4281,-3.3757,-3.2072,-2.9966,-2.7496,-2.4463,-2.1124,0.0,-1.5835,-1.3281,-1.0697,-0.9386,-0.8192,-0.6996,-0.569,-0.5076,-0.4768,-0.4377,-0.3912,-0.3522,-0.3522,-0.4538,-0.5395,-0.4927,-0.5631,-0.6338,-0.6338,-0.6338,-0.6305,-0.6444,-0.6546,-0.6654,-0.6807,-0.7293,-0.748,-0.7051,-0.8661,-0.9923,-0.9923,-1.1225,-1.2369,-1.318,-1.3307,-1.3704,-1.4538,-1.4853,-1.5701,-1.7331,-1.7431,-1.7872,-1.9074,-1.943,-1.9886,-2.0339,-2.0808,-2.1454,-2.2274,-2.2353,-2.2618,-2.2969,-2.3057,-2.3135,-2.3135,-2.3135,-2.3396,-2.3897,-2.3309,-2.3387,-2.4069,-2.5326,-2.5819,-2.5986,-2.7418,-2.8247,-2.8657,0.0,0.0,0.0,0.0,0.0,0.0,0.0,0.0,0.0,0.0,0.2116,0.6537,1.0611,1.6233,2.044,2.2221,2.5319,2.7635,2.8767,3.0267,3.0988,3.0746,2.9572,2.8827,2.8664,2.5983,1.9567,0.9259,0.0193,-0.9841,-2.0748,-2.8344,-3.2539,-3.3676,-3.4261,-3.4772,-3.521,-3.5275,-3.5483,-3.5723,-3.5405,-3.4981,-3.4396,-3.2839,-3.1044,-2.8865,-2.5078,-2.1248,-1.7537,-1.4768,-1.1932,-0.9175,-0.7095,-0.6036,-0.5289,-0.3744,-0.3124,-0.2969,-0.3125,-0.266,-0.2195,-0.2431,-0.3522,-0.4455,-0.4222,-0.5082,-0.6022,-0.6261,-0.6291,-0.6363,-0.6508,-0.6661,-0.6814,-0.6963,-0.7246,-0.7404,-0.7139,-0.8969,-1.0188,-0.9923,-1.1574,-1.2796,-1.2985,-1.3215,-1.3853,-1.4954,-1.5238,-1.6283,-1.8326,-1.817,-1.8535,-1.9887,-2.035,-2.0604,-2.0709,-2.1365,-2.182,-2.2176,-2.2353,-2.253,-2.2882,-2.3047,-2.3135,-2.3135,-2.3135,-2.3647,-2.4413,-2.3734,-2.4069,-2.4914,-2.583,-2.6163,-2.6329,-2.7926,-2.8578,-2.8724,0.0,0.0,0.0,0.0,0.0,0.0,0.0,0.0,0.0,0.0,0.0,0.0,0.0,1.5135,1.9126,2.1506,2.5129,2.8135,3.0114,3.2409,3.3874,3.4316,3.4117,3.4002,3.4072,3.3633,2.8006,1.6961,0.6043,-0.5319,-1.6992,-2.7669,-3.3225,-3.4283,-3.4705,-3.5001,-3.521,-3.5481,-3.5702,-3.5878,-3.5747,-3.5406,-3.4918,-3.4334,-3.2552,-2.9773,-2.5455,-2.1355,-1.7471,-1.3979,-1.1034,-0.8188,-0.5109,-0.411,-0.3803,-0.2336,-0.1327,-0.0859,-0.1485,-0.1484,-0.1407,-0.2273,-0.2974,-0.375,-0.4768,-0.5004,-0.5318,-0.6103,-0.6369,-0.6512,-0.6664,-0.6817,-0.6966,-0.7109,-0.7837,-0.8105,-0.7228,-0.9492,-1.0885,-1.0009,-1.1574,-1.2705,-1.2705,-1.3137,-1.3827,-1.4907,-1.5216,-1.6131,-1.7934,-1.8391,-1.9195,-2.0437,-2.0829,-2.1231,-2.1642,-2.1651,-2.1909,-2.2353,-2.2441,-2.2608,-2.3057,-2.3135,-2.3135,-2.3135,-2.3135,-2.3647,-2.4498,-2.4498,-2.4988,-2.583,-2.6753,-2.7185,-2.7267,-2.8179,-2.851,-2.851,0.0,0.0,0.0,0.0,0.0,0.0,0.0,0.0,0.0,0.0,0.0,0.0,0.0,0.0,0.0,0.0,2.5487,3.133,3.3363,3.4312,3.4885,3.5092,3.4518,3.4124,3.3923,3.3358,2.5045,0.8669,0.3883,-0.7092,-2.3806,-2.8747,-3.1786,-3.319,-3.3828,-3.4359,-3.4824,-3.5087,-3.5324,-3.5519,-3.5556,-3.5334,-3.4909,-3.4219,-3.1758,-2.8046,0.0,-1.9205,-1.5605,-1.1501,-0.7767,-0.4346,-0.1785,-0.0932,-0.0777,0.0312,0.0859,0.0781,-0.0392,-0.0549,-0.0549,-0.1256,-0.2038,-0.2663,-0.3054,-0.3677,-0.4455,-0.524,-0.5018,-0.489,-0.5667,-0.5881,-0.6013,-0.6142,-0.6959,-0.7489,-0.7139,-0.8969,-1.0269,-0.9923,-1.1574,-1.2705,-1.2705,-1.3137,-1.4055,-1.553,-1.6034,-1.7025,-1.8807,-1.9533,-2.0039,-2.0521,-2.1172,-2.1594,-2.1741,-2.1741,-2.183,-2.2185,-2.253,-2.2794,-2.3135,-2.3734,-2.4069,-2.4069,-2.4069,-2.4914,-2.6174,-2.4999,-2.5421,-2.6753,-2.7092,-2.7185,-2.7348,-2.8179,-2.8578,-2.8724,0.0,0.0,0.0,0.0,0.0,0.0,0.0,0.0,0.0,0.0,0.0,0.0,0.0,0.0,0.0,0.0,0.0,2.7226,2.9281,3.2687,3.4683,3.4859,3.4043,3.3636,3.3713,2.9913,2.0374,0.4859,0.0,-1.0663,-2.6533,-2.8545,-3.0241,-3.1696,-3.2697,-3.3462,-3.4031,-3.4414,-3.4855,-3.5262,-3.5366,-3.5293,-3.5014,-3.3809,-3.064,0.0,-2.0888,-1.5984,-1.1471,-0.8148,-0.4432,-0.085,0.0933,0.1869,0.2489,0.3037,0.3042,0.2579,0.1019,0.0863,0.0863,-0.0314,-0.0863,-0.1254,-0.2038,-0.2741,-0.3521,-0.4377,-0.4172,-0.4037,-0.4677,-0.5235,-0.5629,-0.5708,-0.652,-0.7139,-0.7139,-0.8765,-1.0012,-0.9932,-1.1651,-1.2813,-1.2711,-1.3052,-1.4068,-1.5846,-1.6347,-1.7382,-1.9213,-1.9943,-2.0374,-2.0512,-2.1163,-2.1585,-2.1741,-2.1741,-2.183,-2.2185,-2.2627,-2.3057,-2.3647,-2.4241,-2.4659,-2.4999,-2.4999,-2.5841,-2.7103,-2.5924,-2.634,-2.7684,-2.7684,-2.7684,-2.7765,-2.8259,-2.8578,-2.8724,0.0,0.0,0.0,0.0,0.0,0.0,0.0,0.0,0.0,0.0,0.0,0.0,0.0,0.0,0.0,0.0,0.0,0.0,1.8394,2.7009,3.2164,3.2482,3.1671,3.1529,3.2314,2.3387,1.4271,0.5167,-0.4959,-1.5149,-2.5145,-2.7154,-2.8735,-2.9922,-3.1462,-3.2416,-3.2938,-3.358,-3.4374,-3.5166,-3.5185,-3.5201,-3.5032,-3.3006,-2.9059,-2.3873,-1.8248,-1.1674,-0.5387,-0.4091,-0.0991,0.2364,0.3105,0.4441,0.5758,0.5671,0.5217,0.4375,0.2741,0.2663,0.2584,0.0628,0.0549,0.047,-0.1568,-0.2038,-0.235,-0.3443,-0.3816,-0.3857,-0.3942,-0.4865,-0.563,-0.563,-0.6428,-0.7139,-0.7139,-0.8962,-1.0173,-0.996,-1.1817,-1.3037,-1.2753,-1.2973,-1.388,-1.5846,-1.6238,-1.7282,-1.9213,-1.9723,-2.0136,-2.0512,-2.0924,-2.1328,-2.1731,-2.1741,-2.1909,-2.2353,-2.2706,-2.3387,-2.4498,-2.4584,-2.5084,-2.5902,-2.5902,-2.6412,-2.7267,-2.7185,-2.7672,-2.851,-2.851,-2.851,-2.851,-2.851,-2.851,-2.859,0.0,0.0,0.0,0.0,0.0,0.0,0.0,0.0,0.0,0.0,0.0,0.0,0.0,0.0,0.0,0.0,0.0,0.0,0.9442,1.1938,1.3431,1.3551,1.3424,1.347,1.3729,1.0845,0.4687,-0.4888,-0.7611,-1.4421,-2.4925,-2.6012,-2.7485,-2.9231,-3.0707,-3.19,-3.2782,-3.3291,-3.4006,-3.4768,-3.4928,-3.4285,-3.291,-2.9857,-2.4213,-1.727,-1.2022,-0.5151,0.1395,0.0524,0.3328,0.7067,0.6213,0.7073,0.8143,0.6927,0.6079,0.5223,0.3746,0.3205,0.2896,0.1879,0.1721,0.1565,0.0392,0.0,-0.0548,-0.2036,-0.2036,-0.1933,-0.26,-0.3821,-0.4645,-0.4645,-0.6071,-0.7139,-0.7139,-0.8962,-1.023,-1.0173,-1.207,-1.3308,-1.3043,-1.3022,-1.3848,-1.5649,-1.6129,-1.7282,-1.9213,-1.998,-2.042,-2.0512,-2.1209,-2.163,-2.1741,-2.1741,-2.183,-2.2185,-2.3125,-2.38,-2.4221,-2.583,-2.6588,-2.6846,-2.6846,-2.7348,-2.8099,-2.7429,-2.7672,-2.851,-2.851,-2.851,-2.851,-2.851,-2.8578,-2.8724,0.0,0.0,0.0,0.0,0.0,0.0,0.0,0.0,0.0,0.0,0.0,0.0,0.0,0.0,0.0,0.0,0.0,0.0,0.0,0.2757,0.7433,1.1826,0.8179,0.8145,1.2628,0.4773,-0.2015,-0.7383,-1.1838,-1.7243,-2.3526,-2.5025,-2.6512,-2.8025,-2.9626,-3.0875,-3.1828,-3.2684,-3.3615,0.0,0.0,-3.4012,-3.2152,-2.7858,-2.1556,-1.4128,-0.7639,-0.0141,0.6485,0.5666,0.6791,0.858,0.8827,0.9221,0.9301,0.808,0.7234,0.6384,0.483,0.4373,0.4066,0.2895,0.2737,0.2581,0.1175,0.0783,0.0235,-0.1176,-0.1305,-0.1263,-0.1681,-0.3129,-0.4287,-0.4109,-0.58,-0.7248,-0.7849,-0.9349,-1.0653,-1.1015,-1.2597,-1.361,-1.3327,-1.3175,-1.39,-1.5742,-1.6106,-1.7095,-1.9073,-1.9998,-2.0521,-2.0521,-2.131,-2.1741,-2.1741,-2.1741,-2.1909,-2.2264,-2.329,-2.4135,-2.4893,-2.6505,-2.7429,-2.7765,-2.7765,-2.8018,-2.8431,-2.7926,-2.8099,-2.851,-2.851,-2.851,-2.851,-2.851,-2.8578,-2.8736,0.0,0.0,0.0,0.0,0.0,0.0,0.0,0.0,0.0,0.0,0.0,0.0,0.0,0.0,0.0,0.0,0.0,0.0,0.0,0.0,0.4358,1.2692,0.6918,0.7055,1.4676,0.1105,-0.6667,-0.7817,-1.6576,-2.1239,-2.1992,-2.4147,-2.5644,-2.6596,-2.845,-2.9778,-3.0673,-3.2033,-3.3293,-3.432,-3.4579,-3.3519,-3.1153,0.0,-1.9056,-1.1919,-0.3476,0.3919,0.982,1.0212,0.9437,0.8661,1.0645,1.0663,0.9685,0.8988,0.8309,0.7472,0.6002,0.5854,0.5625,0.391,0.3754,0.3597,0.1721,0.1018,0.0549,-0.0471,-0.0979,-0.1179,-0.1011,-0.2697,-0.402,-0.3929,-0.5622,-0.7269,-0.8477,-0.9766,-1.0828,-1.1838,-1.3014,-1.3719,-1.36,-1.3355,-1.3931,-1.5747,-1.5986,-1.6891,-1.8851,-1.9934,-2.0567,-2.0677,-2.1365,-2.1741,-2.1741,-2.1741,-2.1909,-2.2344,-2.3454,-2.4553,-2.5735,-2.6835,-2.7765,-2.851,-2.851,-2.851,-2.851,-2.851,-2.851,-2.851,-2.851,-2.851,-2.851,-2.851,-2.851,-2.851,0.0,0.0,0.0,0.0,0.0,0.0,0.0,0.0,0.0,0.0,-1.7314,-1.7952,0.0,0.0,0.0,0.0,0.0,0.0,0.0,0.0,0.0,-1.749,-0.9447,-0.754,-1.2978,-0.8504,-1.0086,-1.8291,-1.9843,-2.1376,-2.2871,-2.3774,-2.4757,-2.5805,-2.7817,-2.9383,-3.0521,-3.2148,-3.343,-3.4294,-3.3386,-3.0333,-2.5618,-1.9014,0.0,0.0,0.4408,0.8187,0.915,1.0507,1.0426,0.9884,1.0507,1.0207,0.9604,0.9458,0.8699,0.7706,0.7472,0.7092,0.6475,0.5625,0.547,0.5157,0.3673,0.2581,0.1643,0.0784,-0.0326,-0.1011,-0.1011,-0.2003,-0.3132,-0.4109,-0.509,-0.6077,-0.7262,-0.8599,-0.982,-1.0833,-1.212,-1.3166,-1.3806,-1.3766,-1.4013,-1.4609,-1.5741,-1.7078,-1.8904,-1.9916,-2.0824,-2.1502,-2.1667,-2.1741,-2.1741,-2.1741,-2.1741,-2.182,-2.3856,-2.4957,-2.5294,-2.7325,-2.8351,-2.851,-2.851,-2.851,-2.851,-2.851,-2.851,-2.851,-2.851,-2.851,-2.851,-2.851,-2.851,-2.851,0.0,0.0,0.0,0.0,0.0,0.0,0.0,-1.6594,-1.6742,-1.7401,-1.7245,-1.756,-1.8926,-1.9722,-2.0401,0.0,0.0,0.0,0.0,0.0,0.0,0.0,0.0,0.0,-0.6569,-0.6377,-0.8638,-1.3271,0.0,-1.6624,-2.2482,-2.4147,-2.5342,-2.615,-2.859,-3.0197,-3.1114,-3.2621,-3.3264,-3.3065,-3.0869,-2.7512,-2.2972,0.0,0.0,0.0,0.725,0.9135,0.9003,1.1031,1.0801,0.9674,1.0276,1.0351,1.0132,0.9841,0.9084,0.8165,0.7859,0.7553,0.7169,0.617,0.5864,0.547,0.3832,0.2973,0.2113,0.0706,-0.0163,-0.0673,-0.0758,-0.183,-0.2776,-0.295,-0.4467,-0.5913,-0.6959,-0.8356,-0.9766,-1.1455,-1.2231,-1.3075,-1.4028,-1.4011,-1.4078,-1.4579,-1.5584,-1.6782,-1.8078,-1.965,-2.0787,-2.1392,-2.1621,-2.1741,-2.1741,-2.1741,-2.1998,-2.2687,-2.4286,-2.5378,-2.6047,-2.7742,-2.851,-2.851,-2.851,-2.851,-2.851,-2.851,-2.851,-2.851,-2.851,-2.851,-2.851,-2.851,-2.851,-2.851,0.0,0.0,0.0,0.0,0.0,0.0,0.0,-1.6881,-1.7028,-1.7461,-1.752,-1.7638,-1.8037,-1.9145,-2.0153,0.0,0.0,0.0,0.0,0.0,0.0,0.0,0.0,0.0,-0.0213,0.0,0.0,-0.9479,-0.9979,0.0,0.0,0.0,0.0,0.0,-2.8551,-2.9867,-3.0321,-3.1569,-3.1541,0.0,0.0,-2.3913,-1.9975,0.0,0.0,0.0,0.0,0.8836,0.9226,1.1174,1.0875,0.9825,1.0496,1.0651,1.0513,1.0218,0.9463,0.8623,0.8089,0.8012,0.7706,0.6553,0.6247,0.5702,0.3988,0.3209,0.2348,0.0784,0.0,-0.0418,-0.0504,-0.1649,-0.2408,-0.2057,-0.3755,-0.5476,-0.6641,-0.7823,-0.9405,-1.1822,-1.2273,-1.2926,-1.4196,-1.4088,-1.4139,-1.4508,-1.5533,-1.6539,-1.7702,-1.9448,-2.0613,-2.1089,-2.1429,-2.1649,-2.1741,-2.1741,-2.2246,-2.3454,-2.4542,-2.563,-2.673,-2.7914,-2.8431,-2.851,-2.851,-2.851,-2.851,-2.851,-2.851,-2.851,-2.851,-2.851,-2.851,-2.851,-2.851,-2.851,0.0,0.0,0.0,0.0,0.0,0.0,0.0,-1.7716,-1.7638,-1.7638,-1.8104,-1.8375,-1.8442,-1.9278,-1.918,0.0,0.0,0.0,0.0,0.0,0.0,0.0,0.0,0.0,0.0,0.0,0.0,-2.0161,-2.0273,0.0,0.0,0.0,0.0,0.0,0.0,-2.6161,-2.5931,-2.6864,0.0,0.0,0.0,0.0,0.0,0.0,0.0,0.0,0.0,0.8206,0.982,1.0045,1.0944,1.1929,1.1477,1.0576,0.9825,1.0513,0.976,0.8699,0.8627,0.8627,0.847,0.7783,0.7246,0.6475,0.5384,0.3906,0.2662,0.2117,0.0721,-0.0411,-0.0419,-0.0858,-0.1493,-0.2591,-0.2776,-0.3491,-0.5552,-0.6204,-0.7573,-1.0487,-1.1125,-1.2145,-1.41,-1.4292,-1.4075,-1.3641,-1.5134,-1.6982,-1.9252,-1.977,-2.0328,-2.1089,-2.1145,-2.1346,-2.1731,-2.1741,-2.2157,-2.3183,-2.4276,-2.5378,-2.6565,-2.7753,-2.8351,-2.851,-2.851,-2.851,-2.851,-2.851,-2.851,-2.851,-2.851,-2.851,-2.851,-2.851,-2.851,-2.851,0.0,0.0,0.0,0.0,0.0,0.0,-1.8008,-1.793,-1.7716,-1.7285,-1.7696,-1.7833,-1.7423,-1.822,-1.8499,-1.7774,0.0,0.0,0.0,0.0,0.0,0.0,0.0,0.0,0.0,0.0,-0.3225,-0.8121,-0.8157,0.0,0.0,0.0,0.0,0.0,0.0,-2.151,-2.1505,-2.2126,0.0,0.0,0.0,0.0,0.0,0.0,0.0,0.0,0.0,0.0,0.9301,1.0276,1.1105,1.1781,1.2077,1.1552,1.0956,1.1403,1.0507,0.9387,0.9387,0.9084,0.847,0.7476,0.7092,0.6475,0.4768,0.3915,0.3134,0.2038,0.1279,0.0573,-0.0084,-0.0428,-0.0875,-0.1429,-0.224,-0.3221,-0.4465,-0.54,-0.6913,-0.9524,-1.0522,-1.1707,-1.3204,-1.3902,-1.4515,-1.505,-1.5701,-1.6894,-1.8985,-1.9553,-2.0072,-2.0393,-2.0631,-2.0943,-2.1355,-2.1355,-2.2254,-2.3973,-2.4542,-2.5724,-2.7348,-2.7926,-2.8339,-2.851,-2.851,-2.851,-2.851,-2.851,-2.851,-2.851,-2.851,-2.851,-2.851,-2.851,-2.851,-2.851,0.0,0.0,0.0,0.0,0.0,-1.7304,-1.7304,-1.7304,-1.7226,-1.6932,-1.7217,-1.7364,-1.7028,-1.7706,-1.8124,-1.8046,-1.8936,0.0,0.0,0.0,0.0,0.0,0.0,0.0,0.0,0.0,-0.2872,-0.3517,-0.3567,-0.7021,0.0,0.0,-1.5205,-1.5395,0.0,0.0,0.0,0.0,0.0,0.0,0.0,0.0,0.0,0.0,0.0,0.0,0.0,0.0,0.0,0.0,0.0,1.1105,1.215,1.2077,1.1632,1.1929,1.0962,0.9846,0.9922,0.9311,0.8475,0.7629,0.7249,0.663,0.4768,0.4151,0.3604,0.2194,0.1668,0.1214,0.0331,-0.0169,-0.052,-0.0885,-0.1786,-0.2686,-0.3487,-0.4727,-0.6285,-0.8421,-0.9755,-1.1106,-1.2518,-1.353,-1.4604,-1.5944,-1.5966,-1.6764,-1.8612,-1.9273,-1.9724,-1.9925,-2.02,-2.0539,-2.0934,-2.0934,-2.2006,-2.4084,-2.4231,-2.5469,-2.7646,-2.7794,-2.8116,-2.851,-2.851,-2.851,-2.851,-2.851,-2.851,-2.851,-2.851,-2.851,-2.851,-2.851,-2.851,-2.851,0.0,0.0,0.0,0.0,0.0,0.0,-1.5745,-1.5745,-1.6026,-1.6793,-1.6932,-1.7148,-1.794,-1.8008,-1.793,-1.7706,-1.8046,0.0,0.0,0.0,0.0,0.0,0.0,0.0,0.0,0.0,-1.146,-1.3647,-1.3647,-1.3626,-1.3591,-1.3629,-1.3946,-1.4534,0.0,0.0,0.0,0.0,0.0,0.0,0.0,0.0,0.0,0.0,0.0,0.0,0.0,0.0,0.0,0.0,0.0,0.0,0.0,1.1855,1.1484,1.1855,1.0887,0.962,0.9846,0.9311,0.8703,0.8699,0.8093,0.7169,0.5841,0.4996,0.3992,0.2744,0.2038,0.1422,0.0727,0.0083,-0.0593,-0.1299,-0.1416,-0.1793,-0.2777,-0.3824,-0.5247,-0.7252,-0.8644,-1.0196,-1.2304,-1.3118,-1.4153,-1.5696,-1.5756,-1.6617,-1.8612,-1.8931,-1.9272,-1.9916,-1.9934,-2.0127,-2.0521,-2.0521,-2.1339,-2.3122,-2.3132,-2.4491,-2.7082,-2.7082,-2.7601,-2.851,-2.851,-2.851,-2.851,-2.851,-2.851,-2.851,-2.851,-2.851,-2.851,-2.851,-2.851,-2.851,0.0,0.0,0.0,0.0,0.0,0.0,0.0,-1.5675,-1.5604,-1.5384,-1.6228,-1.6793,-1.6446,-1.7226,-1.7638,-1.7217,-1.7619,0.0,0.0,0.0,0.0,0.0,0.0,0.0,0.0,0.0,-0.7704,-0.838,-0.7991,-0.7762,-0.7745,-0.7745,-0.7822,-0.7982,-0.7483,-0.7125,0.0,0.0,0.0,0.0,0.0,0.0,-0.0078,0.0,0.0,0.0,0.0,0.0,0.0,0.0,0.0,0.0,0.0,0.0,0.0,1.1996,1.1855,1.1105,1.0501,0.9825,0.9074,0.794,0.7488,0.6868,0.5154,0.4613,0.4073,0.2744,0.2353,0.1975,0.1375,0.0662,0.0,-0.0606,-0.1061,-0.1793,-0.2777,-0.3778,-0.4894,-0.6241,-0.8629,-1.0762,-1.2128,-1.2796,-1.3941,-1.5681,-1.5756,-1.6617,-1.8612,-1.8922,-1.9136,-1.9494,-1.9503,-1.9696,-2.0118,-2.0665,-2.137,-2.2319,-2.3433,-2.4544,-2.5743,-2.6298,-2.6878,-2.7428,-2.7428,-2.7428,-2.7464,-2.7825,-2.7969,-2.8005,-2.8366,-2.851,-2.851,-2.851,-2.851,-2.851,0.0,0.0,0.0,0.0,0.0,0.0,0.0,-1.453,-1.453,-1.4601,-1.5666,-1.6237,-1.5745,-1.6724,-1.7148,-1.6515,-1.6498,0.0,0.0,0.0,0.0,0.0,0.0,0.0,-0.9567,-0.7901,-0.6842,-0.6314,-0.5553,-0.5326,-0.5476,-0.4851,-0.4543,-0.454,-0.3677,-0.3285,0.0,0.0,0.0,0.0,0.0,0.0,0.0627,0.0,0.0,0.0,0.0,0.0,0.0,0.0,0.0,0.0,0.0,0.0,0.0,0.0,1.17,1.1174,1.064,0.982,0.8775,0.7791,0.7492,0.7022,0.5544,0.4924,0.4304,0.321,0.2743,0.2286,0.1678,0.1234,0.0591,-0.0257,-0.0792,-0.1435,-0.2688,-0.3667,-0.486,-0.6335,-0.8802,-1.0726,-1.1329,-1.2433,-1.3684,-1.5032,-1.544,-1.637,-1.8112,-1.8603,-1.9002,-1.9301,-1.9301,-1.943,-1.9687,-2.0151,-2.0915,-2.191,-2.2919,-2.4029,-2.5318,-2.5786,-2.6356,-2.6935,-2.6935,-2.6935,0.0,-2.7284,-2.7428,-2.7452,-2.7789,-2.7921,-2.7921,-2.7921,-2.7921,-2.7921,0.0,0.0,0.0,0.0,0.0,0.0,0.0,-1.2599,-1.3025,-1.4322,-1.5171,-1.5604,-1.5604,-1.6376,-1.6515,-1.5675,0.0,0.0,0.0,0.0,0.0,0.0,0.0,0.0,-0.9205,-0.9054,-0.83,-0.6938,-0.6018,-0.5786,-0.5931,-0.4453,-0.3752,-0.3675,-0.2815,-0.2268,0.0,0.0,0.0,0.0,0.0,0.0,0.0,0.0,0.0,0.0,0.0,0.0,0.0,0.0,0.0,0.0,0.0,0.0,0.0,0.0,0.0,0.0,0.0,0.9296,0.8178,0.8102,0.7953,0.7565,0.6623,0.5696,0.0,0.391,0.3054,0.2354,0.1806,0.1631,0.1261,0.0,-0.0262,-0.0896,-0.2508,-0.3667,-0.5129,-0.7154,-0.9062,-1.0135,-1.022,-1.1838,-1.3237,-1.3984,-1.4887,-1.5966,-1.7277,-1.8201,-1.8851,-1.9301,-1.9301,-1.9301,-1.9301,-1.9381,-2.0148,-2.169,-2.1832,-2.3134,-2.5433,-2.5507,-2.5988,-2.674,-2.6815,-2.6815,-2.6815,-2.6863,-2.6875,-2.6875,-2.6923,-2.6935,-2.6935,-2.6935,-2.6935,-2.6935,0.0,0.0,0.0,0.0,0.0,0.0,0.0,0.0,0.0,0.0,-1.4402,-1.4887,-1.4887,-1.5525,-1.5666,0.0,0.0,0.0,0.0,0.0,0.0,0.0,0.0,0.0,-1.0432,-0.9301,-0.8232,-0.7165,-0.6237,-0.5231,-0.4068,-0.3679,-0.3209,-0.2737,-0.1722,-0.0784,0.0,0.0,0.0,0.0,0.0,0.0,0.0,0.0,0.0,0.0,0.3599,0.4455,0.0,0.0,0.0,0.0,0.0,0.0,0.0,0.0,0.9221,0.8313,0.8922,0.0,0.8623,0.7868,0.7638,0.7173,0.0,0.5157,0.4613,0.3134,0.2666,0.2446,0.241,0.2225,0.2025,0.1802,0.0968,0.0,-0.134,-0.3749,-0.5816,-0.7012,-0.8251,-0.9218,-0.9911,-1.1055,-1.233,-1.388,-1.4887,-1.5884,-1.7033,-1.8112,-1.8772,-1.9073,-1.9222,-1.9301,-1.9301,-1.9923,-2.0391,-2.0847,-2.208,-2.3119,-2.3886,-2.4664,-2.5169,-2.5565,-2.5625,-2.5685,-2.5721,-2.6129,-2.6298,-2.6334,-2.6767,-2.6935,-2.6935,-2.6935,-2.6935,-2.6935,0.0,0.0,0.0,0.0,0.0,0.0,0.0,0.0,0.0,0.0,0.0,-1.4466,-1.4122,-1.4752,0.0,0.0,0.0,0.0,0.0,0.0,0.0,0.0,0.0,-1.1403,-1.0282,-0.9528,-0.8542,-0.7322,-0.6468,-0.5538,-0.4688,-0.3521,-0.2818,-0.2425,-0.0862,-0.0078,0.0236,0.0,0.0,0.0,0.1257,0.0,0.0,0.0,0.0,0.0,0.3443,0.43,0.0,0.5467,0.6475,0.7561,0.0,0.0,0.0,0.0,0.8466,0.7714,0.847,0.8546,0.8165,0.7633,0.7484,0.7249,0.6318,0.5544,0.4768,0.3834,0.3057,0.2608,0.2831,0.2482,0.2115,0.2073,0.1148,-0.0179,-0.1699,-0.3662,-0.527,-0.634,-0.7654,-0.8873,-0.9836,-1.1144,-1.2351,-1.3372,-1.4216,-1.5213,-1.6363,-1.7448,-1.8353,-1.9002,-1.9231,-1.9301,-1.9301,-1.9766,-2.0148,-2.0537,-2.1842,-2.2745,-2.3327,-2.4334,-2.4921,-2.5111,-2.5241,-2.5312,-2.5336,-2.5612,-2.5733,-2.5769,-2.6069,-2.619,-2.619,-2.619,-2.619,-2.619,0.0,0.0,0.0,0.0,0.0,0.0,0.0,0.0,0.0,0.0,0.0,0.0,0.0,0.0,0.0,0.0,0.0,0.0,0.0,0.0,0.0,0.0,-1.2452,-1.1545,-0.9674,-0.9674,-0.8993,-0.7633,-0.6703,-0.616,-0.5851,-0.3595,-0.2504,-0.227,-0.0392,0.0157,-0.0157,0.0864,0.1335,0.1335,0.1335,0.0,0.0,0.0,0.0,0.0,0.0,0.0,0.0,0.4924,0.6012,0.7326,0.7484,0.0,0.0,0.0,0.0,0.0,0.8322,0.8016,0.7561,0.7484,0.7484,0.7484,0.7326,0.6163,0.5082,0.4927,0.3759,0.2767,0.3165,0.2737,0.2287,0.1996,0.0796,-0.0805,-0.2774,-0.3844,-0.4732,-0.5808,-0.7291,-0.8686,-0.9836,-1.1311,-1.2357,-1.2705,-1.3542,-1.4461,-1.5372,-1.6609,-1.7764,-1.8754,-1.9073,-1.9301,-1.9301,-1.9301,-1.9687,-2.0537,-2.1385,-2.2285,-2.3254,-2.4334,-2.4849,-2.5052,-2.5182,-2.5312,-2.5312,-2.5312,-2.5312,-2.5312,-2.5312,-2.5312,-2.5312,-2.5312,-2.5312,-2.5312,0.0,0.0,0.0,0.0,0.0,0.0,0.0,0.0,0.0,0.0,0.0,0.0,0.0,0.0,0.0,0.0,0.0,0.0,0.0,0.0,0.0,-1.1855,-1.1855,-1.1186,-0.9916,-0.9841,-0.9301,-0.8232,-0.723,-0.5996,-0.4683,-0.3366,-0.243,-0.1724,-0.0628,-0.0157,0.0,0.0942,0.1335,0.1335,0.1335,0.0,0.0,0.0,0.0,0.0,0.0,0.0,0.0,0.4768,0.5622,0.6553,0.7249,0.0,0.0,0.0,0.0,0.0,0.7633,0.7718,0.7723,0.7561,0.7484,0.7326,0.6549,0.5931,0.5312,0.4616,0.3995,0.3416,0.2817,0.3601,0.4083,0.3451,0.1154,-0.1332,-0.3481,-0.5356,-0.6694,-0.6874,-0.7136,-0.8009,-0.9749,-1.0183,-1.0966,-1.2613,-1.3542,-1.4041,-1.421,-1.6034,-1.7277,-1.7602,-1.8585,-1.9152,-1.9301,-1.9301,-1.9687,-2.0537,-2.1385,-2.222,-2.3065,-2.4116,-2.4646,-2.4861,-2.5052,-2.5182,-2.5312,-2.5312,-2.5312,-2.5312,-2.5312,-2.5312,-2.5312,-2.5312,-2.5312,-2.5382,0.0,0.0,0.0,0.0,0.0,0.0,0.0,0.0,0.0,0.0,0.0,0.0,0.0,0.0,0.0,0.0,0.0,0.0,0.0,0.0,-1.2157,-1.126,-1.1186,-1.0507,-0.8922,-0.8851,-0.808,-0.67,-0.6157,-0.5306,-0.438,-0.3446,-0.2744,-0.2196,-0.0863,-0.0471,-0.0627,0.0706,0.1335,0.1335,0.0,0.0,0.0,0.0,0.0,0.0,0.0,0.0,0.0,0.0,0.5544,0.6318,0.7249,0.0,0.0,0.0,0.0,0.0,0.7484,0.7642,0.7804,0.7723,0.7488,0.7253,0.6865,0.6012,0.5157,0.4771,0.4229,0.3657,0.308,0.3106,0.2726,0.1511,-0.0178,-0.1783,-0.3129,-0.4554,-0.5622,-0.6251,-0.6776,-0.7822,-0.9749,-1.0361,-1.123,-1.2619,-1.3039,-1.3542,-1.3957,-1.5455,-1.6617,-1.7359,-1.8425,-1.9073,-1.9301,-1.9301,-1.946,-1.9844,-2.0692,-2.1538,-2.2381,-2.3423,-2.4105,-2.4646,-2.4981,-2.5111,-2.5182,-2.5241,-2.5312,-2.5312,-2.5312,-2.5312,-2.5312,-2.5312,-2.5312,-2.5382,0.0,0.0,0.0,0.0,0.0,0.0,0.0,0.0,0.0,0.0,0.0,0.0,0.0,0.0,0.0,0.0,0.0,0.0,0.0,-1.1706,-1.1409,-1.0812,-1.0812,-0.9981,-0.8313,-0.8089,-0.7318,-0.578,-0.5392,-0.4849,-0.4229,-0.3602,-0.3057,-0.2668,-0.1177,-0.0706,-0.0862,0.0628,0.1335,0.1335,0.0,0.0,0.0,0.0,0.0,0.0,0.0,0.0,0.0,0.0,0.0,0.0,0.0,0.0,0.0,0.7484,0.7484,0.7484,0.7561,0.7723,0.7876,0.7953,0.7646,0.7334,0.7257,0.6247,0.5315,0.516,0.446,0.3736,0.3497,0.2711,0.1639,0.0267,-0.1073,-0.2146,-0.3042,-0.402,-0.4999,-0.5897,-0.6681,-0.7815,-0.9749,-1.0534,-1.1494,-1.2613,-1.2705,-1.2954,-1.3626,-1.4789,-1.5951,-1.7017,-1.8095,-1.8913,-1.9301,-1.9301,-1.9301,-1.9301,-2.0304,-2.1155,-2.1832,-2.2957,-2.3875,-2.449,-2.4849,-2.5052,-2.5111,-2.5241,-2.5312,-2.5312,-2.5312,-2.5312,-2.5312,-2.5312,-2.5312,-2.5382,0.0,0.0,0.0,0.0,0.0,0.0,0.0,0.0,0.0,0.0,0.0,0.0,0.0,0.0,0.0,0.0,0.0,0.0,0.0,-1.1706,-1.1409,-1.0812,-1.0812,-1.0132,-0.8699,-0.8623,-0.8237,-0.731,-0.616,-0.5004,-0.3841,-0.3763,-0.3294,-0.251,-0.1646,-0.0784,0.0,0.0942,0.1335,0.1335,0.1335,0.0,0.0,0.0,0.0,0.0,0.0,0.0,0.0,0.0,0.0,0.0,0.0,0.0,0.7484,0.7484,0.7484,0.7561,0.7723,0.7953,0.8102,0.8327,0.8174,0.7872,0.7334,0.6795,0.6331,0.5712,0.4616,0.381,0.3826,0.3298,0.2677,0.2322,-0.0178,-0.2492,-0.366,-0.5622,-0.6874,-0.6962,-0.7051,-0.7837,-0.9749,-0.9923,-1.0788,-1.2528,-1.2705,-1.2705,-1.279,-1.3886,-1.4963,-1.6085,-1.7188,-1.8256,-1.9301,-1.9301,-1.9301,-1.9301,-2.0914,-2.1766,-2.1842,-2.3434,-2.4273,-2.449,-2.4718,-2.4921,-2.5111,-2.5241,-2.5312,-2.5312,-2.5312,-2.5312,-2.5312,-2.5312,-2.5312,-2.5511,0.0,0.0,0.0,0.0,0.0,0.0,0.0,0.0,0.0,0.0,0.0,0.0,0.0,0.0,0.0,0.0,0.0,0.0,0.0,-1.0588,-1.0519,-1.0218,-1.0218,-0.9528,-0.8003,-0.7693,-0.6846,-0.5538,-0.4846,-0.4229,-0.3763,-0.3215,-0.2824,-0.2431,-0.1097,-0.0313,0.0078,0.0942,0.1335,0.1335,0.1335,0.1572,0.0,0.0,0.0,0.0,0.0,0.0,0.0,0.0,0.5004,0.5312,0.6938,0.7484,0.7484,0.7484,0.7565,0.7723,0.7804,0.803,0.8358,0.8563,0.8595,0.8403,0.7277,0.6709,0.6123,0.5422,0.4857,0.4449,0.3991,0.235,0.1256,0.161,-0.098,-0.3209,-0.3838,-0.5711,-0.7139,-0.7139,-0.7139,-0.7837,-0.9749,-0.9923,-1.0702,-1.2534,-1.2705,-1.2705,-1.2705,-1.4223,-1.5296,-1.6003,-1.7521,-1.8674,-1.9301,-1.9301,-1.9301,-1.9301,-1.9913,-2.076,-2.1842,-2.2446,-2.3276,-2.4345,-2.4502,-2.4718,-2.4921,-2.5123,-2.5241,-2.5312,-2.5312,-2.5312,-2.5382,-2.5791,-2.6,-2.6139,0.0,0.0,0.0,0.0,0.0,0.0,0.0,0.0,0.0,0.0,0.0,0.0,0.0,0.0,0.0,0.0,0.0,0.0,-0.9922,-0.9922,-0.9922,-0.9922,-0.9922,-0.915,-0.754,-0.7073,-0.6076,-0.4621,-0.4153,-0.3919,-0.3763,-0.2902,-0.2353,-0.2038,-0.0627,0.0157,0.047,0.1021,0.1335,0.1335,0.1336,0.1572,0.0,0.0,0.0,0.0,0.0,0.0,0.0,0.0,0.4768,0.5234,0.663,0.7249,0.7484,0.7484,0.7642,0.7804,0.7876,0.8227,0.8517,0.8438,0.8625,0.8409,0.6913,0.6513,0.6265,0.5196,0.5075,0.4784,0.3789,0.2099,0.0987,0.1164,-0.1251,-0.3304,-0.3749,-0.5442,-0.6786,-0.7051,-0.7139,-0.7749,-0.9318,-0.9749,-1.0529,-1.21,-1.2534,-1.2705,-1.2705,-1.3964,-1.5039,-1.6003,-1.7261,-1.8425,-1.9301,-1.9301,-1.9301,-1.9301,-1.9301,-2.0148,-2.1842,-2.2295,-2.3128,-2.42,-2.4418,-2.4574,-2.4718,-2.4981,-2.5182,-2.5312,-2.5312,-2.5312,-2.5382,-2.5861,-2.6208,-2.6483,0.0,0.0,0.0,0.0,0.0,0.0,0.0,0.0,0.0,0.0,0.0,0.0,0.0,0.0,0.0,0.0,0.0,0.0,-0.9922,-0.9922,-0.9922,-0.9922,-0.9922,-0.915,-0.754,-0.6996,-0.6157,-0.5018,-0.4621,-0.4151,-0.3763,-0.2902,-0.2038,-0.1254,-0.0392,0.047,0.1335,0.1335,0.1335,0.1335,0.1493,0.1729,0.1886,0.0,0.0,0.0,0.0,0.0,0.0,0.0,0.43,0.516,0.5931,0.6784,0.7484,0.7484,0.7642,0.788,0.803,0.8403,0.858,0.7987,0.8062,0.7914,0.6315,0.6595,0.6738,0.5271,0.5205,0.4895,0.3195,0.2912,0.2508,0.1524,-0.0537,-0.2413,-0.3479,-0.4819,-0.6071,-0.6959,-0.7136,-0.7485,-0.8364,-0.9318,-1.0269,-1.1235,-1.2186,-1.2705,-1.2705,-1.2966,-1.3957,-1.5921,-1.6265,-1.7334,-1.9301,-1.9301,-1.9301,-1.9301,-1.9301,-2.0226,-2.1842,-2.3434,-2.42,-2.42,-2.4418,-2.449,-2.4562,-2.4909,-2.5182,-2.5312,-2.5312,-2.5312,-2.5312,-2.5312,-2.5791,-2.6483,0.0,0.0,0.0,0.0,0.0,0.0,0.0,0.0,0.0,0.0,0.0,0.0,0.0,0.0,0.0,0.0,0.0,0.0,-0.9922,-0.9922,-0.9922,-0.9922,-0.9922,-0.915,-0.754,-0.624,-0.5085,-0.4155,-0.4075,-0.3604,-0.2901,-0.2038,-0.1175,-0.0313,0.0549,0.1021,0.1335,0.1335,0.1335,0.1335,0.1336,0.1572,0.1887,0.0,0.0,0.0,0.0,0.0,0.0,0.0,0.0,0.0,0.5931,0.6784,0.7484,0.7484,0.7642,0.788,0.803,0.7987,0.7892,0.7964,0.7744,0.7308,0.6341,0.6275,0.6185,0.5196,0.4092,0.3446,0.3551,0.2109,0.0943,0.1371,-0.0428,-0.2222,-0.3331,-0.4522,-0.5633,-0.6658,-0.6831,-0.7208,-0.8255,-0.8602,-0.9515,-1.1139,-1.1585,-1.2015,-1.2619,-1.3379,-1.4371,-1.5771,-1.6609,-1.7764,-1.9073,-1.9231,-1.9301,-1.9301,-1.9844,-2.0769,-2.1842,-2.2295,-2.3128,-2.42,-2.4273,-2.4345,-2.4562,-2.4909,-2.5182,-2.5312,-2.5312,-2.5312,-2.5382,-2.5861,-2.6208,-2.6552,0.0,0.0,0.0,0.0,0.0,0.0,0.0,0.0,0.0,0.0,0.0,0.0,0.0,0.0,0.0,0.0,0.0,0.0,0.0,-0.9922,-0.9922,-0.9922,-0.9922,-0.9074,-0.7387,-0.5625,-0.4467,-0.3921,-0.3997,-0.3526,-0.251,-0.1646,-0.0862,0.0,0.0942,0.1335,0.1335,0.1335,0.1335,0.1335,0.1415,0.1572,0.1807,0.0,0.0,0.0,0.0,0.0,0.0,0.0,0.0,0.0,0.5467,0.6318,0.7015,0.7015,0.7096,0.7249,0.7246,0.7138,0.7122,0.7238,0.6976,0.6607,0.5918,0.575,0.5586,0.5167,0.4014,0.3169,0.3362,0.1831,0.0589,0.0841,-0.0336,-0.1594,-0.2598,-0.3517,-0.4601,-0.5939,-0.6194,-0.6585,-0.7665,-0.8102,-0.8939,-1.0605,-1.1063,-1.1671,-1.2619,-1.3209,-1.4041,-1.5115,-1.6198,-1.7269,-1.8496,-1.8984,-1.9222,-1.9301,-1.9766,-2.0459,-2.1298,-2.1993,-2.2979,-2.42,-2.4273,-2.4418,-2.4562,-2.4909,-2.5182,-2.5241,-2.5312,-2.5441,-2.5791,-2.6208,-2.6744,-2.7324,0.0,0.0,0.0,0.0,0.0,0.0,0.0,0.0,0.0,0.0,0.0,0.0,0.0,0.0,0.0,0.0,0.0,0.0,0.0,-0.9922,-0.9922,-0.9922,-0.9765,-0.8922,-0.7238,-0.5389,-0.4387,-0.4157,-0.4309,-0.368,-0.2353,-0.1646,-0.0784,0.0157,0.0942,0.1335,0.1335,0.1335,0.1335,0.1335,0.1493,0.1572,0.165,0.1808,0.0,0.0,0.0,0.0,0.0,0.0,0.0,0.0,0.4691,0.5467,0.6163,0.6163,0.6314,0.6388,0.6079,0.6175,0.6248,0.5967,0.5953,0.5937,0.5196,0.5018,0.5048,0.5148,0.4442,0.3577,0.2824,0.1919,0.1003,0.0167,-0.0167,-0.0669,-0.1667,-0.2167,-0.3082,-0.4821,-0.524,-0.5797,-0.6806,-0.7661,-0.8581,-0.9735,-1.0621,-1.158,-1.2528,-1.2619,-1.3203,-1.4364,-1.5199,-1.6273,-1.7658,-1.8496,-1.8984,-1.9301,-1.9301,-1.9687,-2.0537,-2.2155,-2.3372,-2.42,-2.4418,-2.449,-2.4574,-2.4909,-2.5123,-2.5111,-2.5241,-2.5721,-2.6289,-2.6346,-2.7204,-2.8298,0.0,0.0,0.0,0.0,0.0,0.0,0.0,0.0,0.0,0.0,0.0,0.0,0.0,0.0,0.0,0.0,0.0,0.0,0.0,-0.9922,-0.9922,-0.9922,-0.8689,-0.7846,-0.7464,-0.578,-0.4781,-0.4545,-0.4153,-0.3134,-0.1568,-0.141,-0.047,0.1021,0.1178,0.1335,0.1335,0.1335,0.1335,0.1335,0.1335,0.1493,0.165,0.1808,0.1887,0.0,0.0,0.0,0.0,0.0,0.0,0.0,0.3986,0.5074,0.6163,0.6163,0.624,0.6314,0.6388,0.587,0.5344,0.5392,0.5338,0.5202,0.5021,0.5018,0.5023,0.5048,0.3864,0.2764,0.254,0.1353,0.0239,0.0,-0.008,-0.0478,-0.1512,-0.175,-0.2542,-0.452,-0.4838,-0.5402,-0.6639,-0.6913,-0.7528,-0.869,-0.9666,-1.0621,-1.1585,-1.2272,-1.3124,-1.4041,-1.4448,-1.5606,-1.7432,-1.7836,-1.8399,-1.9301,-1.9301,-1.9687,-2.0537,-2.1614,-2.283,-2.42,-2.4273,-2.4418,-2.4718,-2.4861,-2.5052,-2.5241,-2.5312,-2.5382,-2.5581,-2.6208,-2.662,-2.7002,0.0,0.0,0.0,0.0,0.0,0.0,0.0,0.0,0.0,0.0,0.0,0.0,0.0,0.0,0.0,0.0,0.0,0.0,0.0,0.0,-0.9922,-0.9922,-0.8694,-0.7927,-0.754,-0.6163,-0.5162,-0.4701,-0.4309,-0.321,-0.1411,-0.1332,-0.0392,0.1335,0.1335,0.1335,0.1335,0.1335,0.1335,0.1335,0.1335,0.1336,0.1493,0.1572,0.1335,0.1098,0.1727,0.0,0.0,0.0,0.0,0.0,0.0,0.0,0.4921,0.4996,0.5074,0.4996,0.4921,0.4457,0.4229,0.4768,0.4774,0.4779,0.4937,0.5018,0.5018,0.5018,0.3679,0.2503,0.2503,0.1097,0.0,0.0,0.0,-0.0157,-0.0784,-0.0941,-0.1568,-0.3207,-0.3752,-0.4617,-0.6001,-0.645,-0.7242,-0.8428,-0.8973,-0.9845,-1.1241,-1.1757,-1.2437,-1.3372,-1.3957,-1.4782,-1.5944,-1.7009,-1.7908,-1.8559,-1.9054,-1.9687,-2.0537,-2.1766,-2.283,-2.3677,-2.4116,-2.449,-2.4646,-2.4849,-2.5052,-2.5182,-2.5241,-2.5511,-2.5931,-2.6676,-2.7136,-2.7591,0.0,0.0,0.0,0.0,0.0,0.0,0.0,0.0,0.0,0.0,0.0,0.0,0.0,0.0,0.0,0.0,0.0,0.0,0.0,0.0,0.0,-0.9922,-0.916,-0.8313,-0.754,-0.6465,-0.5544,-0.4779,-0.454,-0.3443,-0.1645,-0.141,-0.0392,0.1335,0.1335,0.1335,0.1335,0.1335,0.1335,0.1335,0.1335,0.1178,0.1099,0.1099,0.0549,-0.0078,0.0863,0.0784,0.047,0.1334,0.0,0.0,0.0,0.0,0.3368,0.3677,0.3754,0.3677,0.3294,0.3139,0.3295,0.4073,0.4307,0.4384,0.4779,0.4859,0.4859,0.4937,0.3679,0.2503,0.2503,0.1097,0.0,0.0,0.0,0.0,0.0,-0.0157,-0.0707,-0.1803,-0.2815,-0.3978,-0.5333,-0.6197,-0.7158,-0.8165,-0.8368,-0.924,-1.0971,-1.1235,-1.1757,-1.2705,-1.3372,-1.3951,-1.4364,-1.6026,-1.718,-1.7738,-1.8807,-1.9608,-2.0391,-2.2004,-2.2852,-2.3075,-2.4055,-2.449,-2.4502,-2.4921,-2.5052,-2.5111,-2.5241,-2.5652,-2.6277,-2.7015,-2.7723,-2.8441,0.0,0.0,0.0,0.0,0.0,0.0,0.0,0.0,0.0,0.0,-0.5093,0.0,0.0,0.0,0.0,0.0,0.0,0.0,0.0,0.0,0.0,-0.9922,-0.916,-0.8313,-0.754,-0.6623,-0.578,-0.4937,-0.4621,-0.3521,-0.1877,-0.1644,-0.0549,0.1335,0.1335,0.1335,0.1335,0.1335,0.1335,0.1335,0.1335,0.0863,0.0157,0.0392,-0.0235,-0.1097,-0.0705,-0.0627,-0.0548,0.0235,0.0627,0.0,0.0,0.0,0.321,0.3368,0.3446,0.3524,0.3677,0.3448,0.3217,0.3763,0.3841,0.3997,0.4384,0.4231,0.4155,0.4859,0.3679,0.2503,0.2503,0.1097,0.0,0.0,0.0,0.0,0.0,-0.0157,-0.0707,-0.1803,-0.2815,-0.3978,-0.5333,-0.6197,-0.682,-0.7295,-0.8017,-0.8973,-1.0009,-1.0885,-1.1757,-1.2705,-1.279,-1.3366,-1.4364,-1.4692,-1.5764,-1.7738,-1.8807,-1.9381,-1.9529,-2.1231,-2.2381,-2.3075,-2.3897,-2.4345,-2.4502,-2.4718,-2.4921,-2.5111,-2.5241,-2.5382,-2.5523,-2.6277,-2.7015,-2.7736,0.0,0.0,0.0,0.0,0.0,0.0,0.0,0.0,0.0,0.0,0.0,-0.5018,0.0,0.0,0.0,0.0,0.0,0.0,0.0,0.0,0.0,-0.9922,-0.9539,-0.877,-0.7536,-0.7157,-0.6318,-0.5018,-0.4857,-0.407,-0.2735,-0.2504,-0.1097,0.1257,0.0785,0.0863,0.1335,0.1335,0.1021,0.0549,0.0549,0.0078,-0.0705,-0.0627,-0.1175,-0.1882,-0.1332,-0.1331,-0.1487,-0.0861,-0.047,-0.0157,0.0235,0.0,0.0,0.0,0.2272,0.2743,0.2976,0.2901,0.2902,0.3295,0.3374,0.353,0.3997,0.3919,0.3919,0.4233,0.3054,0.2113,0.2426,0.1097,0.0,0.0,-0.0079,-0.0157,-0.0157,-0.0314,-0.0707,-0.1256,-0.2582,-0.3742,-0.4672,-0.5945,-0.6824,-0.7115,-0.7492,-0.8101,-0.9061,-1.0014,-1.0971,-1.1929,-1.2448,-1.2954,-1.3451,-1.4531,-1.6265,-1.8416,-1.8904,-1.9222,-1.9381,-2.1068,-2.1993,-2.2381,-2.3666,-2.4345,-2.4502,-2.4574,-2.4849,-2.5111,-2.5182,-2.5523,-2.6,-2.6744,-2.7471,-2.8182,0.0,0.0,0.0,0.0,0.0,0.0,0.0,0.0,0.0,0.0,0.0,0.0,0.0,0.0,0.0,0.0,0.0,0.0,0.0,0.0,0.0,-0.9922,-0.9922,-0.9231,-0.7846,-0.7617,-0.6777,-0.5323,-0.5015,-0.4384,-0.3437,-0.3443,-0.1879,0.0863,0.0235,0.047,0.1257,0.1099,0.0628,0.0,-0.0235,-0.0862,-0.1568,-0.1568,-0.2117,-0.2744,-0.2116,-0.2193,-0.2504,-0.1802,-0.1489,-0.1254,-0.1097,-0.0627,0.0,0.0,0.0,0.2196,0.2353,0.2431,0.2511,0.2826,0.2982,0.3061,0.353,0.3528,0.3528,0.3763,0.2508,0.1646,0.2349,0.1019,-0.0157,-0.0157,-0.0314,-0.0393,-0.0393,-0.055,-0.0707,-0.0864,-0.2426,-0.3663,-0.4176,-0.5699,-0.6824,-0.7115,-0.7139,-0.7489,-0.8456,-0.9405,-1.0361,-1.1241,-1.2186,-1.2705,-1.2705,-1.4699,-1.669,-1.8594,-1.8834,-1.9073,-1.9381,-2.1068,-2.1832,-2.1907,-2.3508,-2.4273,-2.4418,-2.449,-2.4706,-2.4981,-2.5052,-2.5523,-2.6139,-2.6947,-2.767,-2.8376,0.0,0.0,0.0,0.0,0.0,0.0,0.0,0.0,0.0,0.0,0.0,0.0,-0.5018,-0.5705,-0.6468,-0.7387,-0.8161,-0.9003,-0.9841,-0.9922,-0.9922,-0.9922,-0.9922,0.0,-0.8627,-0.7923,-0.708,-0.6167,-0.5162,-0.4226,-0.3437,-0.4068,-0.2895,-0.0235,-0.0078,0.047,0.1257,0.0392,0.0078,-0.0078,-0.0862,-0.1724,-0.2431,-0.2431,-0.2979,-0.3763,-0.3684,-0.3684,-0.3606,-0.2744,-0.2431,-0.2275,-0.1489,-0.1254,-0.1019,0.0,0.0,0.0,0.2196,0.2196,0.2275,0.251,0.2511,0.2668,0.3062,0.2824,0.2824,0.3606,0.2275,0.1256,0.2275,0.0784,-0.055,-0.055,-0.055,-0.055,-0.055,-0.0786,-0.0864,-0.0864,-0.2584,-0.3903,-0.4176,-0.5699,-0.6824,-0.7115,-0.7139,-0.7489,-0.8456,-0.9405,-1.0361,-1.1241,-1.2186,-1.2705,-1.2705,-1.4699,-1.6281,-1.7521,-1.8505,-1.9073,-1.9381,-2.1068,-2.1832,-2.1907,-2.3508,-2.42,-2.42,-2.4418,-2.449,-2.4562,-2.4981,-2.5123,-2.5253,-2.6139,-2.6947,-2.767,0.0,0.0,0.0,0.0,0.0,0.0,0.0,0.0,0.0,0.0,0.0,0.0,0.0,-0.6012,-0.6546,-0.7387,-0.8237,-0.9003,-0.9841,-0.9922,-0.9922,-0.9922,-0.9922,-0.9539,-0.8703,-0.7927,-0.708,-0.6163,-0.5321,-0.4701,-0.4462,-0.4384,-0.36,-0.2113,-0.1879,-0.0939,0.0392,-0.047,-0.1097,-0.1646,-0.196,-0.2586,-0.3372,-0.3372,-0.3528,-0.3763,-0.3763,-0.3763,-0.3763,-0.345,-0.3372,-0.3294,-0.2978,-0.2508,-0.1882,-0.0784,0.0157,0.0941,0.1097,0.1568,0.2042,0.212,0.1885,0.1884,0.2433,0.2196,0.2117,0.2823,0.2117,0.149,0.1882,0.0549,-0.0471,-0.0079,-0.0471,-0.0786,-0.0786,-0.1021,-0.1178,-0.1178,-0.2196,-0.3271,-0.4093,-0.5277,-0.6223,-0.7031,-0.7139,-0.7228,-0.758,-0.8452,-0.9405,-1.0361,-1.1316,-1.2693,-1.4384,-1.5137,-1.646,-1.8282,-1.8612,-1.9002,-1.9301,-2.0459,-2.1308,-2.1832,-2.299,-2.3751,-2.42,-2.4273,-2.4345,-2.449,-2.4634,-2.5111,-2.5849,-2.6582,-2.7458,-2.8247,0.0,0.0,0.0,0.0,0.0,0.0,0.0,0.0,0.0,-0.5018,0.0,0.0,0.0,0.0,-0.708,-0.8228,-0.877,-0.9311,-0.9846,-0.9922,-0.9922,-0.9922,-0.9922,-0.9614,-0.9084,-0.8309,-0.7621,-0.7007,-0.5938,-0.5401,-0.5401,-0.4854,-0.4073,-0.3132,-0.3288,-0.227,-0.047,-0.1332,-0.2038,-0.2511,-0.2824,-0.3294,-0.3763,-0.3763,-0.3763,-0.3841,-0.3997,-0.4075,-0.4153,-0.4307,-0.4384,-0.4384,-0.4384,-0.368,-0.2585,-0.1724,-0.0862,-0.0157,0.0,0.0549,0.0942,0.102,0.1099,0.1098,0.1254,0.1411,0.1568,0.1646,0.1254,0.1097,0.1489,0.0471,-0.0314,0.0314,-0.0079,-0.0471,-0.0707,-0.0864,-0.1021,-0.1257,-0.2041,-0.2954,-0.4093,-0.5025,-0.5966,-0.7027,-0.7139,-0.7228,-0.7577,-0.8193,-0.9065,-1.0361,-1.1316,-1.2772,-1.4887,-1.5228,-1.6386,-1.8282,-1.8531,-1.8922,-1.9301,-2.0148,-2.1001,-2.1832,-2.2692,-2.3457,-2.42,-2.42,-2.4345,-2.4562,-2.4826,-2.5441,-2.6252,-2.7245,-2.8038,-2.8634,0.0,0.0,0.0,0.0,0.0,0.0,0.0,0.0,-0.5018,-0.5018,0.0,0.0,0.0,0.0,0.0,-0.9765,-0.9922,-0.9922,-0.9922,-0.9922,-0.9922,-0.9922,-0.9922,-0.9922,-0.9922,-0.9084,-0.8703,-0.8703,-0.7011,-0.6163,-0.6163,-0.5401,-0.4309,-0.321,-0.3992,-0.3288,-0.1411,-0.2196,-0.2511,-0.2588,-0.345,-0.3763,-0.3763,-0.3763,-0.3841,-0.3919,-0.4465,-0.4701,-0.4854,-0.5392,-0.5622,-0.5622,-0.5622,-0.4606,-0.3361,-0.2743,-0.196,-0.1254,0.0,0.0,0.0,-0.0705,-0.0078,0.0313,-0.047,0.0314,0.0942,0.0157,-0.0157,0.0078,0.1333,0.0549,-0.0157,0.0471,0.055,0.0393,-0.0236,-0.0314,-0.055,-0.1257,-0.2041,-0.2954,-0.4093,-0.5025,-0.5966,-0.7027,-0.7139,-0.7489,-0.8368,-0.8456,-0.9323,-1.1235,-1.2186,-1.3124,-1.3957,-1.4887,-1.6049,-1.744,-1.8282,-1.8922,-1.9301,-2.0148,-2.1001,-2.1832,-2.2692,-2.3457,-2.42,-2.42,-2.4345,-2.4562,-2.5417,-2.5894,-2.6308,-2.7907,-2.8492,-2.8634,0.0,0.0,0.0,0.0,0.0,-0.5018,-0.5018,-0.5018,-0.5018,0.0,0.0,0.0,-0.7003,-0.8385,-0.9382,-0.9846,-0.9922,-0.9922,-0.9922,-0.9922,-0.9922,-0.9922,-0.9922,-0.9922,-0.9922,-0.9084,-0.8703,-0.8703,-0.7011,-0.6163,-0.6163,-0.5243,-0.4621,-0.4229,-0.4233,-0.3841,-0.3292,-0.3372,-0.345,-0.345,-0.3684,-0.3763,-0.3763,-0.3763,-0.4075,-0.4467,-0.4623,-0.501,-0.5392,-0.5544,-0.5622,-0.5622,-0.5622,-0.5002,-0.4307,-0.4151,-0.3212,-0.2117,-0.2117,0.0,0.0,0.0,0.0,0.0,-0.0862,-0.0784,-0.0705,-0.047,-0.047,-0.0392,-0.0078,-0.0313,-0.0627,-0.0938,-0.047,-0.0079,-0.0314,-0.0707,-0.11,-0.1257,-0.2041,-0.2954,-0.4093,-0.5025,-0.5966,-0.7027,-0.7139,-0.7228,-0.7492,-0.8105,-0.9323,-1.1235,-1.1585,-1.2437,-1.3957,-1.4887,-1.6049,-1.744,-1.8282,-1.8922,-1.9301,-2.0148,-2.1001,-2.1832,-2.2692,-2.3457,-2.42,-2.42,-2.4345,-2.449,-2.4754,-2.537,-2.6252,-2.7178,-2.7973,-2.8634,0.0,0.0,0.0,0.0,0.0,-0.5018,-0.5018,-0.5018,-0.5018,0.0,0.0,0.0,-0.7851,-0.9155,-0.9922,-0.9922,-0.9922,-0.9922,-0.9922,-0.9922,-0.9922,-0.9922,-0.9922,-0.9922,-0.9922,-0.9463,-0.9236,-0.9236,-0.7851,-0.7084,-0.67,-0.5777,-0.5085,-0.4701,-0.4387,-0.4155,-0.4079,-0.3921,-0.3763,-0.3763,-0.3763,-0.3763,-0.3841,-0.4075,-0.4387,-0.4779,-0.5321,-0.5705,-0.6089,-0.6321,-0.6395,-0.6318,-0.6089,-0.5783,-0.5476,-0.5395,-0.4691,-0.4066,-0.4066,-0.3673,-0.3281,-0.2818,0.0,0.0,-0.2504,-0.2271,-0.2115,-0.2034,-0.1879,-0.1644,-0.1096,-0.1019,-0.1174,-0.156,-0.1405,-0.1173,-0.1019,-0.0942,-0.11,-0.1727,-0.2198,-0.3114,-0.4589,-0.5191,-0.5966,-0.7027,-0.7139,-0.7316,-0.7665,-0.8978,-1.0193,-1.1241,-1.1671,-1.2351,-1.3457,-1.472,-1.5884,-1.6846,-1.8112,-1.8922,-1.9301,-2.0148,-2.1001,-2.1832,-2.2692,-2.3457,-2.42,-2.42,-2.4345,-2.4562,-2.4897,-2.5511,-2.6252,-2.7311,-2.8025,-2.8634,0.0,0.0,-0.7617,-0.754,-0.6163,-0.5093,-0.5018,-0.5018,-0.5018,0.0,-0.5705,-0.6853,-0.8546,-0.9311,-0.9765,-0.9916,-0.9922,-0.9922,-0.9922,-0.9922,-0.9922,-0.9922,-0.9922,-0.9922,-0.9922,-0.9922,-0.9922,-0.9922,-0.9084,-0.8313,-0.7617,-0.6623,-0.5702,-0.4854,-0.454,-0.4309,-0.4157,-0.3921,-0.3763,-0.3763,-0.3763,-0.3763,-0.3841,-0.4467,-0.4787,-0.4951,-0.618,-0.6651,-0.6817,-0.7334,-0.7484,-0.7407,-0.6868,-0.6718,-0.6637,-0.6398,-0.6318,-0.624,-0.624,-0.624,-0.6086,-0.5162,-0.4375,0.0,-0.4771,-0.4068,-0.3441,-0.4144,-0.3992,-0.3368,-0.2271,-0.2036,-0.2112,-0.2182,-0.2565,-0.2643,-0.2109,-0.1331,-0.1255,-0.2586,-0.2744,-0.351,-0.5333,-0.5607,-0.6051,-0.7031,-0.7139,-0.7489,-0.8456,-1.0106,-1.1063,-1.1322,-1.21,-1.2619,-1.2705,-1.4468,-1.5628,-1.6003,-1.7853,-1.8922,-1.9301,-2.0148,-2.1001,-2.1832,-2.2692,-2.3457,-2.42,-2.42,-2.4345,-2.4562,-2.5487,-2.5963,-2.6389,-2.7973,-2.8556,-2.8698,0.0,-0.9155,-0.8237,-0.7617,-0.6623,-0.5783,-0.5093,-0.5018,-0.5018,-0.5018,-0.5705,-0.6853,-0.8546,-0.8851,-0.916,-0.9841,-0.9922,-0.9922,-0.9922,-0.9922,-0.9922,-0.9922,-0.9922,-0.9922,-0.9922,-0.9922,-0.9922,-0.9922,-0.9084,-0.8623,-0.847,-0.6934,-0.6086,-0.5857,-0.4849,-0.4384,-0.4307,-0.3919,-0.3763,-0.3763,-0.3763,-0.3763,-0.3841,-0.4467,-0.5069,-0.5778,-0.6373,-0.7036,-0.7525,-0.7533,-0.7484,-0.748,-0.733,-0.7249,-0.7088,-0.7011,-0.685,-0.6689,-0.6689,-0.6689,-0.6615,-0.6461,-0.6227,0.0,-0.6381,-0.6163,-0.6015,-0.5854,-0.5712,-0.5559,-0.5309,-0.5074,-0.5071,-0.5992,-0.522,-0.4213,-0.3274,-0.3355,-0.3671,-0.3984,-0.445,-0.5012,-0.567,-0.6197,-0.6652,-0.7027,-0.7139,-0.7489,-0.8456,-0.889,-0.9758,-1.1235,-1.1499,-1.1929,-1.2705,-1.4468,-1.5628,-1.6003,-1.7853,-1.8922,-1.9301,-2.0148,-2.1001,-2.1832,-2.2692,-2.3457,-2.42,-2.42,-2.4345,-2.4562,-2.5487,-2.6296,-2.7111,-2.8103,-2.8903,-2.9401,-0.9992,-0.9236,-0.8466,-0.7617,-0.6777,-0.5935,-0.5093,-0.5323,-0.5631,-0.5631,-0.6703,-0.7778,-0.8623,-0.9084,-0.9463,-0.9846,-0.9922,-0.9922,-0.9922,-0.9922,-0.9922,-0.9922,-0.9922,-0.9922,-0.9922,-0.9922,-0.9922,-0.9922,-0.9463,-0.9084,-0.8703,-0.7391,-0.6853,-0.6773,-0.5237,-0.4696,-0.4927,-0.4231,-0.3921,-0.3763,-0.3763,-0.3763,-0.3919,-0.4774,-0.5433,-0.5877,-0.6743,-0.7312,-0.7688,-0.7748,-0.7791,-0.7868,-0.8016,-0.8237,-0.838,-0.8313,-0.8385,-0.8452,-0.8152,-0.808,-0.7923,-0.7387,-0.731,0.0,0.0,-0.7322,-0.7249,-0.7011,-0.7022,-0.6872,-0.6546,-0.63,-0.6447,-0.7367,-0.6678,-0.5989,-0.5758,-0.4988,-0.4528,-0.4919,-0.5229,-0.5729,-0.6503,-0.6781,-0.6905,-0.7119,-0.7139,-0.7489,-0.8456,-0.8973,-0.9845,-1.1235,-1.1757,-1.2186,-1.2705,-1.4048,-1.5123,-1.6003,-1.735,-1.8505,-1.9301,-2.0148,-2.1001,-2.1832,-2.2692,-2.3457,-2.42,-2.42,-2.4273,-2.4418,-2.5229,-2.5963,-2.6625,-2.7841,-2.8583,-2.9121,-1.0143,-0.9387,-0.8699,-0.7851,-0.7161,-0.6395,-0.5631,-0.5857,-0.624,-0.6395,-0.7472,-0.8394,-0.8851,-0.9387,-0.9765,-0.9916,-0.9922,-0.9922,-0.9922,-0.9922,-0.9916,-1.0067,-1.0067,-1.0143,-1.0218,-1.0143,-1.0067,-1.0067,-0.9992,-0.9539,-0.8932,-0.808,-0.7617,-0.746,-0.5854,-0.524,-0.5392,-0.4618,-0.4153,-0.3843,-0.3841,-0.3773,-0.3944,-0.5168,-0.5655,-0.5855,-0.708,-0.7512,-0.7561,-0.7949,-0.8102,-0.8178,-0.8551,-0.9079,-0.9528,-0.9468,-0.9846,-1.0218,-0.9846,-0.9771,-0.9539,-0.8618,-0.8389,-0.8389,0.0,0.0,0.0,-0.8466,-0.8461,-0.8295,-0.7744,-0.7575,-0.7723,-0.833,-0.8112,-0.7973,-0.847,-0.6839,-0.5681,-0.5928,-0.5931,-0.6274,-0.7293,-0.7206,-0.7102,-0.721,-0.7139,-0.7404,-0.8193,-0.9318,-1.0274,-1.0971,-1.21,-1.2705,-1.2705,-1.3542,-1.4615,-1.5921,-1.6935,-1.8086,-1.9301,-1.9923,-2.0769,-2.1614,-2.2381,-2.3224,-2.397,-2.4116,-2.42,-2.4273,-2.5016,-2.5627,-2.6158,-2.7577,-2.8312,-2.8776,-1.0143,-0.9846,-0.9539,-0.8699,-0.847,-0.8161,-0.731,-0.6623,-0.6472,-0.7234,-0.6853,-0.7314,-0.9539,-0.9236,-0.9155,-0.9846,-0.9922,-0.9922,-0.9922,-0.9922,-1.0143,-1.0663,-1.0663,-1.0962,-1.1484,-1.0962,-1.0663,-1.0663,-1.0143,-0.9841,-0.9765,-0.8927,-0.8161,-0.7464,-0.7084,-0.6163,-0.4854,-0.5079,-0.4771,-0.4079,-0.3843,-0.3812,-0.4036,-0.5199,-0.5775,-0.6135,-0.7301,-0.7622,-0.7561,-0.7949,-0.8102,-0.8178,-0.8551,-0.9008,-0.9473,-0.9916,-1.0363,-1.0812,-1.1335,-1.1409,-1.126,-1.0582,-1.0432,-1.0432,-1.0432,0.0,-1.049,-1.0651,0.0,-1.0668,-1.0633,0.0,0.0,-1.0645,-1.0409,-1.0179,-1.019,-0.9954,-0.92,-0.7476,-0.7099,-0.7102,-0.7373,-0.7242,-0.7225,-0.7404,-0.7231,-0.7139,-0.7228,-0.8969,-0.9923,-1.0096,-1.1746,-1.2705,-1.2705,-1.3542,-1.4538,-1.5779,-1.6862,-1.7934,-1.9073,-1.9301,-1.9844,-2.0692,-2.1538,-2.2381,-2.3224,-2.3897,-2.42,-2.4261,-2.5122,-2.6008,-2.6883,-2.7868,-2.8817,-2.9477,-1.0588,-1.0143,-0.9614,-0.8851,-0.8703,-0.8237,-0.693,-0.6853,-0.7238,-0.8084,-0.8313,-0.866,-0.9329,-0.9586,-0.9798,-1.0247,-1.0336,-1.0428,-1.0665,-1.0653,-1.0813,-1.1267,-1.1335,-1.1409,-1.1706,-1.1484,-1.1186,-1.0812,-1.0513,-1.0218,-0.9916,-0.9084,-0.8775,-0.8841,-0.7846,-0.693,-0.6086,-0.5696,-0.4927,-0.4079,-0.3999,-0.3978,-0.4212,-0.5207,-0.6165,-0.6904,-0.7469,-0.7708,-0.7949,-0.8327,-0.8632,-0.8937,-0.9685,-1.0288,-1.0738,-1.1037,-1.1409,-1.1855,-1.1706,-1.1706,-1.1632,-1.1409,-1.1335,-1.1335,-1.1335,-1.1329,-1.1323,-1.1403,0.0,0.0,0.0,0.0,0.0,0.0,-1.1105,-1.0875,-1.0875,-1.0645,-1.0185,-0.9362,-0.9064,-0.8971,-0.9077,-0.8625,-0.8516,-0.9048,-0.854,-0.8277,-0.8707,-1.0014,-1.0712,-1.0712,-1.2009,-1.2705,-1.2705,-1.3039,-1.4119,-1.5846,-1.6347,-1.7496,-1.9152,-1.9222,-1.9766,-2.0537,-2.0924,-2.1766,-2.3001,-2.3372,-2.3751,-2.4261,-2.5193,-2.6064,-2.7018,-2.8078,-2.8958,-2.9602,-1.1111,-1.0438,-0.9695,-0.916,-0.9008,-0.8546,-0.7088,-0.7391,-0.8097,-0.8698,-0.9321,-0.9638,-0.9548,-1.0063,-1.0455,-1.0622,-1.0794,-1.1032,-1.1312,-1.1534,-1.176,-1.2175,-1.2166,-1.2195,-1.235,-1.2042,-1.1706,-1.126,-1.1111,-1.0738,-1.0143,-0.9533,-0.9382,-0.9539,-0.8613,-0.7846,-0.7238,-0.6391,-0.5467,-0.4618,-0.4543,-0.4747,-0.5212,-0.5626,-0.6514,-0.7638,-0.7638,-0.7944,-0.8331,-0.8703,-0.9165,-0.9695,-1.0519,-1.1186,-1.1706,-1.1929,-1.2224,-1.2526,-1.2305,-1.2157,-1.215,-1.2003,-1.1929,-1.1929,-1.1929,-1.1929,-1.2003,-1.2157,-1.2157,0.0,0.0,0.0,-1.2505,-1.2505,0.0,-1.2345,-1.2345,-1.2104,-1.1588,-1.0634,-1.034,-1.0231,-1.0482,-0.9858,-0.9728,-1.0423,-0.9753,-0.9492,-1.0009,-1.0799,-1.1327,-1.1327,-1.2186,-1.2705,-1.2705,-1.2705,-1.3782,-1.5928,-1.6003,-1.7155,-1.9222,-1.9301,-1.9608,-2.0235,-2.0692,-2.1538,-2.2692,-2.315,-2.3666,-2.4334,-2.5334,-2.6202,-2.7018,-2.8091,-2.8972,-2.9602,-1.1706,-1.0738,-0.9916,-0.9846,-0.9846,-0.9614,-0.8775,-0.8623,-0.877,-0.9051,-0.9075,-0.9478,-1.0433,-1.0541,-1.0627,-1.0638,-1.1267,-1.1662,-1.165,-1.2295,-1.2929,-1.3482,-1.3201,-1.3348,-1.3892,-1.3054,-1.2526,-1.2526,-1.1929,-1.1335,-1.0738,-1.0738,-0.9981,-0.8775,-0.9463,-0.8922,-0.7464,-0.7238,-0.6623,-0.5848,-0.5619,-0.6395,-0.7577,-0.6493,-0.6928,-0.8102,-0.8102,-0.8327,-0.878,-0.917,-0.9695,-1.0218,-1.0663,-1.1186,-1.1781,-1.2378,-1.2599,-1.2746,-1.3273,-1.3419,-1.3273,-1.2746,-1.2599,-1.2599,-1.2599,-1.2599,-1.2746,-1.3346,-1.3419,-1.3419,-1.3419,-1.4049,-1.453,-1.453,-1.51,0.0,0.0,-1.5525,-1.4283,-1.0926,-1.034,-1.0384,-1.0878,-1.0536,-1.0486,-1.0924,-1.0524,-1.0269,-1.0269,-1.0971,-1.1327,-1.1327,-1.2186,-1.2705,-1.2705,-1.2705,-1.3704,-1.5696,-1.5928,-1.7082,-1.9002,-1.9222,-1.9301,-1.945,-2.1068,-2.1766,-2.1993,-2.3508,-2.42,-2.4322,-2.5824,-2.6557,-2.7018,-2.7934,-2.8881,-2.9602,-1.1781,-1.1037,-1.0368,-0.9997,-0.9922,-0.9841,-0.9539,-0.9202,-0.9165,-0.9797,-1.0015,-1.0277,-1.0837,-1.0864,-1.0934,-1.1011,-1.1769,-1.2278,-1.2512,-1.3144,-1.3707,-1.4159,-1.4122,-1.4041,-1.3989,-1.3722,-1.3259,-1.2599,-1.2378,-1.2003,-1.1409,-1.0962,-1.0588,-1.0062,-0.9992,-0.9306,-0.8313,-0.808,-0.754,-0.6777,-0.67,-0.6777,-0.6934,-0.7153,-0.776,-0.8479,-0.8479,-0.8784,-0.9089,-0.9246,-0.9846,-1.0663,-1.126,-1.1781,-1.2378,-1.3046,-1.32,-1.3273,-1.3419,-1.3492,-1.3419,-1.3273,-1.32,-1.32,-1.32,-1.3542,-1.3962,-1.4186,-1.4617,-1.4974,-1.4974,-1.518,-1.5313,-1.5313,-1.5525,-1.5675,0.0,-1.5675,-1.5234,-1.406,-1.3353,-1.3021,-1.3321,-1.2196,-1.1863,-1.2735,-1.2095,-1.1837,-1.218,-1.2357,-1.2448,-1.2272,-1.2534,-1.2705,-1.2705,-1.2705,-1.3457,-1.5032,-1.5681,-1.683,-1.8327,-1.8975,-1.9301,-1.9381,-2.0459,-2.1308,-2.1918,-2.299,-2.3824,-2.455,-2.6089,-2.6896,-2.7232,-2.8417,-2.9149,-2.9602,-1.1855,-1.1186,-1.0588,-0.9992,-0.9922,-0.9949,-1.004,-0.971,-0.9785,-1.0434,-1.0665,-1.0848,-1.109,-1.1112,-1.1261,-1.1677,-1.2369,-1.2971,-1.3374,-1.4028,-1.4519,-1.4816,-1.4699,-1.4487,-1.4157,-1.404,-1.3672,-1.29,-1.29,-1.2599,-1.2003,-1.1632,-1.1186,-1.0812,-1.0368,-0.9841,-0.9084,-0.8694,-0.8232,-0.7702,-0.7702,-0.7698,-0.777,-0.8313,-0.847,-0.8394,-0.878,-0.9165,-0.9549,-0.9549,-1.0218,-1.1186,-1.1558,-1.2224,-1.2973,-1.3419,-1.3492,-1.3492,-1.3492,-1.3492,-1.3492,-1.3492,-1.3702,-1.3912,-1.3912,-1.4474,-1.4958,-1.4958,-1.5384,-1.5675,-1.5675,-1.5948,-1.6097,-1.6097,-1.6376,-1.6524,0.0,-1.6524,-1.6524,-1.6524,-1.5463,-1.4767,-1.4957,-1.379,-1.328,-1.4041,-1.3334,-1.2966,-1.3307,-1.3137,-1.3052,-1.2875,-1.279,-1.2705,-1.2705,-1.279,-1.3457,-1.4699,-1.5688,-1.6756,-1.7997,-1.8895,-1.9301,-1.9381,-2.0148,-2.1001,-2.1832,-2.2692,-2.3593,-2.4622,-2.5951,-2.6761,-2.7378,-2.8739,-2.9415,-2.9602,-1.1938,-1.1265,-1.0663,-1.0062,-0.9981,-1.0051,-1.0293,-1.0342,-1.0503,-1.0929,-1.0993,-1.109,-1.1241,-1.1348,-1.1602,-1.2363,-1.3045,-1.373,-1.4398,-1.4999,-1.5431,-1.5431,-1.5049,-1.4809,-1.4479,-1.4165,-1.3843,-1.3492,-1.3492,-1.32,-1.2673,-1.2599,-1.2003,-1.0812,-1.0812,-1.0438,-0.9841,-0.9079,-0.878,-0.878,-0.878,-0.916,-0.9841,-0.9916,-0.9003,-0.7936,-0.8937,-0.962,-0.9922,-0.9922,-1.0738,-1.1706,-1.1706,-1.2526,-1.3492,-1.3492,-1.3492,-1.3492,-1.3492,-1.3492,-1.3492,-1.3492,-1.4049,-1.4601,-1.4601,-1.5171,-1.5745,-1.5745,-1.5816,-1.5816,-1.5816,-1.6446,-1.6941,-1.6941,-1.751,-1.8008,-1.8008,-1.8008,-1.8008,-1.8076,-1.6594,-1.5614,-1.5618,-1.5048,-1.4687,-1.4794,-1.413,-1.3711,-1.3717,-1.33,-1.3137,-1.3137,-1.2875,-1.2705,-1.2705,-1.2966,-1.3633,-1.4622,-1.5861,-1.6927,-1.7997,-1.8895,-1.9301,-1.9381,-2.0235,-2.0991,-2.1842,-2.2681,-2.3604,-2.4634,-2.5487,-2.6433,-2.7445,-2.8994,-2.9602,-2.9602,-1.3205,-1.1969,-1.1149,-1.0982,-1.0832,-1.0735,-1.0799,-1.0961,-1.1058,-1.0993,-1.1144,-1.1278,-1.1257,-1.1774,-1.2192,-1.2363,-1.3464,-1.423,-1.4391,-1.4999,-1.5431,-1.5431,-1.535,-1.5043,-1.4479,-1.4392,-1.4062,-1.3492,-1.3492,-1.3419,-1.3273,-1.2826,-1.2224,-1.1484,-1.1037,-1.0438,-0.9916,-0.9695,-0.9614,-0.9614,-0.9614,-0.9306,-0.8841,-0.9614,-0.9231,-0.8385,-0.9382,-1.0067,-1.0594,-1.0594,-1.1335,-1.2378,-1.2378,-1.29,-1.3492,-1.3492,-1.3492,-1.3492,-1.3492,-1.3492,-1.3492,-1.3492,-1.4049,-1.4601,-1.4601,-1.5666,-1.6585,-1.6585,-1.7019,-1.7442,-1.7442,-1.7588,-1.7725,-1.7725,-1.7872,-1.8134,-1.8654,-1.8337,-1.8202,-1.8654,-1.791,-1.7097,-1.6477,-1.5799,-1.5109,-1.4438,-1.4451,-1.4152,-1.3417,-1.3452,-1.3398,-1.3143,-1.3052,-1.2966,-1.2966,-1.3052,-1.3392,-1.3977,-1.5621,-1.6609,-1.7107,-1.8647,-1.9301,-1.9381,-2.0837,-2.1603,-2.1907,-2.3287,-2.42,-2.4778,-2.5499,-2.6761,-2.8298,-2.9261,-2.9602,-2.9602,-1.4075,-1.2796,-1.1721,-1.1483,-1.164,-1.1594,-1.1155,-1.1171,-1.1176,-1.1149,-1.1514,-1.1774,-1.1774,-1.2454,-1.296,-1.3209,-1.3971,-1.4482,-1.4824,-1.5173,-1.5431,-1.5431,-1.5292,-1.4984,-1.4479,-1.4333,-1.4004,-1.3492,-1.3492,-1.3492,-1.3492,-1.3127,-1.2673,-1.2077,-1.1484,-1.0887,-1.0293,-0.9992,-0.9922,-0.9922,-0.9922,-0.9533,0.0,-0.969,-0.9533,-0.915,-0.969,-1.0293,-1.0812,-1.0812,-1.1632,-1.2599,-1.2599,-1.3046,-1.3492,-1.3492,-1.3492,-1.3492,-1.3492,-1.3492,-1.3492,-1.3492,-1.4266,-1.51,-1.51,-1.6298,-1.7364,-1.7364,-1.7725,-1.8008,-1.8008,-1.8008,-1.8008,-1.8008,-1.8008,-1.8202,-1.8911,-1.8654,-1.8596,-1.8977,-1.8654,-1.8066,-1.7245,-1.6497,-1.579,-1.5003,-1.4887,-1.4423,-1.3662,-1.3652,-1.3568,-1.3398,-1.3307,-1.3228,-1.3228,-1.3313,-1.3476,-1.3737,-1.5621,-1.6609,-1.678,-1.8487,-1.9301,-1.9381,-2.0682,-2.1461,-2.1918,-2.3139,-2.4116,-2.4933,-2.6114,-2.7178,-2.8182,-2.9198,-2.9602,-2.9602,-1.4691,-1.3585,-1.2539,-1.206,-1.2503,-1.2575,-1.1771,-1.1464,-1.1393,-1.158,-1.2112,-1.2534,-1.2534,-1.313,-1.3711,-1.4253,-1.442,-1.4664,-1.5223,-1.5306,-1.5306,-1.5306,-1.5035,-1.4735,-1.4414,-1.4128,-1.3821,-1.3492,-1.3492,-1.3492,-1.3492,-1.3492,-1.32,-1.2599,-1.2003,-1.1335,-1.0663,-1.0143,-0.9922,-0.9922,-0.9922,-0.9922,-0.9922,-0.9922,-0.9922,-0.9922,-0.9922,-1.0368,-1.0887,-1.0887,-1.1706,-1.2746,-1.2746,-1.3046,-1.3492,-1.3492,-1.3492,-1.3492,-1.3492,-1.3564,-1.363,-1.363,-1.476,-1.5886,-1.5886,-1.695,-1.8008,-1.8008,-1.8008,-1.8008,-1.8008,-1.8008,-1.8008,-1.8144,-1.8144,-1.8395,-1.9177,-1.9177,-1.9177,-1.9233,-1.911,0.0,-1.7969,-1.7245,-1.6572,-1.5878,-1.5311,-1.4757,-1.4144,-1.3851,-1.3723,-1.3678,-1.351,-1.336,-1.3483,-1.3652,-1.3737,-1.3984,-1.5794,-1.678,-1.6944,-1.8567,-1.9301,-1.9381,-2.0304,-2.1078,-2.1842,-2.2841,-2.3824,-2.4992,-2.6676,-2.7417,-2.7683,-2.9008,-2.954,-2.9602,-1.5218,-1.4415,-1.381,-1.3681,-1.3591,-1.343,-1.3299,-1.325,-1.3157,-1.3076,-1.3137,-1.3222,-1.3222,-1.3808,-1.4129,-1.396,-1.4526,-1.475,-1.4655,-1.464,-1.464,-1.464,-1.4582,-1.4399,-1.4077,-1.4011,-1.3821,-1.3492,-1.3492,-1.3492,-1.3492,-1.3492,-1.32,-1.2599,-1.2003,-1.1111,-1.0067,-0.9922,-0.9922,-0.9922,-0.9922,-0.9922,-0.9922,-0.9922,-0.9922,-0.9922,-0.9922,-1.0588,-1.1558,-1.1558,-1.2305,-1.3346,-1.3346,-1.3419,-1.3492,-1.3492,-1.3492,-1.3492,-1.3492,-1.3912,-1.4394,-1.4394,-1.5525,-1.6655,-1.6655,-1.7364,-1.8008,-1.8008,-1.8008,-1.8008,-1.8008,-1.8008,-1.8202,-1.8721,-1.8844,-1.9299,-2.0537,-2.0291,-2.0096,-2.0677,-1.9694,-1.8911,-1.8777,-1.8037,-1.707,-1.6022,-1.6091,-1.5573,-1.4033,-1.413,-1.3916,-1.3378,-1.3302,-1.3419,-1.3646,-1.3652,-1.4153,-1.5144,-1.6206,-1.7107,-1.7836,-1.8816,-1.9301,-1.9381,-2.0914,-2.169,-2.1918,-2.3582,-2.455,-2.5111,-2.6208,-2.6947,-2.7617,-2.8376,-2.9058,-2.9602,-1.537,-1.4803,-1.435,-1.3996,-1.4028,-1.4097,-1.4097,-1.4361,-1.4314,-1.3496,-1.3516,-1.3668,-1.3668,-1.4111,-1.437,-1.4221,-1.4533,-1.4633,-1.4479,-1.4472,-1.4472,-1.4472,-1.4304,-1.4143,-1.3989,-1.3814,-1.3653,-1.3492,-1.3492,-1.3492,-1.3492,-1.3492,-1.3346,-1.3046,-1.2452,-1.1706,-1.0812,-1.0513,-1.0368,-1.0368,-0.9992,-0.9922,-0.9922,-0.9922,-0.9922,-0.9922,-0.9922,-1.0663,-1.1706,-1.1706,-1.2526,-1.3492,-1.3492,-1.3492,-1.3492,-1.3492,-1.3492,-1.3492,-1.3492,-1.4049,-1.4601,-1.4601,-1.5737,-1.6932,-1.6932,-1.7442,-1.8008,-1.8008,-1.8008,-1.8008,-1.8008,-1.8269,-1.8654,-1.8977,-1.9309,-1.9955,-2.0933,-2.0805,-2.0741,-2.106,-2.0215,-1.9441,-1.9044,-1.8317,-1.7458,-1.6448,-1.6434,-1.5963,-1.4774,-1.448,-1.4173,-1.386,-1.3487,-1.3325,-1.3464,-1.3609,-1.4172,-1.5145,-1.6203,-1.7188,-1.7997,-1.8895,-1.9301,-1.9371,-2.1068,-2.1832,-2.1918,-2.3886,-2.4849,-2.5194,-2.6082,-2.6879,-2.7604,-2.826,-2.8994,-2.9602,-1.5374,-1.5092,-1.484,-1.4143,-1.4385,-1.4566,-1.4566,-1.5025,-1.4906,-1.3898,-1.3933,-1.4082,-1.4019,-1.4288,-1.4443,-1.437,-1.4362,-1.4333,-1.4267,-1.426,-1.4337,-1.4483,-1.423,-1.4164,-1.4387,-1.4122,-1.3992,-1.3992,-1.3775,-1.3702,-1.3702,-1.3564,-1.3419,-1.3273,-1.2826,-1.2224,-1.1632,-1.1037,-1.0812,-1.0738,-1.0143,-0.9922,-0.9922,-0.9922,-0.9922,-0.9922,-0.9922,-1.0663,-1.1706,-1.1706,-1.2526,-1.3492,-1.3492,-1.3492,-1.3492,-1.3492,-1.3492,-1.3492,-1.3492,-1.4122,-1.4816,-1.4816,-1.6018,-1.7148,-1.7148,-1.7579,-1.8008,-1.8008,-1.8008,-1.8008,-1.8202,-1.8654,-1.91,-1.9431,-1.9955,-2.0549,-2.1262,-2.1325,-2.1325,-2.1325,-2.0613,-1.9835,-1.9309,-1.8462,-1.7712,-1.6947,-1.6776,-1.6401,-1.5638,-1.4965,-1.4537,-1.4458,-1.3945,-1.3526,-1.343,-1.3822,-1.4335,-1.5048,-1.6188,-1.7199,-1.8004,-1.8731,-1.91,-1.9252,-2.0775,-2.1662,-2.2285,-2.4105,-2.4992,-2.5182,-2.5873,-2.6744,-2.7537,-2.8078,-2.8817,-2.9602,-1.5485,-1.5405,-1.5307,-1.5216,-1.5278,-1.5347,-1.5347,-1.5092,-1.4903,-1.4741,-1.4793,-1.475,-1.4459,-1.4487,-1.4355,-1.4055,-1.4026,-1.3901,-1.3601,-1.3587,-1.3865,-1.456,-1.4529,-1.4872,-1.5513,-1.548,-1.5463,-1.5463,-1.4824,-1.4466,-1.4466,-1.384,-1.32,-1.2673,-1.2599,-1.2224,-1.1632,-1.1037,-1.0812,-1.0738,-1.0143,-0.9922,-0.9922,-0.9922,-0.9922,-0.9922,-0.9922,-1.0663,-1.1706,-1.1706,-1.2526,-1.3492,-1.3492,-1.3492,-1.3492,-1.3492,-1.3492,-1.3492,-1.3492,-1.4553,-1.5604,-1.5604,-1.6733,-1.7872,-1.7872,-1.794,-1.8008,-1.8008,-1.8008,-1.8202,-1.8777,-1.8977,-1.9431,-2.0677,-2.0933,-2.1262,-2.1987,-2.2123,-2.2123,-2.2123,-2.0955,-2.0096,-2.0031,-1.8798,-1.7881,-1.7617,-1.7508,-1.6972,-1.6007,-1.5794,-1.5435,-1.5024,-1.4958,-1.4729,-1.418,-1.4987,-1.5397,-1.5644,-1.6453,-1.7232,-1.8079,-1.8154,-1.843,-1.8847,-1.9715,-2.1342,-2.3452,-2.4587,-2.5182,-2.5312,-2.5382,-2.6252,-2.7484,-2.755,-2.8417,-2.9602,-1.6193,-1.6162,-1.6162,-1.6162,-1.6004,-1.5839,-1.5839,-1.5472,-1.518,-1.4978,-1.4636,-1.4318,-1.4187,-1.4004,-1.3836,-1.3704,-1.3689,-1.3631,-1.3506,-1.3492,-1.3637,-1.3912,-1.4322,-1.4744,-1.5029,-1.5455,-1.5675,-1.5675,-1.4958,-1.4601,-1.4601,-1.384,-1.3346,-1.3119,-1.3119,-1.3046,-1.2746,-1.215,-1.1855,-1.1855,-1.1186,-1.0738,-1.0443,-1.0443,-1.0443,-1.0443,-1.0443,-1.0962,-1.1781,-1.215,-1.282,-1.3492,-1.3492,-1.3492,-1.3492,-1.3492,-1.3492,-1.3492,-1.3492,-1.4553,-1.5675,-1.5675,-1.6881,-1.8008,-1.8008,-1.8008,-1.8008,-1.8008,-1.8008,-1.8202,-1.8844,-1.9375,-1.9966,-2.0933,-2.1463,-2.1851,-2.2135,-2.2197,-2.2197,-2.2197,-2.1336,-2.0549,-2.0161,-1.9177,-1.8395,-1.793,-1.7725,-1.7373,-1.6742,-1.6184,-1.5831,-1.5538,-1.5033,-1.4733,-1.4498,-1.5005,-1.5565,-1.6096,-1.6556,-1.7287,-1.8128,-1.8128,-1.8712,-1.9869,-2.0151,-2.1543,-2.3549,-2.4294,-2.4981,-2.5475,-2.5807,-2.6867,-2.8117,-2.8117,-2.8725,-2.9602,-1.673,-1.673,-1.673,-1.673,-1.6492,-1.6214,-1.6114,-1.5805,-1.545,-1.5111,-1.4554,-1.4134,-1.4052,-1.3704,-1.3492,-1.3492,-1.3637,-1.3637,-1.3499,-1.3637,-1.371,-1.3848,-1.4545,-1.5029,-1.5242,-1.6026,-1.6385,-1.6385,-1.5666,-1.5313,-1.5242,-1.4266,-1.3702,-1.3492,-1.3492,-1.3492,-1.3492,-1.2893,-1.2599,-1.2526,-1.1929,-1.1335,-1.0812,-1.1037,-1.0962,-1.0812,-1.1037,-1.1484,-1.2003,-1.2452,-1.2973,-1.3492,-1.3492,-1.3492,-1.3492,-1.3492,-1.3492,-1.3564,-1.3775,-1.476,-1.5745,-1.6018,-1.7019,-1.8008,-1.8008,-1.8008,-1.8076,-1.8269,-1.8259,-1.8596,-1.9431,-2.0031,-2.0613,-2.1325,-2.1862,-2.2197,-2.2197,-2.2197,-2.2197,-2.2197,-2.1526,-2.0933,-2.042,-1.9562,-1.8787,-1.8259,-1.792,-1.7579,-1.7314,-1.6682,-1.6254,-1.6123,-1.5542,-1.518,-1.4966,-1.5363,-1.5858,-1.6229,-1.6659,-1.7166,-1.777,-1.8173,-1.8928,-2.0122,-2.0822,-2.1874,-2.3226,-2.4078,-2.4762,-2.5385,-2.5975,-2.7,-2.8248,-2.8248,-2.8829,-2.9602,-1.673,-1.673,-1.673,-1.673,-1.673,-1.6619,-1.6269,-1.5912,-1.5562,-1.5146,-1.479,-1.4497,-1.4137,-1.371,-1.3492,-1.3492,-1.3848,-1.392,-1.3499,-1.3848,-1.4266,-1.4609,-1.5313,-1.6097,-1.6862,-1.7579,-1.794,-1.794,-1.7226,-1.6862,-1.6862,-1.5305,-1.4186,-1.3492,-1.3492,-1.3492,-1.3492,-1.2893,-1.2599,-1.2526,-1.1929,-1.1335,-1.0887,-1.1484,-1.1335,-1.0887,-1.1484,-1.2077,-1.2599,-1.2599,-1.2973,-1.3492,-1.3492,-1.3492,-1.3492,-1.3492,-1.3492,-1.363,-1.4394,-1.51,-1.5877,-1.6655,-1.7432,-1.8008,-1.8008,-1.8008,-1.8202,-1.8844,-1.8977,-1.9431,-2.0805,-2.106,-2.1325,-2.2061,-2.2185,-2.2197,-2.2197,-2.2197,-2.2197,-2.2197,-2.1526,-2.1123,-2.106,-1.9824,-1.8977,-1.8834,-1.8104,-1.7647,-1.747,-1.7314,-1.7107,-1.6908,-1.6908,-1.6542,-1.5762,-1.6482,-1.6482,-1.5842,-1.656,-1.6917,-1.6936,-1.8218,-1.8824,-1.8984,-2.1239,-2.2298,-2.2434,-2.4054,-2.473,-2.4782,-2.5382,-2.6426,-2.7602,-2.7602,-2.8436,-2.9602,-1.8273,-1.787,-1.7627,-1.7627,-1.7097,-1.6724,-1.661,-1.6081,-1.5658,-1.5552,-1.521,-1.4991,-1.484,-1.4274,-1.392,-1.392,-1.3775,-1.3848,-1.4258,-1.4402,-1.4681,-1.5313,-1.6088,-1.6655,-1.6862,-1.7647,-1.8008,-1.8008,-1.7295,-1.6655,-1.6088,-1.5596,-1.4966,-1.4258,-1.4258,-1.3977,-1.3492,-1.3273,-1.32,-1.32,-1.2973,-1.2599,-1.2077,-1.2224,-1.2157,-1.2077,-1.2224,-1.2452,-1.2673,-1.3046,-1.3046,-1.2973,-1.3346,-1.3492,-1.3492,-1.3492,-1.3492,-1.363,-1.4394,-1.5171,-1.5877,-1.6724,-1.7432,-1.8008,-1.8008,-1.8008,-1.8076,-1.8269,-1.8654,-1.9299,-2.0226,-2.0805,-2.1325,-2.2061,-2.2197,-2.2197,-2.2197,-2.2197,-2.2197,-2.2197,-2.1987,-2.1663,-2.1135,-2.0291,-1.9497,-1.8977,-1.8327,-1.7725,-1.7314,-1.7235,-1.7107,-1.6908,-1.6908,-1.676,-1.6551,-1.676,-1.676,-1.6551,-1.7295,-1.7969,-1.8576,-1.8987,-1.9509,-2.0293,-2.0994,-2.167,-2.2308,-2.3626,-2.4456,-2.4991,-2.5985,-2.6952,-2.7746,-2.7746,-2.8005,-2.8422,-1.8426,-1.7952,-1.762,-1.762,-1.7181,-1.6815,-1.6681,-1.6271,-1.5928,-1.5794,-1.5576,-1.5426,-1.5426,-1.4848,-1.4418,-1.4274,-1.4209,-1.4338,-1.4887,-1.5037,-1.5392,-1.5886,-1.6645,-1.707,-1.707,-1.7784,-1.8144,-1.8144,-1.7579,-1.6941,-1.6158,-1.6158,-1.5596,-1.4601,-1.4601,-1.4186,-1.3492,-1.3492,-1.3492,-1.3492,-1.3492,-1.3119,-1.2599,-1.2826,-1.282,-1.2599,-1.2893,-1.2973,-1.2973,-1.3346,-1.3273,-1.2973,-1.3346,-1.3492,-1.3492,-1.3492,-1.3637,-1.392,-1.4752,-1.5313,-1.5956,-1.701,-1.7647,-1.8008,-1.8008,-1.821,-1.8439,-1.871,-1.9309,-2.002,-2.0752,-2.1198,-2.1663,-2.2123,-2.2197,-2.2197,-2.2197,-2.2197,-2.2197,-2.2197,-2.2197,-2.1999,-2.1526,-2.0688,-1.9966,-1.9748,-1.8844,-1.825,-1.8085,-1.7628,-1.7314,-1.7116,-1.7116,-1.7116,-1.7116,-1.7116,-1.7116,-1.7038,-1.7765,-1.8556,-1.9354,-1.9748,-2.0279,-2.0921,-2.125,-2.1726,-2.2271,-2.3428,-2.4223,-2.4741,-2.5941,-2.684,-2.7411,-2.7411,-2.7565,-2.7832,-1.7588,-1.7158,-1.6918,-1.6918,-1.6893,-1.6756,-1.6478,-1.6401,-1.6191,-1.5848,-1.5805,-1.5805,-1.5805,-1.5497,-1.5133,-1.4784,-1.4991,-1.5267,-1.5534,-1.5824,-1.6175,-1.6376,-1.706,-1.7472,-1.7472,-1.7978,-1.8269,-1.8269,-1.8076,-1.7647,-1.701,-1.701,-1.6158,-1.4673,-1.4673,-1.4258,-1.3492,-1.3492,-1.3492,-1.3492,-1.3492,-1.3193,-1.2746,-1.3273,-1.3127,-1.2746,-1.3273,-1.3492,-1.3492,-1.3492,-1.3492,-1.3492,-1.3492,-1.3492,-1.3564,-1.3499,-1.3775,-1.4338,-1.5392,-1.5745,-1.6167,-1.7657,-1.8008,-1.8008,-1.8008,-1.8502,-1.9177,-1.9846,-2.0613,-2.1325,-2.1999,-2.2185,-2.2197,-2.2197,-2.2197,-2.2197,-2.2197,-2.2197,-2.2197,-2.2197,-2.2197,-2.2197,-2.2197,-2.0944,-2.0355,-2.0858,-1.9683,-1.909,-1.9541,-1.8499,-1.7784,-1.7608,-1.7598,-1.7598,-1.7598,-1.7539,-1.7461,-1.7364,-1.8085,-1.8793,-1.9672,-2.059,-2.0985,-2.1049,-2.1862,-2.2185,-2.2359,-2.3505,-2.4021,-2.4195,-2.5425,-2.6245,-2.675,-2.675,-2.713,-2.765,-1.7863,-1.7357,-1.6918,-1.6918,-1.667,-1.6447,-1.6435,-1.6114,-1.5899,-1.5814,-1.5805,-1.5805,-1.5805,-1.5726,-1.578,-1.6114,-1.5275,-1.4991,-1.5692,-1.6184,-1.6742,-1.7354,-1.792,-1.8192,-1.8124,-1.8202,-1.8202,-1.8076,-1.8008,-1.794,-1.7725,-1.7725,-1.6941,-1.5463,-1.5463,-1.4689,-1.3492,-1.3492,-1.3492,-1.3492,-1.3492,-1.3419,-1.3273,-1.3419,-1.3419,-1.3346,-1.3419,-1.3492,-1.3492,-1.3492,-1.3492,-1.3492,-1.3492,-1.3702,-1.392,-1.3564,-1.3985,-1.4681,-1.5455,-1.6167,-1.6872,-1.7794,-1.8008,-1.8008,-1.8008,-1.8502,-1.9036,-1.9204,-2.0246,-2.1135,-2.1325,-2.1788,-2.2197,-2.2197,-2.2197,-2.2197,-2.2197,-2.2197,-2.2197,-2.2197,-2.2197,-2.2197,-2.2197,-2.14,-2.0933,-2.106,-2.0279,-1.9824,-1.9966,-1.9694,-1.9166,-1.8317,-1.825,-1.825,-1.825,-1.7725,-1.7998,-1.9034,-1.9738,-2.0462,-2.1325,-2.1526,-2.1726,-2.1925,-2.2123,-2.2469,-2.2919,-2.3669,-2.4323,-2.4821,-2.5605,-2.5992,-2.6104,-2.6104,-2.6202,-2.6413,-1.7661,-1.6967,-1.6478,-1.6689,-1.637,-1.6096,-1.6096,-1.5934,-1.5805,-1.5805,-1.6,-1.6132,-1.6132,-1.6412,-1.6621,-1.6959,-1.6114,-1.5903,-1.6881,-1.7226,-1.7638,-1.8192,-1.8472,-1.8539,-1.8414,-1.8337,-1.8212,-1.8008,-1.8008,-1.8008,-1.8008,-1.8008,-1.7373,-1.6237,-1.6237,-1.5392,-1.3977,-1.3977,-1.3912,-1.3775,-1.3775,-1.3855,-1.3992,-1.3992,-1.3992,-1.3992,-1.3992,-1.3992,-1.3992,-1.3992,-1.3992,-1.3992,-1.3992,-1.4137,-1.4281,-1.4065,-1.4418,-1.4974,-1.5534,-1.6306,-1.7079,-1.7794,-1.8008,-1.8008,-1.8008,-1.838,-1.8784,-1.9115,-1.9824,-2.0507,-2.0824,-2.1211,-2.1548,-2.1789,-2.1825,-2.1921,-2.2161,-2.2197,-2.2197,-2.2197,-2.2197,-2.2197,-2.2197,-2.1526,-2.1262,-2.16,-2.0933,-2.0688,-2.1008,-2.1083,-2.0355,-1.8777,-1.871,-1.871,-1.871,-1.8633,-1.9166,-2.0279,-2.0602,-2.1187,-2.2061,-2.2061,-2.2123,-2.2185,-2.2469,-2.2811,-2.3148,-2.4092,-2.4694,-2.5061,-2.5674,-2.5893,-2.5893,-2.5893,-2.5893,-2.595,-1.7277,-1.6581,-1.6211,-1.6612,-1.6272,-1.5938,-1.5938,-1.5867,-1.5797,-1.5938,-1.6342,-1.6603,-1.6742,-1.7097,-1.7451,-1.752,-1.7088,-1.7226,-1.8134,-1.8202,-1.8405,-1.8741,-1.8808,-1.8741,-1.8482,-1.8347,-1.8212,-1.8076,-1.8076,-1.8076,-1.8008,-1.8008,-1.7579,-1.6932,-1.6932,-1.6088,-1.4681,-1.4681,-1.4474,-1.4201,-1.4201,-1.4346,-1.4569,-1.4569,-1.4569,-1.4569,-1.4569,-1.4569,-1.4569,-1.4569,-1.4569,-1.4569,-1.4569,-1.4641,-1.4705,-1.4705,-1.5062,-1.5551,-1.5745,-1.6376,-1.7226,-1.7862,-1.8007,-1.8063,-1.8081,-1.8294,-1.8698,-1.9244,-1.9569,-2.0006,-2.0495,-2.061,-2.0754,-2.1211,-2.1284,-2.144,-2.1885,-2.2017,-2.2077,-2.2077,-2.2149,-2.2197,-2.2197,-2.1651,-2.1526,-2.2123,-2.16,-2.1526,-2.2185,-2.2197,-2.1336,-1.9365,-1.9299,-1.9299,-1.9177,-1.9814,-2.0462,-2.1123,-2.1123,-2.1451,-2.2197,-2.2197,-2.2247,-2.2359,-2.2859,-2.3207,-2.3446,-2.4523,-2.5061,-2.5174,-2.5729,-2.5893,-2.5893,-2.5893,-2.5893,-2.5948,-1.7458,-1.7213,-1.7166,-1.7235,-1.6821,-1.6473,-1.6473,-1.607,-1.5938,-1.6403,-1.6533,-1.6742,-1.7235,-1.7373,-1.7588,-1.8134,-1.8066,-1.792,-1.7579,-1.7862,-1.8144,-1.8337,-1.8808,-1.8875,-1.8482,-1.8347,-1.8269,-1.8269,-1.8269,-1.8269,-1.8269,-1.8076,-1.7579,-1.6932,-1.6932,-1.6237,-1.5125,-1.5125,-1.4848,-1.4497,-1.4497,-1.4569,-1.4569,-1.4569,-1.4569,-1.4569,-1.4569,-1.4569,-1.4569,-1.4569,-1.4569,-1.4569,-1.4569,-1.4982,-1.533,-1.533,-1.6026,-1.6724,-1.6306,-1.701,-1.7872,-1.794,-1.8147,-1.8259,-1.8227,-1.8799,-1.9368,-1.9477,-1.9995,-2.0495,-2.0553,-2.061,-2.0634,-2.0682,-2.0718,-2.0754,-2.0815,-2.1223,-2.1524,-2.1524,-2.1921,-2.2197,-2.2197,-2.2123,-2.2061,-2.2197,-2.2061,-2.2061,-2.2185,-2.2197,-2.1788,-2.0805,-2.0805,-2.0484,-1.9901,-2.1198,-2.1588,-2.1135,-2.1726,-2.2061,-2.2197,-2.2197,-2.2469,-2.298,-2.3088,-2.3682,-2.4708,-2.4948,-2.5286,-2.5784,-2.5839,-2.5893,-2.5893,-2.5893,-2.5948,-2.6111,-1.793,-1.7657,-1.751,-1.7862,-1.7442,-1.695,-1.6673,-1.6403,-1.6202,-1.6132,-1.6682,-1.7097,-1.7373,-1.792,-1.8462,-1.8731,-1.8607,-1.8472,-1.8327,-1.8462,-1.8607,-1.8539,-1.8808,-1.8808,-1.8482,-1.8347,-1.8269,-1.8269,-1.8202,-1.8144,-1.8144,-1.8144,-1.7988,-1.7638,-1.7432,-1.6802,-1.5974,-1.5621,-1.5267,-1.4919,-1.4919,-1.507,-1.5221,-1.5221,-1.5221,-1.5221,-1.5221,-1.5221,-1.5221,-1.5221,-1.5221,-1.5221,-1.5221,-1.5426,-1.5666,-1.5722,-1.6354,-1.7101,-1.6964,-1.7513,-1.8019,-1.7465,-1.7865,-1.8341,-1.803,-1.8294,-1.8756,-1.9057,-1.917,-1.9333,-1.9689,-1.9744,-1.9829,-2.0105,-2.0433,-2.0587,-2.0607,-2.108,-2.1296,-2.0971,-2.1199,-2.1344,-2.1344,-2.1596,-2.1765,-2.1765,-2.2041,-2.2197,-2.2197,-2.2197,-2.2061,-2.1726,-2.1325,-2.0933,-2.0613,-2.1663,-2.2061,-2.1726,-2.2061,-2.2359,-2.2702,-2.2702,-2.298,-2.361,-2.3975,-2.4465,-2.5005,-2.5342,-2.5674,-2.5893,-2.5893,-2.5893,-2.5893,-2.5893,-2.615,-2.651,-1.8472,-1.8124,-1.792,-1.8269,-1.793,-1.7373,-1.6673,-1.6603,-1.6473,-1.6211,-1.6899,-1.751,-1.7784,-1.8596,-1.9075,-1.9075,-1.8942,-1.89,-1.8909,-1.8909,-1.8895,-1.8865,-1.8808,-1.8741,-1.8549,-1.8472,-1.8405,-1.8405,-1.8269,-1.8212,-1.8212,-1.8279,-1.8347,-1.8337,-1.791,-1.7364,-1.6673,-1.6114,-1.57,-1.5346,-1.5346,-1.5505,-1.5788,-1.5703,-1.5668,-1.5651,-1.5574,-1.554,-1.554,-1.554,-1.554,-1.554,-1.554,-1.567,-1.5876,-1.5963,-1.655,-1.7207,-1.7314,-1.767,-1.7819,-1.71,-1.7654,-1.8294,-1.7938,-1.804,-1.8285,-1.8777,-1.8533,-1.8429,-1.8934,-1.8987,-1.9119,-1.9528,-2.0064,-2.0428,-2.039,-2.0971,-2.1212,-2.0633,-2.0698,-2.0713,-2.061,-2.0983,-2.1223,-2.1223,-2.1596,-2.1813,-2.1813,-2.1825,-2.1825,-2.1813,-2.1534,-2.1336,-2.1336,-2.1925,-2.2247,-2.242,-2.242,-2.2763,-2.3314,-2.3314,-2.3682,-2.4266,-2.4765,-2.5061,-2.523,-2.5729,-2.5893,-2.5893,-2.5893,-2.5948,-2.6056,-2.6056,-2.6457,-2.7019,-1.9075,-1.9008,-1.8798,-1.8405,-1.8269,-1.7852,-1.6742,-1.6603,-1.6742,-1.7245,-1.7382,-1.7784,-1.8865,-1.9065,-1.9075,-1.9075,-1.9075,-1.8889,-1.8464,-1.8433,-1.862,-1.9054,-1.8875,-1.8808,-1.8808,-1.8741,-1.8741,-1.8741,-1.8741,-1.8741,-1.8741,-1.8549,-1.8482,-1.8482,-1.792,-1.7501,-1.7097,-1.6542,-1.607,-1.5726,-1.5726,-1.5797,-1.5762,-1.5394,-1.5257,-1.5215,-1.4881,-1.4769,-1.4769,-1.4769,-1.4769,-1.4769,-1.4769,-1.54,-1.6149,-1.6175,-1.6768,-1.7438,-1.7292,-1.7156,-1.7169,-1.7441,-1.7715,-1.8098,-1.8595,-1.8833,-1.8946,-1.8994,-1.8958,-1.8934,-1.8987,-1.8987,-1.8999,-1.9047,-1.951,-1.9874,-1.9872,-2.0731,-2.121,-2.0636,-2.1031,-2.1131,-2.0668,-2.0646,-2.067,-2.067,-2.0682,-2.074,-2.074,-2.0718,-2.0718,-2.0752,-2.1596,-2.2123,-2.2123,-2.2185,-2.2469,-2.3027,-2.3027,-2.3327,-2.3904,-2.3904,-2.4279,-2.4948,-2.5005,-2.5342,-2.5839,-2.5893,-2.5893,-2.5893,-2.5893,-2.615,-2.6457,-2.6457,-2.6841,-2.7401,-1.9075,-1.8808,-1.8539,-1.8337,-1.7998,-1.751,-1.6742,-1.689,-1.7028,-1.689,-1.751,-1.8124,-1.8539,-1.8619,-1.864,-1.864,-1.8402,-1.8164,-1.7988,-1.7978,-1.8061,-1.8237,-1.8183,-1.8119,-1.8119,-1.8045,-1.7981,-1.7981,-1.7853,-1.7799,-1.7799,-1.7863,-1.7853,-1.7853,-1.7122,-1.6731,-1.6534,-1.569,-1.5238,-1.5112,-1.5112,-1.5112,-1.5095,-1.4941,-1.4889,-1.4863,-1.4735,-1.4684,-1.4684,-1.4684,-1.4684,-1.4684,-1.4684,-1.5189,-1.5771,-1.6014,-1.6255,-1.6526,-1.6752,-1.7245,-1.7571,-1.6964,-1.7707,-1.8518,-1.8407,-1.872,-1.8987,-1.8987,-1.8987,-1.9093,-1.9448,-1.95,-1.9604,-1.9952,-2.0459,-2.066,-2.0359,-2.0641,-2.0669,-2.0164,-1.9982,-1.986,-1.9612,-1.9901,-2.0093,-2.0093,-2.0406,-2.0598,-2.0598,-2.061,-2.061,-2.0598,-2.0995,-2.1211,-2.1211,-2.1541,-2.1807,-2.2071,-2.2413,-2.3033,-2.4019,-2.4019,-2.4556,-2.5564,-2.5564,-2.5674,-2.5893,-2.615,-2.6258,-2.6312,-2.6563,-2.6864,-2.7108,-2.6916,-2.7378,-2.8057,-1.8664,-1.8529,-1.8405,-1.7852,-1.7716,-1.7373,-1.6473,-1.6711,-1.6912,-1.6707,-1.7197,-1.7787,-1.8061,-1.8178,-1.8175,-1.8175,-1.7905,-1.7606,-1.7461,-1.7388,-1.7399,-1.7688,-1.7709,-1.7698,-1.7687,-1.7626,-1.7543,-1.7543,-1.7419,-1.7357,-1.7357,-1.7481,-1.7543,-1.7543,-1.6762,-1.6437,-1.6383,-1.5504,-1.5068,-1.4937,-1.4937,-1.4806,-1.4667,-1.4547,-1.4495,-1.4487,-1.4358,-1.4443,-1.4507,-1.438,-1.4507,-1.4762,-1.458,-1.4952,-1.5579,-1.6027,-1.6087,-1.6134,-1.657,-1.7337,-1.7772,-1.702,-1.7779,-1.8643,-1.8425,-1.872,-1.8987,-1.8987,-1.8987,-1.9146,-1.9708,-1.9798,-1.9952,-2.051,-2.1068,-2.1264,-2.0908,-2.1006,-2.0894,-2.0359,-2.0003,-1.9604,-1.9291,-1.958,-1.9745,-1.9582,-1.9889,-2.0161,-2.0317,-2.0372,-2.0372,-2.0372,-2.0539,-2.0539,-2.0372,-2.107,-2.1554,-2.1941,-2.2322,-2.3018,-2.4012,-2.4012,-2.4526,-2.5317,-2.5317,-2.5537,-2.5813,-2.6117,-2.6376,-2.6721,-2.6967,-2.7276,-2.7595,-2.7393,-2.7795,-2.8398,-1.7647,-1.8327,-1.8586,-1.6872,-1.7501,-1.7716,-1.607,-1.5936,-1.6227,-1.6703,-1.6457,-1.6573,-1.7606,-1.7729,-1.7668,-1.7668,-1.7668,-1.7461,-1.7007,-1.6622,-1.6811,-1.7673,-1.7708,-1.7667,-1.7669,-1.7667,-1.7657,-1.7657,-1.7657,-1.7657,-1.7657,-1.7657,-1.7657,-1.7657,-1.7139,-1.6878,-1.6878,-1.6319,-1.5817,-1.5375,-1.5375,-1.5124,-1.4632,-1.4238,-1.4093,-1.4042,-1.3648,-1.3821,-1.413,-1.3631,-1.4112,-1.4834,-1.4369,-1.4902,-1.5798,-1.6259,-1.6384,-1.6488,-1.6909,-1.7378,-1.7779,-1.8043,-1.8075,-1.8282,-1.8839,-1.8987,-1.8987,-1.8999,-1.8987,-1.9198,-1.9695,-1.9798,-2.0003,-2.051,-2.1068,-2.1423,-2.1423,-2.1841,-2.1996,-2.1471,-2.1375,-2.0957,-1.9901,-1.9798,-1.9604,-1.904,-1.8987,-1.9251,-1.9747,-1.9798,-1.9798,-1.9798,-2.0308,-2.0359,-1.9798,-2.0891,-2.1982,-2.3068,-2.3068,-2.3447,-2.4103,-2.4103,-2.4118,-2.4118,-2.4118,-2.4646,-2.5611,-2.5611,-2.6177,-2.7108,-2.7108,-2.7378,-2.7775,-2.779,-2.8039,-2.8411,-1.8192,-1.7744,-1.7264,-1.6333,-1.5981,-1.5601,-1.5085,-1.5692,-1.6187,-1.6381,-1.6914,-1.7346,-1.7668,-1.7389,-1.7193,-1.7193,-1.6964,-1.6726,-1.6581,-1.6456,-1.6529,-1.6801,-1.6819,-1.6805,-1.679,-1.6805,-1.6788,-1.6788,-1.6788,-1.6788,-1.6788,-1.6788,-1.6788,-1.6788,-1.6296,-1.6059,-1.5999,-1.5511,-1.4967,-1.4549,-1.4549,-1.4294,-1.3845,-1.3725,-1.3682,-1.3665,-1.3554,-1.3821,-1.4189,-1.407,-1.4419,-1.4951,-1.5196,-1.5371,-1.5652,-1.6467,-1.6591,-1.674,-1.7556,-1.7844,-1.8001,-1.8191,-1.8472,-1.8798,-1.8946,-1.8987,-1.9093,-1.95,-1.9552,-1.985,-2.0759,-2.0921,-2.1104,-2.1636,-2.1841,-2.1949,-2.1949,-2.1793,-2.1458,-2.0908,-2.0858,-2.0409,-1.9344,-1.9604,-1.9604,-1.904,-1.9344,-1.9656,-1.9798,-2.0156,-2.0003,-1.9239,-2.0105,-2.051,-2.0359,-2.1051,-2.1589,-2.1903,-2.2297,-2.2811,-2.3393,-2.3393,-2.3631,-2.4103,-2.4341,-2.464,-2.4962,-2.5486,-2.583,-2.6153,-2.6468,-2.7055,-2.7704,-2.7578,-2.798,-2.8605,-1.7092,-1.6741,-1.6431,-1.5601,-1.5217,-1.4937,-1.4749,-1.524,-1.5694,-1.5873,-1.6493,-1.6951,-1.7202,-1.6943,-1.6777,-1.6777,-1.6539,-1.6384,-1.6384,-1.6384,-1.6384,-1.6384,-1.6384,-1.6384,-1.6384,-1.6608,-1.6608,-1.6384,-1.6384,-1.6384,-1.6384,-1.6384,-1.6384,-1.6384,-1.6087,-1.5972,-1.5972,-1.543,-1.4961,-1.4478,-1.4249,-1.3941,-1.3511,-1.3511,-1.3511,-1.3511,-1.3692,-1.4061,-1.4478,-1.4478,-1.4834,-1.5313,-1.5798,-1.5904,-1.5894,-1.6477,-1.6751,-1.7,-1.7875,-1.8219,-1.851,-1.8963,-1.9036,-1.904,-1.9267,-1.9331,-1.9448,-2.0003,-2.0105,-2.0359,-2.1215,-2.1423,-2.1568,-2.2137,-2.2184,-2.2184,-2.2184,-2.1949,-2.1602,-2.1251,-2.1251,-2.0894,-2.0055,-2.0258,-2.0207,-1.9643,-1.9952,-2.0207,-2.0409,-2.0759,-2.061,-1.9952,-2.0795,-2.1153,-2.0921,-2.1458,-2.1698,-2.1698,-2.2044,-2.2381,-2.2732,-2.2732,-2.2943,-2.3371,-2.3683,-2.4115,-2.4538,-2.5103,-2.5576,-2.6016,-2.629,-2.6762,-2.7283,-2.7178,-2.7518,-2.8028,-1.5124,-1.5652,-1.5935,-1.4885,-1.51,-1.5267,-1.4768,-1.4836,-1.5019,-1.5449,-1.5674,-1.5914,-1.6327,-1.6384,-1.6384,-1.6384,-1.6431,-1.6488,-1.6488,-1.6488,-1.6509,-1.654,-1.6519,-1.6452,-1.6452,-1.6977,-1.691,-1.6384,-1.6431,-1.6431,-1.6384,-1.6384,-1.6384,-1.6384,-1.6384,-1.6384,-1.6384,-1.5972,-1.543,-1.4834,-1.4428,-1.4001,-1.3571,-1.3511,-1.3563,-1.3692,-1.407,-1.4538,-1.4951,-1.501,-1.5371,-1.5856,-1.6269,-1.6384,-1.6431,-1.6431,-1.6853,-1.7368,-1.7984,-1.8526,-1.9125,-2.0007,-1.9688,-1.9307,-1.9774,-1.9863,-2.0003,-2.056,-2.066,-2.0858,-2.1361,-2.1471,-2.1616,-2.2137,-2.2184,-2.2184,-2.2184,-2.2184,-2.2184,-2.2137,-2.2184,-2.1996,-2.1375,-2.1313,-2.1166,-2.0709,-2.066,-2.0858,-2.1361,-2.1471,-2.1423,-2.1313,-2.1902,-2.1949,-2.1423,-2.1949,-2.2184,-2.2184,-2.2184,-2.2184,-2.2184,-2.2184,-2.2231,-2.2263,-2.2618,-2.336,-2.4282,-2.4686,-2.5375,-2.6284,-2.6284,-2.6419,-2.6642,-2.6642,-2.6788,-2.6993,-1.6128,-1.6114,-1.5956,-1.4962,-1.4894,-1.4986,-1.4865,-1.5219,-1.5517,-1.5625,-1.6022,-1.6316,-1.6384,-1.6384,-1.6384,-1.6384,-1.6786,-1.7045,-1.7045,-1.7045,-1.7253,-1.7728,-1.7266,-1.702,-1.702,-1.7121,-1.6944,-1.6384,-1.6842,-1.6786,-1.6384,-1.6384,-1.6384,-1.6384,-1.6384,-1.6384,-1.6374,-1.6316,-1.572,-1.4893,-1.4775,-1.4478,-1.4001,-1.3631,-1.3992,-1.4529,-1.4309,-1.4784,-1.5556,-1.5961,-1.6134,-1.6269,-1.6384,-1.6384,-1.6488,-1.6807,-1.729,-1.7843,-1.8333,-1.9202,-1.9953,-2.0156,-2.0403,-2.0548,-2.0458,-2.0446,-2.056,-2.1118,-2.1215,-2.141,-2.1949,-2.2044,-2.2044,-2.2184,-2.2184,-2.2184,-2.2184,-2.2184,-2.2044,-2.1616,-2.1949,-2.1841,-2.0858,-2.0759,-2.0921,-2.1215,-2.1215,-2.1277,-2.1375,-2.1793,-2.1636,-2.0809,-2.1684,-2.1949,-2.1423,-2.1949,-2.2184,-2.2184,-2.2184,-2.2184,-2.2184,-2.2184,-2.2356,-2.2618,-2.3157,-2.367,-2.4207,-2.4725,-2.508,-2.5302,-2.5302,-2.5633,-2.6146,-2.6146,-2.6493,-2.7078,-1.5718,-1.5607,-1.5453,-1.4911,-1.4855,-1.4893,-1.4893,-1.5371,-1.5672,-1.5672,-1.6087,-1.6384,-1.6384,-1.6384,-1.6477,-1.674,-1.7268,-1.7644,-1.7644,-1.7645,-1.7623,-1.766,-1.7345,-1.7088,-1.6842,-1.7062,-1.6963,-1.6384,-1.6684,-1.6694,-1.6384,-1.6384,-1.6384,-1.6384,-1.6384,-1.6384,-1.6384,-1.6144,-1.5788,-1.5254,-1.501,-1.4775,-1.4478,-1.4231,-1.4469,-1.4893,-1.4902,-1.5381,-1.6087,-1.6327,-1.6384,-1.6384,-1.6384,-1.6591,-1.6842,-1.7056,-1.7722,-1.8506,-1.8721,-1.9569,-2.044,-2.062,-2.1097,-2.1429,-2.1145,-2.1073,-2.1215,-2.1698,-2.1793,-2.1841,-2.2137,-2.2184,-2.2184,-2.2184,-2.2184,-2.2184,-2.2184,-2.2184,-2.2091,-2.1793,-2.2044,-2.1983,-2.1444,-2.1348,-2.1492,-2.1746,-2.1793,-2.1793,-2.1793,-2.2044,-2.1935,-2.1396,-2.1935,-2.2091,-2.1793,-2.2044,-2.2184,-2.2184,-2.2184,-2.2184,-2.2231,-2.2356,-2.2618,-2.2934,-2.3551,-2.3964,-2.4297,-2.4791,-2.5005,-2.5005,-2.5005,-2.5267,-2.568,-2.568,-2.6023,-2.6638,-1.5137,-1.5128,-1.5128,-1.5069,-1.5128,-1.5186,-1.5186,-1.5546,-1.5798,-1.5798,-1.6144,-1.6384,-1.6384,-1.6488,-1.674,-1.7146,-1.7875,-1.8267,-1.8267,-1.8262,-1.8068,-1.7678,-1.7473,-1.7202,-1.6828,-1.7173,-1.7059,-1.6534,-1.6648,-1.6648,-1.6534,-1.6534,-1.6488,-1.6384,-1.6384,-1.6384,-1.6374,-1.5972,-1.5798,-1.5672,-1.5196,-1.501,-1.501,-1.4951,-1.501,-1.5186,-1.5556,-1.6029,-1.6384,-1.6384,-1.6488,-1.6534,-1.6534,-1.6899,-1.7368,-1.7368,-1.8147,-1.904,-1.9081,-1.994,-2.086,-2.1247,-2.1797,-2.2073,-2.1847,-2.1736,-2.1841,-2.2184,-2.2231,-2.2184,-2.2184,-2.2184,-2.2184,-2.2184,-2.2184,-2.2184,-2.2184,-2.2184,-2.2184,-2.2184,-2.2184,-2.2184,-2.2184,-2.2184,-2.2184,-2.2184,-2.2184,-2.2184,-2.2184,-2.2184,-2.2184,-2.2184,-2.2184,-2.2184,-2.2184,-2.2184,-2.2184,-2.2184,-2.2263,-2.2278,-2.231,-2.2572,-2.2889,-2.326,-2.3894,-2.4256,-2.4446,-2.491,-2.5084,-2.5045,-2.5084,-2.5217,-2.5371,-2.5394,-2.5717,-2.6272,-1.5672,-1.5904,-1.6087,-1.5672,-1.5904,-1.6202,-1.6202,-1.6259,-1.6316,-1.6316,-1.6374,-1.6384,-1.6384,-1.6786,-1.7101,-1.7202,-1.8201,-1.8881,-1.8881,-1.8887,-1.9059,-1.942,-1.8527,-1.8194,-1.8642,-1.8216,-1.7689,-1.7101,-1.76,-1.76,-1.7101,-1.7101,-1.6842,-1.6384,-1.6384,-1.6384,-1.6384,-1.6316,-1.6087,-1.5672,-1.5614,-1.5614,-1.5556,-1.5069,-1.543,-1.6134,-1.5798,-1.6029,-1.6384,-1.6384,-1.6684,-1.7101,-1.7101,-1.7479,-1.7984,-1.7984,-1.8483,-1.9081,-1.949,-2.0432,-2.1403,-2.1941,-2.242,-2.2694,-2.2498,-2.2388,-2.2324,-2.237,-2.2278,-2.2184,-2.2184,-2.2184,-2.2184,-2.2184,-2.2184,-2.2184,-2.2184,-2.2184,-2.2184,-2.2184,-2.2184,-2.2184,-2.2184,-2.2184,-2.2184,-2.2184,-2.2184,-2.2184,-2.2184,-2.2184,-2.2184,-2.2184,-2.2184,-2.2184,-2.2184,-2.2184,-2.2184,-2.2184,-2.248,-2.2618,-2.2618,-2.2694,-2.3068,-2.3739,-2.4158,-2.4461,-2.4614,-2.524,-2.541,-2.5294,-2.5448,-2.554,-2.5616,-2.5807,-2.6243,-2.6691,-1.6144,-1.6259,-1.6316,-1.6144,-1.6259,-1.6384,-1.6384,-1.6384,-1.6384,-1.6384,-1.6384,-1.6384,-1.6384,-1.7179,-1.7699,-1.7699,-1.8792,-1.9448,-1.9448,-1.9473,-1.9445,-1.9352,-1.8887,-1.8565,-1.8476,-1.826,-1.8154,-1.8205,-1.8104,-1.7984,-1.7699,-1.7699,-1.7379,-1.6842,-1.6842,-1.6684,-1.6384,-1.6384,-1.6259,-1.6087,-1.6087,-1.6087,-1.6087,-1.5846,-1.6019,-1.6384,-1.6144,-1.6202,-1.6384,-1.6384,-1.674,-1.7202,-1.7202,-1.7875,-1.859,-1.859,-1.9226,-1.9952,-2.0169,-2.1015,-2.1874,-2.203,-2.2477,-2.2826,-2.2661,-2.2509,-2.2417,-2.254,-2.2526,-2.254,-2.2768,-2.2814,-2.2723,-2.254,-2.248,-2.2388,-2.2231,-2.2184,-2.2184,-2.2184,-2.2184,-2.2184,-2.2184,-2.2184,-2.2184,-2.2184,-2.2184,-2.2184,-2.2184,-2.2184,-2.2184,-2.2184,-2.2184,-2.2184,-2.2184,-2.2184,-2.2184,-2.2184,-2.2356,-2.2526,-2.2694,-2.3113,-2.3623,-2.4173,-2.4558,-2.491,-2.5162,-2.5486,-2.554,-2.5486,-2.5578,-2.5675,-2.5844,-2.6118,-2.6487,-2.6825]}]]